GFSSE_con_mucape_000.txt.gz
CAPE
310 366 500 726 1005 1204 1153 1538 2217 2453 2691 2849 2804 2809 2597 2785 2637 2585 2514 2511 2317 2197 2155 2191 2061 1915 1957 2069 2073 2172 1824 1936 1598 1854 1728 1799 1439 1516 1207 1142 1211 468 1338
454 368 739 1153 1042 1087 1259 1554 2094 2364 2550 2518 2717 2390 2330 2251 2426 2531 2539 2515 2289 2093 2244 2225 2108 2045 1935 1723 1671 1796 1596 1781 1553 1849 1729 1205 1266 1619 1328 927 940 1194 1079
465 600 523 1010 1040 1146 1188 1663 2012 2404 2239 2658 2245 1830 1641 2093 2428 2590 2600 2397 2309 2315 2253 2160 2023 1997 1907 1906 1792 1680 1656 1524 1281 1731 1511 523 752 923 1351 969 955 1004 1164
334 439 386 1237 1371 1092 1035 1651 1764 1852 1671 2002 1837 1626 1840 2080 2241 2447 2342 2264 2283 2176 2052 2024 1990 1951 1857 1939 1844 1623 1644 1464 1342 1009 1312 508 662 1661 1521 1457 1579 1159 1311
610 478 862 1244 1270 1183 1152 1595 2116 2032 2022 2156 1777 1740 1744 1932 2384 2397 2173 2139 2088 2037 1985 1860 1734 1812 1932 2047 1930 1967 1582 1424 1360 1283 1484 1082 1056 1698 1270 1420 1500 1103 1008
815 850 646 988 1242 1196 1533 1744 1878 2034 2079 2163 1881 1776 1942 2271 2123 1985 1976 2093 2008 1990 1982 1943 1910 1885 1865 2115 2277 2026 1920 1689 1528 1593 1342 1230 1135 1648 1371 1313 947 1230 1263
927 1092 842 1651 1753 1580 1642 1896 2367 1911 2038 2160 2183 2018 2207 1960 2009 2000 2217 2141 1948 1851 1912 1848 1967 2041 2095 2239 2424 1996 2056 1595 1596 1555 1537 1652 1618 1568 1193 1443 627 807 1315
1139 1031 1440 1852 2076 2074 2065 2229 2494 2141 2221 2359 2205 2128 2131 2035 2130 2171 2106 1931 1868 1833 1801 1961 2080 2021 2023 2101 2191 1759 1937 1950 1742 1524 1675 1342 1889 2146 1555 1517 1096 1095 1299
1193 1212 1562 1523 2106 2351 2385 2417 2475 2236 2096 1964 2140 2275 2156 2178 2108 2292 2107 1924 1900 2000 2159 2139 1950 1704 1908 1919 1838 1867 1785 1607 2054 1815 1551 1642 1828 2086 2272 1678 1539 1511 1321
1423 1665 1898 2004 2028 1974 2069 2494 2429 2103 1600 1778 2145 2165 2215 2237 2122 1842 2013 2005 1924 1800 1854 2018 1901 1866 1928 1851 1793 1770 1526 1927 1561 1441 1850 1811 1727 2039 1996 2038 1359 950 1277
1464 1645 1820 1966 2067 2180 1629 1784 1964 1754 1842 1922 2136 2226 1838 1455 1640 1492 1734 1781 1986 1807 1697 1911 1919 1991 1693 1626 1583 1544 1594 1242 1429 1442 1773 1786 1557 1701 1984 2154 1788 1413 1370
1589 1595 1521 1756 1935 1997 1617 2041 2000 1480 1198 1130 1129 1380 1293 1538 1829 1406 1645 1835 1850 1773 1750 1841 1646 1576 1738 1136 1119 1284 900 1142 1373 1474 1566 1729 1577 1600 1733 1854 1499 2139 1213
1530 1613 1788 1627 1998 1930 1912 1855 1823 1571 1418 1477 1844 1775 1386 1544 1553 1805 1682 1548 1287 1389 1762 1632 1508 1267 1472 1259 934 938 996 944 778 1294 1681 1394 1462 1694 1505 1681 1588 1801 1270
1300 1355 1483 1681 1842 1861 3152 1798 1677 1468 1435 1312 1358 1863 1863 1696 1752 1989 1723 1765 1928 1462 1585 1556 1262 1465 1450 1176 1127 1051 740 723 601 670 1329 1597 1463 1822 1790 1638 1466 1748 1231
1271 1354 1414 1678 2051 2169 2318 1622 1574 1488 1333 1176 1171 1587 1496 1377 2022 1892 1738 1785 1651 1542 1342 1341 1392 1438 1409 1053 964 575 293 294 547 507 667 1548 1243 1469 1980 1769 1557 1689 1532
1127 1258 1466 1673 2029 2132 2134 1995 1734 1579 1393 1349 1112 1126 1680 1482 2080 1572 1533 1372 1464 1529 1232 1288 1561 1521 1236 824 354 319 240 138 225 498 339 668 1368 1226 1610 1848 1891 1721 1705
1192 1221 1537 1948 2135 2542 2576 2312 2124 1693 1493 1386 1278 1671 1786 1984 1887 1612 1548 1412 1436 1548 1827 1521 1474 1215 759 520 279 146 299 252 242 374 453 243 713 1748 1698 1689 2481 2545 1915
1277 1485 1609 1543 1807 2307 2318 2146 1935 1554 1558 1557 1326 1595 2072 1979 1956 1864 1675 1403 1260 1358 1453 1330 1193 758 528 383 177 244 316 180 242 319 338 440 130 206 1745 1778 1626 2581 2552
1489 1782 1854 1745 1598 1888 2231 2119 2049 1904 2383 2338 2311 1866 1749 1853 1639 1817 1520 1445 1603 1338 1504 1139 835 614 328 136 79 40 218 169 173 111 418 626 736 522 267 1977 1362 1519 1762
1634 1966 2079 1890 1936 2278 3117 2985 2311 2203 1954 1689 1802 2398 2124 2307 1762 1913 1639 1484 1458 1528 1139 938 842 367 433 129 16 32 229 129 160 170 127 59 133 546 886 1576 1344 1513 1578
1791 2214 2531 2404 2499 2770 2717 1700 1770 1565 1692 2022 1698 2403 2264 2110 2002 1944 1498 1625 1543 1471 929 599 316 201 15 78 14 26 188 168 113 34 5 0 0 1 226 967 1243 1372 1724
1897 2353 2709 2797 2764 2850 2203 2455 2011 2302 1637 1853 2000 2133 2225 2172 2225 1957 1896 1695 1598 507 746 340 213 46 23 48 92 19 25 220 190 48 2 0 0 0 0 73 471 848 903
1799 2391 2711 3051 3125 3074 2937 2392 2563 2432 2432 2066 2162 2422 2735 2589 2518 2404 2224 1528 1357 371 3 156 126 31 14 338 348 61 19 24 22 83 89 0 0 0 0 0 2 3 0
1650 2042 2751 3175 3423 3242 3210 2972 3586 2291 1787 1374 1730 1392 2066 2650 2451 2323 2147 1652 429 1 60 119 26 55 193 27 27 48 217 283 39 38 50 16 0 0 0 0 0 0 0
1511 1821 2351 3201 3734 3739 3377 3616 3150 3030 1792 1436 1512 1999 2359 2313 2490 1703 2200 875 346 126 314 151 61 140 62 28 20 37 68 22 12 9 11 21 21 15 0 0 0 0 0
1371 1620 1952 3177 4089 3741 3649 3587 3540 2895 2635 1537 2020 1643 1139 1138 1795 1916 2061 936 294 48 281 172 34 99 86 61 65 134 23 19 25 15 10 10 15 14 9 3 1 0 0

GFSSE_con_mucape_006.txt.gz
CAPE
165 109 508 619 732 1171 2190 2553 2544 2872 3029 2968 3155 3270 3238 3216 3314 3052 2916 2992 2924 2795 2664 2273 1904 1672 1726 1756 1648 1583 1626 1673 1345 1449 1296 1472 1425 1091 952 546 707 880 1180
186 324 1213 1321 1212 2038 2372 2522 2860 2971 2960 3022 3207 3211 3144 3247 3305 3052 2947 2928 2937 2799 2635 2161 1831 1795 1617 1555 1500 1534 1462 1307 1425 1325 1089 1371 1195 1084 944 877 1572 1303 1225
144 187 636 1630 1883 1919 2278 2501 2791 2762 2755 2946 2999 3110 3202 3270 3092 2971 2912 2829 2772 2585 2055 1941 1874 1862 1677 1405 1379 1308 1248 1165 939 687 793 946 749 908 1172 1122 1304 1482 1333
119 146 351 1758 2152 2256 2330 2423 2454 2371 2478 2684 2763 2836 3101 3147 2874 2639 2329 2168 2182 2280 1916 1786 1836 1858 1949 1662 1347 1165 1027 988 1060 1084 1385 690 265 1091 1450 1051 1398 1306 1128
263 466 649 1944 2030 2323 2352 2474 2409 2331 2371 2579 2617 2568 2922 2858 2631 2464 2062 1891 1915 1901 1836 1837 1832 1735 1854 1963 1617 1374 1064 884 1119 1562 1121 1143 702 1238 1349 1092 1324 1086 1495
693 625 1352 1943 1734 2260 2453 2621 2402 2500 2445 2482 2313 2503 2712 2525 2146 1902 1822 1652 1683 1711 1724 1834 1863 1859 1840 2000 1804 1804 1566 1417 1451 1198 1728 1593 827 1455 1541 1422 1531 1218 1230
589 686 837 2169 2283 2247 2457 2611 2184 2145 2314 2458 2384 2428 2350 2124 1824 1925 1640 1503 1530 1675 1662 1796 1623 1762 1674 1932 1848 1787 1830 1674 1773 1693 1325 1253 1431 1918 1407 1251 1343 1263 1380
464 734 900 1963 2214 2278 2507 2836 2566 2394 2121 2364 2234 2053 1957 1776 1758 1800 1436 1402 1469 1655 1772 1861 1523 1614 1716 1614 1731 1819 1890 1831 1808 1706 1765 1313 1896 1941 1907 645 1100 1468 1415
883 962 1145 1298 1912 2264 2655 2634 2560 2210 2189 2083 1886 1936 1797 1695 1672 1708 1431 1186 1490 1626 1672 1809 1459 1532 1641 1559 1746 1747 1845 1995 2063 1158 1562 1668 2480 2007 1941 1216 830 1332 1439
823 1134 1682 1747 1517 1918 1874 2654 2076 2061 1822 1888 1963 1844 1615 1589 1684 1827 1607 1816 1569 1375 1549 1712 1460 1473 1401 1572 1635 1464 1591 1811 1613 832 940 1433 1850 2158 1829 1456 1873 1465 1322
1075 1313 1280 1378 2023 2448 2098 1955 2240 1844 1492 1778 1728 1824 2020 1316 1443 1713 2212 2169 1644 1763 1585 1608 1461 1449 1459 1769 1918 2163 2157 1245 1152 1416 1369 1994 2155 1973 1938 1483 1219 1469 1481
937 1379 1140 1308 2054 2010 1341 2445 2455 1385 1022 1411 1433 1820 1548 1120 1992 2147 2071 1657 1884 2072 1422 1625 1655 1536 2104 1890 1790 2049 1048 1087 1244 1794 1423 2018 1971 1694 1288 689 1512 1295 1636
1122 1063 1219 1734 2279 2159 2218 2129 1709 1440 1485 1625 2767 2219 2300 2111 1347 912 1235 349 1602 1572 1226 1614 1824 1674 1675 1436 1249 948 791 727 432 1506 1299 1847 1492 1584 1674 1133 1401 1372 1499
1422 1785 2133 2193 2665 2643 2503 2232 2252 1769 1624 1629 1899 2838 3243 2985 2457 870 1049 953 1510 984 1262 1525 1667 1540 1392 1563 781 695 644 216 77 194 1733 1936 1553 1452 1727 1536 1130 1087 1703
832 1828 1929 2424 3099 3259 3260 2078 1831 2021 1488 1292 2429 2663 2135 2600 2251 977 2858 2698 2856 2380 1869 2276 1810 1778 2134 1824 820 721 376 406 256 154 1078 2279 1637 1236 1674 1801 1573 282 1144
1129 1229 1733 2550 3115 2569 3155 3689 3298 2870 1389 2192 1283 2623 3007 3119 3069 1374 2277 1937 2197 1871 2697 2175 2489 2283 1734 1359 1546 389 377 478 352 436 288 1933 2170 1832 1425 1797 1913 1654 1602
1251 1558 2033 2316 2284 2554 3269 3288 3214 2313 1317 1609 1874 2110 3071 3354 3636 3297 2688 2898 2260 2119 2646 2192 2214 998 516 573 575 416 371 346 469 215 311 321 1743 2447 2061 1972 1985 2150 2036
1284 1907 2025 989 2178 2339 2654 2923 2246 1803 2445 2384 2927 1304 2738 3287 3243 3224 2691 1459 593 2161 2278 1544 1445 1504 544 369 352 636 462 292 194 333 320 98 554 908 2241 2225 2305 2080 2008
1606 2255 2090 2271 2176 2663 2679 2675 2658 2451 2652 2432 2672 2418 2167 1529 2781 2818 2748 1564 2023 2036 2192 1176 575 1204 279 504 141 217 347 447 224 32 98 240 482 876 1356 2076 2293 2380 1876
1511 2216 2284 2080 3257 2890 3110 3234 2872 2628 2019 2367 2458 2725 2028 2563 2817 2800 2767 2191 2622 2897 1428 1703 1167 847 577 289 104 14 359 434 357 25 27 37 47 394 741 1380 1531 1600 1796
1523 2131 2308 2432 3228 3537 3257 2400 2367 2110 2709 2337 2360 2182 2725 3116 2643 3012 2735 2202 1791 2602 874 1185 870 487 603 425 218 136 429 357 381 206 0 0 0 9 237 654 1068 1615 1388
1381 1812 2696 2702 3498 3176 3090 2904 2670 2284 1942 2029 2310 2775 3096 2781 3468 2412 2629 2350 1865 1803 1803 1353 692 387 421 773 194 403 257 558 123 175 13 0 0 0 0 138 611 686 1177
1416 2089 2491 3095 3247 3180 3051 3039 3215 2761 2473 2362 2815 2778 3241 3310 3213 1726 2535 2687 2426 1634 1276 1400 839 358 291 1161 307 398 413 514 458 475 229 10 2 0 0 0 0 0 0
1422 1926 2789 3242 3436 3580 2927 3032 2715 2233 2400 2504 2879 2277 2936 3160 3074 3032 3101 2939 2629 1322 1729 1204 688 284 829 419 809 360 215 132 223 198 556 53 21 0 0 0 0 0 0
1467 2076 2571 3479 3627 3618 3560 3176 2982 2804 2107 2066 1694 3635 3220 3494 2942 2578 2841 2833 2224 1435 1645 765 617 416 839 564 412 611 831 479 146 54 87 73 83 48 3 0 0 0 0
1469 2169 2273 3739 3966 3886 3902 3299 3539 2497 2534 1952 2802 2927 2631 2498 2818 2939 2353 2445 2115 1156 1341 852 807 960 590 665 508 731 400 423 43 297 70 46 69 114 44 31 17 2 0

GFSSE_con_mucape_009.txt.gz
CAPE
97 139 417 509 773 1508 1369 2796 2981 2902 3001 3141 3210 3225 3148 2798 2908 3014 3016 2821 2691 2577 1994 1747 1607 1615 1659 1603 1559 1555 1667 1334 1561 1323 1373 1209 917 914 809 863 1204 808 1035
24 153 758 938 1246 2077 2404 2881 2913 2808 3148 3254 3143 3193 3075 2793 2630 3017 3013 2632 2555 2570 1917 1800 1671 1579 1530 1464 1474 1463 1315 1441 1345 1072 1140 1064 947 936 1022 931 1340 872 948
140 443 711 1560 1829 2075 2243 2821 2732 2902 2985 3221 3191 3202 3130 2626 2743 2895 2464 2386 2499 2414 1870 1838 1818 1670 1426 1335 1226 1094 1173 1060 839 976 1126 566 611 1186 1074 1203 1492 1538 1251
163 464 799 1818 2085 2303 2403 2756 2561 2439 2317 2978 3071 3157 3045 2723 2865 2590 2032 2064 2197 2196 1780 1730 1723 1930 1774 1436 1207 1044 975 835 952 991 822 571 498 1041 1256 1514 1330 1322 727
110 320 971 2217 2105 2436 2545 2649 2600 2553 2453 2794 2892 3129 2961 2651 2406 2041 1924 1919 1893 1868 1788 1735 1718 1754 1933 1645 1507 1338 1309 1103 1067 1384 717 320 584 1022 1242 1409 1221 1333 1384
251 651 1822 2327 2303 2244 2544 2646 2376 2409 2548 2634 2674 3033 2712 2504 1921 1842 1699 1682 1673 1682 1798 1781 1903 1698 1703 1927 1724 1714 1667 1573 1309 971 823 873 841 1164 1162 1157 1407 1543 1232
426 840 1439 2224 2396 2465 2660 2575 2622 2263 2224 2552 2750 2769 2698 2560 2232 1838 1538 1473 1566 1621 1922 1783 1488 1679 1587 1769 1799 1731 1687 1246 825 643 866 655 1356 2141 1485 1669 1403 1111 1474
474 737 1278 2180 2416 2604 2318 2094 2503 2446 2249 2708 2730 2634 2601 2585 2607 2240 1764 1805 1534 1713 1701 1729 1451 1612 1646 1593 1682 1732 1759 1075 359 308 439 719 1834 2202 1092 1131 1294 1488 1353
540 721 1169 1383 1700 2187 2774 2481 2403 2722 2619 2637 2739 2601 2464 2414 2406 1939 1658 1534 1571 1531 1719 1717 1369 1506 1633 1608 1723 1796 1651 683 281 11 24 512 1822 2051 1082 709 1535 1476 1435
729 853 1098 1425 1543 1723 2041 2463 2039 2251 2255 2083 2254 2222 2360 2085 1738 1782 2091 1577 1365 1342 1537 1632 1415 1461 1500 1768 1883 1941 1955 760 594 180 213 695 1762 1923 1642 1457 975 1399 998
841 901 930 1280 1506 1677 1679 1821 2342 2078 2006 2114 2178 2495 2049 1343 1183 1471 1430 1888 1466 1522 1377 1486 1645 1829 1971 2085 2474 2203 2416 1139 715 556 731 1573 1887 1781 1644 1383 1678 1461 1402
923 1066 1076 1108 1252 1225 1526 1778 1641 1343 1265 1485 1460 1353 1359 1014 857 1561 1263 615 1502 1753 1489 1794 2090 1995 2175 1556 1553 1827 1587 197 1015 898 1164 1522 1885 1727 523 1737 1125 1410 1445
1010 1003 999 1266 1374 1195 1078 1491 1558 1190 780 912 980 1030 955 1189 792 555 294 101 415 1194 922 914 1434 1391 1320 510 717 374 162 93 1163 1045 1182 1674 1639 1596 1251 944 1309 1381 1673
920 834 1023 1354 1081 1507 1367 1389 1415 844 674 799 1321 1003 1583 1312 748 573 54 558 678 602 1152 632 760 1196 956 969 343 206 79 8 33 718 1076 1764 2129 1815 1668 1314 128 992 1608
660 999 1028 1077 1665 1443 1307 1188 1092 982 969 906 1291 1406 1010 1356 900 452 667 688 858 833 919 751 1151 1091 1103 1021 660 97 16 3 6 130 989 1689 1690 1736 1966 1808 1354 274 1586
1177 1316 1342 1663 1707 1379 1756 1808 1297 1360 1088 1078 1465 1272 1302 1484 1071 1002 1098 927 1250 1402 1449 1221 1014 738 504 351 531 43 9 71 46 48 353 1225 1815 1439 1660 2007 1737 620 617
1090 1468 1535 1723 1723 1524 1915 1816 1863 1685 723 776 986 1776 1637 1203 1174 1671 1407 981 1351 1345 1494 810 777 314 49 93 6 3 17 20 7 0 9 54 1273 2002 1471 2073 2114 1697 1261
991 1347 1498 1787 1465 1568 1791 1851 1840 1243 1379 1048 1613 1498 1632 1551 1860 1670 1284 1298 827 1128 998 878 798 513 311 0 0 18 11 13 10 14 79 0 650 1062 1786 1716 2161 2273 1924
820 1253 1611 1439 1276 1414 1402 1571 1682 847 1341 1178 1321 1449 1770 1846 1745 1173 1404 1084 886 1139 945 613 514 339 34 0 0 9 2 5 4 4 3 25 36 439 1052 1476 1588 1557 1325
1002 1173 1225 1321 1378 1192 1395 1632 1665 1297 1559 1792 1691 1214 924 1018 1182 1227 1240 1305 1176 1035 519 430 223 9 0 0 0 0 9 20 3 0 0 7 127 816 792 951 803 1027 1714
1311 1210 1105 1221 1663 1494 1458 1644 1626 1728 1690 1275 1114 1637 1295 1307 1418 1366 1310 1348 1466 1028 517 467 68 0 0 3 1 11 33 28 24 0 0 0 0 0 295 350 431 735 1336
1044 1143 1080 864 2098 1669 1776 1675 1508 1614 1383 1367 1319 1235 1207 1789 1609 1432 1341 1321 1154 1135 547 268 13 0 0 0 0 0 23 67 40 3 9 0 0 0 0 0 90 591 876
795 1317 1247 1014 1626 2041 1976 1653 1780 1439 1485 1459 1502 1802 1863 1893 1747 1362 1455 1163 995 809 529 275 0 0 0 0 0 2 29 26 34 35 19 0 0 0 0 0 0 0 442
833 1048 1305 1419 1729 1827 1945 1770 1839 1557 1281 1288 1464 1296 1633 2145 2001 1193 1216 1385 1041 441 175 28 48 1 39 0 88 0 0 9 31 48 27 10 0 0 0 0 0 0 0
598 1001 1657 1586 1566 1998 1778 1813 1569 1353 1103 1313 1611 1386 1772 2240 1859 1597 1653 1610 1126 463 108 82 18 0 110 7 27 52 2 0 0 2 28 8 11 2 0 0 0 0 0
796 1181 1479 1967 2017 2216 1767 2098 1823 1652 1534 1242 1022 1667 1828 1692 1492 1909 1461 1369 974 567 69 46 60 15 91 86 9 10 0 0 0 1 3 0 10 10 12 1 0 0 0

GFSSE_con_mucape_012.txt.gz
CAPE
56 70 375 526 688 1802 2501 2447 2667 3023 3032 3134 3038 2709 2500 2411 2582 2739 2703 2072 2026 1995 1831 1744 1789 1755 1712 1512 1614 1639 1434 1578 1300 1286 983 813 1013 1084 1195 1348 1301 873 757
19 127 586 633 852 2270 2682 2436 2756 3000 2848 2810 2917 2648 2167 2172 2295 2439 2438 2144 2056 1893 1806 1759 1684 1650 1624 1516 1537 1354 1412 1242 1249 1259 982 869 962 891 888 1362 865 706 881
16 207 650 1411 2048 2353 2866 2674 2749 2503 2551 3036 2964 2456 2158 2168 2287 2312 2123 2116 2035 1867 1860 1927 1770 1546 1466 1395 1348 1190 1157 891 1012 1269 881 560 781 1114 1587 1337 1077 1040 1221
142 325 670 1599 2223 2390 2609 2730 2825 2541 2461 3148 2922 2500 2240 2204 2249 2051 2052 2002 1878 1844 1795 1769 1899 1929 1646 1424 1297 1114 1002 1016 1058 946 701 486 465 1215 1384 1438 1365 936 1095
313 544 878 1705 2248 2375 2331 2591 2726 2675 2436 2907 2476 1991 1955 1944 1978 1903 1858 1851 1882 1844 1824 1803 1795 1752 1873 1579 1615 1370 1261 968 1407 1202 505 499 691 1237 1418 1307 1187 1184 1419
404 738 1648 2167 1906 2232 2350 2517 2183 2181 2133 2601 2662 2037 1893 1938 1821 1713 1727 1744 1774 1838 1790 1770 1773 1651 1716 1896 1744 1591 1399 1393 385 702 622 815 845 1425 1272 1359 1255 1290 1469
476 826 1459 2199 2533 2531 2594 2286 2311 1995 1890 2504 2709 1952 1843 1927 1712 1592 1541 1640 1725 1677 1754 1584 1533 1647 1588 1754 1595 1763 1295 1450 104 213 492 861 1231 2138 1646 1433 1132 1179 916
712 1021 1337 2063 2192 2651 2184 1884 2053 1799 1809 2405 2537 2231 2070 2038 1901 1605 1535 1524 1632 1812 1811 1568 1481 1669 1753 1654 1434 1929 1153 969 298 342 512 1017 2146 1978 1616 1535 1228 1417 1279
802 1077 1153 1186 1191 1851 2571 1971 1981 1897 1867 2020 2070 2279 2415 2019 1918 1528 1398 1477 1559 1581 1766 1688 1449 1559 1650 1609 1536 1745 1315 409 51 55 453 735 2314 1460 1167 1344 1641 1416 1216
691 1135 1366 1359 1143 1705 1922 2017 2170 2232 2015 1973 2030 1898 1905 1805 1739 1627 1726 1322 1396 1356 1581 1661 1479 1554 1681 1635 1874 1229 1803 877 227 339 421 792 2267 1827 974 1437 1594 1469 1372
706 1039 1318 1467 1527 1841 1977 1727 2191 2140 2130 2014 1921 2008 2371 1403 1340 1410 1631 1406 1569 1681 1396 1492 1485 1715 2169 2019 2389 1969 1777 839 348 455 471 662 2171 1864 1554 1332 1333 1367 1091
671 765 1188 1461 1471 1711 1756 1471 1757 1581 1660 1833 1819 1642 1614 937 777 1610 1323 759 708 1654 1603 1824 1874 1855 2066 1359 875 540 209 607 507 445 559 1522 2269 1588 1322 2045 1830 1396 1502
675 802 963 1163 1272 1411 1361 1467 1541 1265 1252 1429 1296 974 1034 773 781 854 246 104 233 765 561 690 916 1142 1312 530 221 119 55 780 813 948 1109 1458 2309 1789 737 1854 1297 1453 1606
843 918 870 945 1107 1007 1024 1534 1247 1023 679 755 775 782 1035 767 618 329 109 387 480 732 533 785 659 987 1091 694 108 62 7 453 880 747 879 1648 2037 2333 1491 1716 1548 1599 1686
941 937 848 992 1076 933 958 1024 1055 797 502 433 561 801 1094 1018 723 327 373 512 631 624 606 845 782 1035 934 571 397 75 9 21 266 440 537 1813 1695 2467 2026 1420 457 1083 1710
979 951 965 1049 971 1030 1289 890 943 804 562 497 690 1012 1080 884 774 496 476 721 904 872 792 924 864 542 206 38 220 508 16 30 7 53 524 1041 1609 2076 2534 1941 1558 524 1257
774 816 964 1075 1034 1187 1327 781 948 1076 983 977 884 1100 1113 1114 850 821 936 779 996 967 1128 728 498 244 57 14 1 18 20 24 5 2 6 466 839 1746 2127 2147 2036 1079 716
727 820 873 1086 1290 1309 1111 1455 1482 1430 1034 1055 918 1096 1228 1099 967 1275 1173 1178 949 654 912 702 620 451 201 18 0 12 21 17 15 12 21 116 532 810 1687 2170 2636 2094 1419
904 1023 947 991 1197 1200 1079 1672 1429 1234 905 838 1203 1331 1179 1151 1360 1245 931 947 823 799 699 601 527 252 59 0 0 5 17 13 4 19 5 17 38 463 724 1204 1366 1609 1337
975 1148 1169 1180 971 1087 1118 1422 1162 1127 794 1142 1075 1070 1380 1434 1494 1170 1100 1043 703 1010 891 434 218 16 0 0 0 0 21 27 7 0 0 357 675 756 721 752 614 905 1600
791 1127 1203 1219 892 1023 1198 1170 1065 1097 997 901 1355 848 1302 1325 1215 920 964 1131 1098 1039 665 255 89 0 0 0 0 0 21 27 9 0 0 8 170 314 278 382 732 911 1303
768 1069 1214 1173 905 938 958 947 1138 1152 1177 1104 1391 1065 975 903 820 1076 984 1069 1231 1014 693 347 78 0 0 0 0 0 5 34 20 9 7 9 1 80 23 200 321 423 500
710 872 911 1129 1114 1104 1119 1077 1225 1134 1110 1332 1232 1045 1138 1122 1007 1249 1265 1051 928 954 888 245 110 0 0 5 0 0 0 1 16 8 5 9 0 0 0 0 98 257 551
621 725 754 987 1370 1266 1233 1174 1161 1053 1079 1282 1131 1221 1399 1323 1279 1406 898 923 759 689 535 290 2 0 0 0 69 0 0 0 5 1 4 1 0 0 0 0 0 0 307
484 712 679 672 1539 1503 1424 1312 1221 1217 988 1008 1041 1196 1302 1606 1514 1292 1110 869 875 674 324 54 29 0 44 5 50 0 0 0 0 3 5 1 0 0 0 0 0 0 0
401 696 777 661 825 1551 1575 1497 1476 1384 1163 978 963 1058 1333 1533 1589 1461 1127 1142 1171 677 280 7 0 0 57 78 4 24 7 0 0 0 0 0 0 0 0 0 0 0 0

GFSSE_con_mucape_015.txt.gz
CAPE
44 67 292 418 715 882 1907 2619 2617 2841 2721 2708 2695 2349 2148 2039 1992 1999 2010 1999 1933 1868 1827 1899 1864 1727 1618 1630 1510 1578 1523 1383 1268 938 769 1086 1269 1314 1221 1458 1048 601 1388
6 71 471 697 1328 1825 2301 2426 2467 2383 2431 2484 2444 2211 1908 2003 2181 2186 2013 1993 1897 1882 1825 1798 1836 1726 1640 1633 1420 1512 1425 1328 1429 1089 862 1026 1033 1110 1360 809 759 554 854
33 167 352 1071 1585 2155 2266 2323 2124 1956 2130 2276 2107 2102 1982 2100 2119 2020 2033 1981 1883 1885 1929 1897 1700 1571 1439 1503 1381 1337 1139 1077 1160 1215 882 488 739 1185 1369 858 901 1134 1248
64 347 541 1368 1820 2048 2180 2303 2383 2149 2171 2071 2056 2072 2085 2159 1975 2020 1990 1881 1828 1788 1754 1833 2090 1912 1606 1429 1353 1190 961 1255 1248 1036 430 490 872 1332 1343 1316 1208 1050 1117
159 452 909 1492 2114 1990 1974 2278 2626 2775 2144 2041 2033 2036 2035 1939 1907 1880 1803 1820 1826 1810 1818 1878 1828 1857 1756 1607 1163 1012 1577 1046 642 846 458 555 730 1345 1415 1258 796 1398 1311
265 573 1343 1617 1717 1788 1915 2062 2070 2080 2030 2019 1834 1839 1907 1840 1774 1793 1827 1844 1826 1817 1820 1829 1768 1758 1769 1273 1209 1502 1571 1107 598 319 421 1017 813 1290 1447 1152 1400 1441 1443
465 844 1311 2219 2337 1962 1796 1838 1744 1868 2209 2147 1904 1823 1915 1737 1640 1675 1677 1758 1722 1758 1862 1572 1652 1719 1663 1592 1614 1498 1045 170 188 459 522 727 986 1705 1526 1494 1319 1426 1337
509 1098 1263 1792 2074 2200 1661 1699 1719 1648 1962 2182 1997 1847 1949 1867 1625 1588 1595 1640 1723 1797 1854 1590 1545 1765 1446 1545 1860 1662 1081 145 38 415 467 928 1384 1862 1736 1235 1222 1063 634
614 1112 1199 1275 1405 1833 2158 1732 1700 1651 1874 2079 1994 1917 1906 2029 1763 1542 1427 1568 1566 1646 1696 1658 1486 1464 1550 1825 1487 1638 1364 977 244 355 531 1027 2323 1793 1539 1246 1396 1502 678
837 972 1250 981 909 1372 1526 1701 1659 1698 1779 1997 1902 1905 1939 1936 1900 1653 1618 1280 1431 1336 1541 1621 1487 1543 1450 1325 1523 1614 1328 551 172 274 440 733 2187 1323 1184 1530 1541 1375 982
829 1016 1086 933 877 1524 1604 1416 1978 1863 1857 1897 1830 1797 2177 1622 1504 1544 1748 1428 1896 1747 1379 1499 1477 1634 1530 1460 1505 1440 1891 507 91 378 317 951 1633 1623 1231 1473 1692 1462 1341
684 967 1126 1105 1106 1531 1730 1521 1694 1662 1695 1638 1598 1559 1857 1191 874 1136 1373 1166 924 1681 1644 1749 1664 1727 1480 813 341 190 372 622 203 289 321 933 1504 1862 1505 1405 1535 1404 1315
643 826 1090 1203 1244 1466 1493 1478 1505 1496 1578 1584 1587 1389 1404 723 1138 1447 991 537 175 787 529 675 679 874 1129 455 124 28 366 531 490 315 761 1619 1840 1719 1544 2206 2002 1622 1650
519 651 979 1159 1194 1304 1239 1344 1432 1435 1302 1355 1291 1214 943 760 633 699 153 117 337 406 358 434 571 733 946 677 206 22 186 624 590 755 743 1903 2244 1877 1384 1474 1510 1627 1703
491 572 782 999 985 1107 993 1186 1222 1140 950 777 750 631 604 794 636 476 364 412 437 505 494 544 683 847 923 312 150 50 10 294 535 510 405 1633 1646 1939 1924 1240 1532 1711 1759
603 689 663 753 778 839 774 804 1076 851 664 332 311 556 750 1017 856 384 172 404 597 662 661 740 910 641 173 63 256 351 20 25 199 313 294 431 1664 1771 2185 1585 1275 836 1613
732 770 658 678 683 731 583 619 568 638 591 350 316 823 689 923 884 683 399 654 785 773 867 930 533 226 75 36 15 5 12 15 18 13 72 276 609 1435 1700 1891 1412 890 775
732 796 670 876 710 703 729 801 631 532 741 670 849 771 863 1048 907 754 732 779 814 654 957 662 595 393 157 39 2 1 12 19 15 10 17 21 141 473 941 1281 1693 1601 1193
663 805 752 873 803 732 846 1110 1029 643 874 1236 1188 1015 908 1022 1007 894 1052 955 693 749 809 648 530 391 64 0 0 1 20 7 17 3 13 24 95 445 512 704 1459 1698 1456
564 619 708 827 938 852 835 1053 980 1212 1147 704 665 837 877 999 976 984 962 734 635 741 742 731 408 148 0 0 0 2 12 20 12 0 123 413 548 641 575 690 475 690 1314
530 572 615 713 860 919 887 1032 1024 1291 1062 773 938 1025 1084 1027 1098 1093 920 881 815 686 879 645 223 0 0 0 0 6 13 16 3 0 20 40 296 470 283 498 632 737 856
485 685 701 696 773 833 878 898 919 1022 937 798 733 1101 932 1045 1139 1235 949 809 949 926 905 463 197 25 0 0 0 0 17 12 8 0 1 20 34 32 6 168 472 402 275
377 743 811 801 796 700 685 738 851 784 765 820 768 1008 1054 1077 1178 1056 787 766 865 1063 931 672 210 66 0 0 0 0 0 1 0 2 0 5 7 11 0 32 247 407 188
351 624 815 879 861 712 590 602 746 754 627 741 861 1004 1269 971 888 875 896 998 954 941 757 759 210 28 0 30 34 0 0 0 0 0 0 1 0 0 0 0 0 7 308
355 569 825 899 896 830 547 653 698 674 609 632 906 1074 1096 1051 993 949 939 1166 760 632 840 647 261 0 0 0 20 0 0 0 27 0 0 0 0 0 0 0 0 0 46
414 496 701 784 858 842 671 759 781 782 720 740 758 961 1110 1057 1233 1231 1189 1096 765 620 539 395 153 0 0 0 0 10 0 0 0 0 0 0 0 0 0 0 0 0 1

GFSSE_con_mucape_018.txt.gz
CAPE
30 117 486 575 598 1400 1688 1630 2046 2848 2775 2608 2590 2327 2155 2083 1943 1986 1994 1906 1857 1885 1951 1961 1630 1605 1500 1345 1605 1322 1324 1155 898 773 842 1150 1391 1153 1223 926 1022 1367 1784
6 56 447 630 674 1264 2353 2189 2609 2557 2267 2278 2308 2142 1915 1953 2012 1997 1907 1837 1808 1763 1878 1815 1643 1537 1486 1456 1498 1360 1416 1342 1059 830 1047 1050 1228 1102 955 838 684 1075 1473
6 41 357 667 1158 1851 2462 2520 2231 2004 1926 2100 2101 1921 2020 1929 1967 1933 1871 1867 1883 1975 1782 1653 1674 1594 1517 1389 1137 1159 1119 1078 1090 782 820 715 1048 1353 818 777 965 1029 1349
27 137 293 930 2053 1947 2260 2243 2356 1896 1909 2059 1970 2137 2038 1932 1945 1958 1854 1736 1725 1743 1720 1616 1749 1534 1484 1344 1192 1129 1028 1130 1193 907 786 613 1025 1507 994 1129 1138 1263 1364
146 259 511 1258 2389 2114 1958 2248 2605 2046 1955 1963 1900 2014 1897 1849 1875 1751 1721 1752 1823 1835 1907 1815 1701 1533 1259 1033 1038 963 1556 1333 1510 782 428 714 1247 1326 1401 1023 1229 1238 1278
228 536 1148 1631 1703 2131 2001 2339 2349 1947 1812 1850 1847 1856 1827 1737 1688 1750 1833 1846 1864 1862 1775 1736 1595 1569 1022 859 922 1253 1243 1150 570 505 452 1141 1188 1383 1291 1120 1479 1535 1386
357 835 1085 2120 2165 2129 2028 2192 2034 1833 1881 1777 1780 1845 1741 1652 1636 1666 1683 1765 1792 1872 1700 1538 1590 1435 1343 1450 1154 1421 1254 871 261 662 881 811 1088 1632 1287 1437 1583 1529 1388
481 1049 1179 1952 1825 1994 1791 1952 1899 1933 1984 1889 1777 1860 1810 1606 1567 1514 1566 1684 1836 1875 1649 1432 1513 1202 1273 1840 1703 1588 533 166 136 451 870 1072 1406 1609 1423 1342 1418 1219 1489
665 1080 1241 1357 1311 1653 1838 1717 1596 1693 1995 1975 1859 1802 1919 1806 1520 1493 1472 1618 1499 1625 1638 1351 1364 1326 1459 1519 1798 1554 1252 446 147 467 660 1337 1845 1521 1489 1089 1337 625 1422
807 1026 1162 1268 1220 1397 1361 1610 1590 1611 1826 1930 1890 1830 1843 1921 1690 1458 1470 1369 1658 1377 1337 1461 1298 1205 1260 1344 1279 1791 1340 947 206 248 641 961 2088 1589 1536 1311 1573 1077 866
725 1018 1058 1109 1181 1368 1333 1362 1642 1632 1682 1853 1741 1710 2041 1478 1304 1189 1653 1500 2001 1739 1334 1256 1432 1492 1580 1372 1322 1855 1633 403 70 241 468 833 1614 1431 1153 1414 1240 1383 673
581 849 1042 888 903 1260 1509 1268 1348 1316 1395 1512 1544 1459 1694 1392 920 1051 1463 1271 744 1828 1645 1597 1479 1590 1201 818 244 163 1291 814 167 202 235 767 1347 1198 1343 1579 1620 1586 1480
543 740 905 868 847 1210 1403 1361 1330 1480 1611 1528 1470 1374 1376 1113 611 1323 1045 947 32 433 659 882 684 789 1077 292 58 32 507 391 284 143 190 699 1438 1148 1180 1425 1473 1409 1310
523 668 881 915 935 1168 1256 1306 1309 1401 1431 1466 1407 1304 1041 770 695 755 636 63 151 256 420 355 706 672 711 523 41 28 309 589 237 245 809 1068 1435 1371 1139 950 1736 1701 1573
462 620 881 952 976 1056 1124 1173 1127 1226 1201 1119 1085 1025 871 589 613 463 265 280 328 379 474 652 665 995 795 325 177 25 30 462 611 597 455 1022 1067 1420 1059 1156 1247 1593 1733
364 466 731 898 965 992 897 918 985 1080 985 848 645 600 485 578 789 593 398 218 420 423 508 783 829 546 145 70 180 112 11 37 258 315 297 386 1020 1097 1359 1177 1097 1387 1450
403 359 556 722 868 848 729 687 744 867 743 624 395 187 465 655 723 859 304 271 597 625 732 817 618 272 53 29 28 14 13 19 26 54 96 268 493 858 1089 1147 1250 967 823
511 453 495 602 625 663 537 499 430 563 666 447 287 339 654 667 686 876 616 441 618 723 729 798 570 421 180 91 23 6 4 14 10 19 4 0 74 561 789 1303 1773 974 932
564 567 591 499 479 468 442 399 396 316 300 414 437 607 746 755 759 855 702 660 768 624 688 675 565 383 104 5 0 0 11 1 8 0 15 66 82 547 674 622 1034 1187 819
570 628 629 524 550 423 400 497 556 596 606 434 711 1060 989 961 863 768 556 796 702 562 651 602 587 243 0 0 0 1 6 9 7 4 74 218 637 660 697 875 863 833 956
517 605 631 579 677 584 469 612 693 909 967 556 942 598 697 763 826 877 722 804 566 518 645 679 325 90 0 0 0 0 8 8 0 4 25 102 264 157 267 586 718 1010 1110
378 453 549 634 643 738 594 576 733 828 854 1117 876 660 779 838 862 860 850 845 686 664 633 741 288 87 0 0 0 0 3 11 1 0 0 16 27 13 0 256 471 462 465
285 317 364 507 590 697 709 589 739 819 851 1085 924 711 836 819 903 903 858 933 709 741 814 857 529 148 36 1 0 0 0 9 0 0 0 0 4 0 0 30 286 418 117
282 228 306 399 469 551 700 645 633 708 748 763 889 741 640 856 776 897 1034 987 725 708 864 894 598 280 57 0 0 0 0 0 0 0 0 0 0 0 0 0 1 20 322
428 195 380 456 474 494 573 634 570 599 615 551 576 611 609 776 866 804 840 792 737 919 802 732 597 352 74 0 6 0 0 0 0 0 0 0 0 0 0 0 0 0 51
523 481 308 516 533 548 525 593 606 457 433 474 506 539 623 772 1026 1030 853 870 822 967 574 559 658 269 22 0 0 0 0 0 0 0 0 0 0 0 0 0 0 0 0

GFSSE_con_mucape_021.txt.gz
CAPE
110 313 665 784 877 1139 1183 1667 1696 2110 2337 2686 2407 2194 2113 1922 1778 1821 1826 1875 1977 1981 1880 1670 1781 1407 1176 1415 1245 1279 1084 881 923 915 1157 1317 1061 1074 929 1395 1521 1330 1788
246 266 562 835 1279 1492 1914 1883 1912 2261 2375 2392 2423 2078 1780 1852 1946 1844 1799 1752 1800 1902 1808 1631 1484 1496 1456 1410 1405 1409 1309 1015 769 804 1154 1265 1187 1297 973 806 1043 1564 1717
71 224 493 1149 1740 2014 2248 2083 2349 2045 2011 2136 2138 1949 1818 1913 1937 1894 1953 1966 1916 1741 1660 1697 1604 1518 1305 1284 1342 1150 1177 1128 840 790 885 775 943 804 667 614 985 1349 1449
69 200 314 1440 2392 2392 2472 2635 2438 1821 1914 1969 1964 2003 1876 1964 2017 1840 1768 1706 1744 1785 1613 1658 1522 1394 1340 1246 1047 1008 1034 1263 1208 779 629 869 782 1039 896 1352 1350 1393 1301
93 139 384 1404 2485 2195 2229 2393 2390 2213 1932 1976 1947 1993 1908 1905 1805 1738 1784 1842 1978 1798 1883 1736 1479 1253 1159 1011 947 981 1358 1350 1305 599 816 1201 948 1318 1350 1324 1296 1290 873
156 185 951 1870 1859 2115 2345 2391 1946 1883 1943 1889 1983 1818 1814 1745 1736 1793 1583 1883 1987 1850 1671 1605 1559 1242 985 852 870 771 1433 1555 1294 694 699 1253 1116 1449 803 1328 1163 1350 1377
181 419 1014 1998 2385 2354 2487 2400 1968 1839 1827 1838 1816 1762 1725 1713 1763 1810 1827 1744 1940 1801 1529 1504 1384 1321 1522 1348 1342 1326 1145 824 1120 1032 853 1103 1106 1581 1230 1448 1550 1502 1494
351 602 1105 1832 2306 2385 2299 2011 1839 1795 1773 1762 1802 1769 1663 1652 1622 1637 1717 1805 1840 1660 1413 1443 1211 1149 1581 1545 1548 1349 334 330 802 1137 853 1366 1499 1466 1544 1515 1488 1678 1533
542 754 1094 921 1659 1778 2304 1939 1877 1853 1841 1780 1740 1885 1846 1640 1549 1481 1593 1495 1514 1561 1352 1287 1265 1168 1277 1573 1644 1509 713 239 1033 1217 778 1341 1489 1445 1513 1394 929 1222 1428
601 725 1199 794 978 1264 1596 1631 1585 1753 1885 1843 1803 1772 1815 1843 1535 1460 1386 1462 1593 1355 1217 1195 1115 1142 1095 1238 1397 1521 1304 1120 711 1209 1072 1253 1777 1599 1410 1293 1200 870 1014
578 787 988 886 1094 1540 1360 1424 1509 1515 1691 1816 1686 1753 1675 1885 1934 1776 1788 1634 1683 1461 1183 1228 1260 1274 1307 1517 1372 1408 1640 932 258 940 883 942 1668 1488 1385 1304 1579 1029 817
403 600 768 997 967 1281 1036 1481 1596 1370 1202 1414 1386 1640 1620 1623 1774 1620 1605 1270 789 1641 1505 1321 1380 1343 1109 356 192 307 78 1183 475 589 769 825 1025 1158 1279 1539 1330 1449 836
360 528 673 993 1246 1166 1057 1275 1489 1350 1436 1601 2019 1835 1562 1797 1536 1876 1806 1652 832 688 1121 1322 1251 1125 1625 633 232 68 341 1000 479 243 341 707 1176 921 901 1271 1516 979 1353
410 496 582 841 1151 1244 1183 1165 1088 1313 1422 1459 1526 2046 1734 1560 1596 1697 1407 757 873 814 1418 1323 1316 1470 1182 1179 156 114 384 24 126 286 745 882 1219 1120 926 923 1453 1384 1271
506 551 629 854 1134 1257 1440 1015 1035 1468 1336 1284 1596 1601 1469 1360 1712 1524 1141 1053 1194 1300 1372 1475 1571 1910 1066 391 676 108 189 276 557 275 550 859 956 919 718 1060 1059 1562 1451
637 706 698 856 1057 1207 1324 1336 1176 1316 1349 1369 1110 1081 1518 1188 1332 1398 1597 937 1400 1473 1417 1470 1622 1019 313 547 688 492 87 59 463 422 192 555 872 829 822 1184 908 1386 1568
850 853 915 988 1025 1192 1225 1389 1134 945 1125 963 937 1183 1228 1383 1673 1854 1759 1085 1162 1733 1908 1868 1090 1054 68 20 17 102 117 124 41 229 275 309 517 731 818 879 1085 1191 1183
937 922 958 898 1024 1236 1260 1312 965 934 973 861 846 857 1044 1390 1772 1891 1737 1281 1318 1801 2076 1970 1876 1543 403 30 39 83 168 120 94 77 147 201 490 379 664 991 875 1028 751
997 925 900 978 1004 1141 1286 1154 954 948 885 884 873 811 1023 1377 1570 1809 1825 1621 1778 1565 1901 1961 1258 1017 201 25 16 52 95 122 60 40 274 374 568 669 714 721 1152 946 739
1033 1112 1051 957 1058 1220 1118 1151 849 807 672 649 835 1022 1471 1558 1695 2021 1803 1807 1769 1605 1482 1290 1240 384 43 104 0 40 43 39 36 289 341 452 937 930 947 1001 873 845 880
1006 1143 1203 1095 1356 1157 1026 791 750 697 662 1022 1148 1425 1828 1932 2090 2134 1805 1814 1717 1554 1572 1482 868 408 41 141 61 121 152 22 17 123 278 145 103 184 506 858 919 1148 958
1002 1154 1394 1467 1741 1481 1096 1203 942 1063 914 1481 1418 1612 1735 1866 2092 2117 2086 1944 1750 1470 1635 1421 922 209 53 82 42 50 13 26 0 0 70 70 145 0 0 304 984 1144 830
963 1358 1772 2030 2060 1740 1628 1228 1211 1414 1631 1629 1565 1781 1776 1966 2176 2230 2183 2022 2008 1760 1588 1552 1005 575 124 105 60 33 0 1 34 0 1 5 33 3 3 93 211 571 474
1268 1183 1790 1881 2135 1780 2124 1678 1882 1280 1281 1364 1608 1716 1778 2000 2131 2210 2248 2123 2146 1807 1794 1655 1073 676 179 43 104 41 127 218 1 4 0 0 0 0 24 1 5 38 249
923 984 1185 1806 2021 2139 2223 2191 1816 1883 1328 1361 1410 2132 2379 2146 2096 2027 2222 2213 2198 1939 1903 1758 1073 628 383 64 64 64 27 59 107 37 8 0 0 0 0 13 1 14 49
807 745 1081 1711 1884 2040 2089 2161 2348 2318 2046 1513 1548 1487 1560 1602 1680 2027 2075 2307 2307 2054 2044 1793 1255 859 378 118 169 170 18 0 0 76 96 14 0 0 0 0 7 10 26

GFSSE_con_mucape_024.txt.gz
CAPE
5 62 264 846 810 1048 811 1245 1881 2243 2471 2208 1933 1949 2051 1810 1887 1842 1872 1855 1678 1811 1828 1746 1538 1226 1515 1311 1361 1209 953 962 977 1142 1401 1034 927 1165 1430 1319 1612 1348 1972
174 439 965 937 1137 1124 1189 1348 1926 2163 2168 2005 2137 1973 1771 2015 1974 1784 1727 1789 1574 1642 1698 1570 1549 1545 1500 1448 1497 1436 1175 917 773 985 1275 1204 1354 1122 899 1175 1898 1839 1964
292 214 933 1807 1726 1357 1562 1886 2087 2057 1977 2037 1815 1790 1918 2014 1956 2010 1858 1865 1855 1809 1796 1737 1635 1438 1354 1451 1271 1236 1241 991 1054 1001 920 725 402 718 548 1326 1624 1732 1789
419 455 744 1360 1976 1794 1970 2109 2154 1904 1976 1948 1939 1903 2027 1912 1868 1789 1626 1666 1888 1764 1762 1689 1432 1421 1288 1181 1028 1086 1157 1318 887 786 1137 434 453 771 1101 931 1477 1303 1632
387 510 1046 1782 2406 2144 2096 2317 2359 1985 1949 1983 1976 1922 2047 1861 1767 1718 1827 1741 1793 1967 1781 1558 1416 1140 1025 991 907 1200 1238 1386 877 788 960 1325 915 1195 1059 1427 1440 1552 967
480 559 1310 2038 2015 2312 2284 2127 1943 1926 1969 1986 1939 1904 1940 1755 1820 1539 1849 1222 1613 1699 1666 1562 1290 1342 972 928 868 1253 1461 1607 1247 373 797 845 1301 1352 1295 1093 1400 1296 989
460 671 1208 2480 2465 2463 2256 2091 2011 1944 1922 1974 1857 1823 1772 1782 1770 1638 1798 1802 1825 1567 1471 1344 1349 1536 1277 1408 1428 1108 1421 1143 1064 658 706 1463 1533 1202 1318 1322 1481 1382 1459
544 616 968 2237 2413 2615 2396 1956 1877 1831 1871 1884 1818 1756 1729 1692 1653 1743 1830 1853 1700 1399 1359 1292 1218 1419 1425 1453 1545 505 1069 586 1341 837 832 1191 1425 1414 1517 1559 1517 1535 1427
464 427 704 1112 1565 1786 2597 1788 1791 1830 1811 1867 1873 1786 1620 1575 1551 1465 1598 1527 1533 1348 1256 1242 1209 1249 1388 1442 1530 719 689 246 1586 1408 612 1088 1304 1432 1786 1529 1433 1588 1578
508 423 513 806 884 1556 1646 1844 1899 1876 1857 1821 1765 1767 1674 1504 1378 1448 1258 1691 1332 1266 1232 1220 1127 1098 1026 1301 1297 1426 1108 725 1154 1578 730 1397 1556 1392 1333 1523 708 1615 1213
606 512 391 485 819 1140 1176 1459 1653 1793 1839 1763 1715 1692 1553 1608 1784 1797 1649 1633 1284 1190 1124 1221 1015 1141 1269 1562 1365 1321 1689 653 588 846 982 1525 1716 1489 1395 1542 1212 1114 576
630 571 387 342 609 840 636 1125 1089 795 765 933 814 1275 1599 1569 1875 1680 1661 1323 992 1375 1311 1367 1249 1308 1486 166 177 917 67 493 590 507 556 1090 931 1163 1271 1264 1510 1116 715
649 504 503 481 670 718 614 898 899 875 884 1312 1517 1299 1445 1774 1764 1534 1559 1661 944 1157 1536 1149 1133 863 1541 634 152 64 71 128 178 107 540 981 822 936 804 1436 1241 1257 990
598 596 625 722 792 697 680 726 690 620 703 858 1002 1464 1603 1775 1649 1655 1217 1194 1193 1028 1368 1091 1236 887 1033 1375 239 93 79 43 69 50 658 828 1077 857 799 912 1602 971 1203
492 554 580 787 1042 927 956 564 375 585 623 679 1059 1156 1239 1598 1933 1734 1559 1344 1535 1154 1190 1665 1011 806 1347 1089 927 53 46 53 51 52 381 834 832 590 686 998 1288 1535 1318
502 588 656 852 1075 1103 1131 1073 864 943 844 973 756 575 1387 1663 1748 1588 1664 1367 1441 1438 1658 1003 969 1607 506 634 493 57 49 66 46 40 86 480 799 688 618 1303 916 1641 1435
635 672 741 990 1139 1355 1432 1547 1370 927 931 808 512 730 1180 1630 2122 2381 1797 1494 1202 2237 1261 1138 1085 1221 431 117 249 61 67 41 47 55 69 231 493 735 682 952 1025 1182 1225
860 1095 1104 954 1068 1356 1391 1542 1234 864 814 531 289 439 1154 1689 2306 2456 1912 1388 1508 1577 1168 1018 921 898 620 221 51 56 57 55 45 41 48 87 198 488 615 668 815 1065 1060
1305 1428 1550 1495 1313 1513 1695 1592 1477 1034 891 475 363 402 1278 1684 2047 2364 2159 1568 1992 1869 1284 1005 1132 1062 343 90 21 45 47 44 24 67 92 53 115 296 468 562 576 610 771
1312 1557 1649 1619 1695 1791 1674 1793 1328 835 771 611 576 600 1069 1675 1977 2490 2081 1477 1448 1716 1404 1563 1211 837 216 0 5 27 54 40 27 52 59 59 183 237 394 625 904 615 666
1213 1563 1645 1651 1893 1901 1626 1448 1055 674 705 625 587 1027 1679 2125 2431 2785 2254 1588 1475 1594 1428 1348 1336 988 168 15 35 32 82 28 15 39 44 29 5 14 96 256 662 1212 795
1225 1549 1873 1807 2099 2229 1739 1697 981 753 556 688 804 1310 1920 2290 2743 2799 2937 2189 1693 1672 1677 1630 1479 561 198 17 54 35 54 40 28 29 21 12 4 3 2 8 328 565 464
1174 1573 1828 2150 2084 2112 2058 1380 1117 936 900 919 1145 1585 1957 2406 2553 2851 2439 2399 2127 1935 2845 2076 1675 1140 301 38 106 94 29 39 42 14 16 13 14 18 8 2 3 100 20
1152 1471 1853 2147 2352 2247 2403 1982 2443 1285 1253 1193 1655 1290 1631 2372 2335 2411 2666 2484 2721 1967 1961 2345 1725 1442 1396 99 30 0 206 394 34 48 31 24 5 9 4 11 7 0 3
1101 1349 1722 2381 3056 3062 2482 2717 1946 2139 1498 1429 1333 2434 3056 2710 2546 2214 2556 2526 2654 2775 2274 2390 2106 2042 1247 431 0 83 125 60 95 39 117 47 29 8 5 0 14 21 19
1076 1425 1672 2841 3852 3312 2894 2448 3445 3447 2610 1764 2079 1585 1696 1855 2047 2412 2379 2251 2356 2571 2582 2597 2454 2036 1698 812 16 66 28 0 0 6 8 22 29 39 24 22 18 20 37

GFSSE_con_mucape_027.txt.gz
CAPE
1 53 247 763 886 924 1374 1446 2064 2059 2012 2004 1773 2167 1862 1840 1795 1812 1502 1679 1763 1924 1919 1661 1332 1642 1357 1453 1369 1004 909 930 1139 1515 991 837 1193 1439 1400 1462 1710 1356 2117
17 45 356 912 923 885 1228 1816 2212 2160 1985 1859 2178 1809 2012 1978 1682 1786 1711 1675 1541 1739 1679 1614 1551 1526 1465 1626 1549 1293 1083 818 955 1283 1307 1504 1252 863 1275 1557 2154 1983 1947
1 88 892 1345 1134 1218 1466 2055 2159 1959 1894 2087 1847 1887 2030 1990 1624 1713 1752 1867 1856 1806 1734 1595 1512 1362 1464 1392 1224 1278 986 1199 1074 1064 1108 602 428 527 1335 1680 1939 1930 1764
0 270 499 1783 1739 1543 1905 2087 2015 1809 1897 1887 1912 2077 1867 1942 1767 1617 1681 1873 1771 1736 1665 1408 1361 1318 1246 1160 1142 1096 1443 995 850 776 1011 710 165 952 848 1485 1569 1776 1777
350 463 863 1566 1805 1861 2042 2019 1920 1722 1930 1990 1879 1768 1766 1805 1701 1803 1387 1724 1929 1748 1585 1390 1215 1089 1006 965 934 1231 1204 1301 754 1237 469 1320 905 1134 1360 1366 1404 1156 1452
360 370 1176 1711 1929 2096 2030 1853 1770 1791 1933 1970 1959 1852 1828 1799 1650 1802 1423 1590 1634 1606 1518 1277 1363 1188 1073 991 1108 1253 1256 1584 1115 807 1143 1412 964 1232 1059 1201 1403 965 894
398 559 1192 2394 2494 2157 1854 1807 1821 1874 1960 1759 1818 1755 1862 1777 1666 1722 1946 1833 1522 1461 1389 1425 1579 1497 1583 1510 1230 1312 1431 1415 833 687 1311 1104 752 1584 1479 1559 1477 1566 1376
403 277 1136 1919 2444 2371 1828 1780 1885 1821 1840 1709 1730 1752 1790 1751 1812 1837 1857 1775 1448 1425 1397 1347 1442 1398 1350 1634 688 1144 1078 1065 1087 542 1303 1632 1787 1637 1575 1613 1677 1591 1492
407 312 616 940 1635 2139 2148 1844 1773 1692 1712 1650 1657 1631 1620 1601 1518 1559 1574 1578 1455 1343 1316 1283 1275 1344 1377 1419 1188 784 972 480 1640 616 970 1178 1822 1660 1599 1770 1751 1673 1442
495 250 325 640 866 1570 1359 1624 1638 1626 1651 1681 1699 1565 1496 1495 1548 1320 1632 1478 1347 1274 1295 1140 1107 1148 1312 1388 1467 1274 881 933 1479 1313 1470 1265 1806 1510 1572 791 1731 1449 1687
416 212 282 420 822 1444 855 1489 1664 1614 1626 1640 1562 1492 1508 1526 1864 1587 1651 1376 1149 1292 1163 1001 1021 1073 1331 1398 1828 1746 1690 1427 905 1138 989 2133 1733 1325 1427 1293 1185 913 1376
527 229 279 346 525 764 424 1126 1074 844 708 1024 1116 969 1409 1918 2161 1605 1692 1462 1411 1169 1271 1072 1113 784 1614 600 646 1856 1048 349 679 547 625 1660 1378 1495 1248 1485 1279 940 487
639 315 277 413 704 482 1289 607 595 516 688 917 1033 1413 2262 1737 1560 785 1342 860 900 1425 1187 1102 844 1106 437 613 67 119 62 219 74 565 909 1387 750 830 1348 1316 1455 1125 749
608 406 245 411 828 527 612 495 373 394 487 649 837 1355 1763 1597 1490 1627 1957 1588 1375 1609 1398 1281 1463 1217 839 697 467 38 52 54 74 792 862 1416 1048 812 731 1344 1181 1206 1272
557 431 357 520 1416 1631 1064 530 428 408 304 425 939 1084 1315 1961 1726 1906 1529 2080 1889 1554 1164 899 1582 1149 1046 828 815 37 46 9 37 457 407 1482 995 577 848 963 1522 1096 1228
650 564 509 792 1175 1121 1484 1621 671 459 539 488 557 756 1392 1837 1851 2450 1919 1904 1926 1893 1560 1216 1023 1632 646 730 159 39 50 46 2 113 289 601 1420 736 576 1185 1260 1662 1403
632 702 706 826 1064 1197 1282 1261 946 634 575 614 528 686 1233 1769 2085 2440 2370 1869 1990 1927 1760 1537 1348 531 585 38 20 32 206 37 39 13 284 321 504 1091 829 1237 1041 1602 1494
703 912 890 692 909 1110 1499 1575 1150 754 655 602 391 483 973 1672 2037 2467 1939 1436 1700 1417 1172 1534 1754 284 478 85 36 48 39 42 28 23 24 151 434 262 823 1015 981 1251 1162
880 1171 1092 1091 1104 1445 2356 1638 1486 1858 864 551 292 183 1475 1736 2105 2369 1664 2535 2030 1730 968 962 910 702 121 26 35 39 45 35 162 34 12 53 76 416 247 1016 1152 949 1055
957 1264 1683 1368 2582 2969 2088 2621 1409 1047 878 542 352 222 2340 1863 2074 2405 2249 1798 1803 1235 1644 1215 1581 406 124 0 21 57 52 27 40 52 35 49 20 98 390 601 484 641 813
1170 1649 2330 2533 3426 2527 1956 1637 1429 998 961 500 559 898 1225 1547 2115 2602 1973 2048 1727 2340 1589 1255 1176 758 45 22 26 40 28 21 35 33 39 14 0 20 34 297 986 636 596
1096 1997 3020 3169 3718 3232 2273 2411 1664 1663 582 550 541 1689 1412 1883 2383 2743 2586 1897 1851 1828 1677 1660 1409 1501 39 0 271 69 87 19 16 27 18 7 7 6 2 15 303 928 801
1199 2134 2952 3508 3665 3356 3240 2642 2471 1805 1540 803 908 827 1549 1978 2260 2851 2184 2086 2027 2308 2581 2067 1522 1237 793 0 184 182 101 590 36 16 0 18 1 8 6 1 16 32 143
1306 1482 2961 3540 3698 3485 3698 2328 2516 1208 826 654 953 934 1509 2475 2165 2350 2449 1932 2914 1956 2955 2365 1578 1849 1404 240 0 19 259 584 797 380 144 16 1 7 5 34 19 11 0
983 1174 2111 3702 3812 3571 3536 3381 2177 1998 782 825 890 2418 2331 3488 2655 2062 3083 2924 2905 2255 3027 2147 2113 2113 1428 1070 0 0 20 0 0 306 56 381 11 10 13 0 38 44 19
759 984 1939 3641 4070 4014 3917 3502 3968 2677 2034 1250 1554 1524 1418 1400 2350 3229 2600 3602 3204 3225 2669 2549 2789 2317 2190 1315 267 92 90 74 84 65 32 381 50 206 13 15 6 1 27

GFSSE_con_mucape_030.txt.gz
CAPE
43 120 821 895 1426 2021 2072 2428 2402 2498 2476 2424 2544 2309 2412 2598 2361 2274 2193 2230 2433 2054 1924 1518 1687 1452 1539 1503 1187 956 800 1099 1468 1002 795 1222 1470 1542 1575 1416 1844 1681 2483
20 141 581 956 1291 1858 2241 2611 2520 2465 2465 2605 2337 2335 2341 2301 2373 2259 2298 1833 2299 2074 1583 1595 1585 1493 1571 1502 1415 1154 973 863 1283 1178 1492 1156 882 1510 1457 1868 1731 2192 2254
3 68 676 1392 1458 1642 2334 2642 2417 2443 2510 2303 1983 2250 1948 1885 1758 2114 2219 2223 2162 1831 1654 1629 1467 1511 1395 1188 1225 1073 1093 1121 1079 1008 1043 693 387 1472 1274 1910 2115 1989 1809
0 2 347 1627 1838 1901 1996 2538 2362 1958 1838 2113 1729 2073 2137 2221 2255 2099 1933 1746 1702 1655 1510 1369 1350 1267 1206 1191 1190 1201 1217 862 920 911 908 1028 56 960 1543 1663 1782 1827 1904
0 27 870 1895 2127 2080 2343 2406 2345 2257 2170 1887 1775 1933 1666 1746 2066 1705 1766 1893 1669 1553 1381 1316 1140 1063 987 951 1144 984 1204 998 816 1074 953 1106 525 1240 1483 1329 1326 1412 1751
60 298 1434 1617 1760 2012 2368 2241 2170 2115 1896 1986 1851 2001 1808 1704 1705 1453 1553 1528 1539 1435 1318 1451 1334 1191 1087 1077 1243 1101 1102 1312 1179 650 1258 1258 991 1193 1395 1326 1146 935 1212
267 641 620 2291 2275 2393 2238 2235 2156 1861 1853 1957 2272 1882 1779 1673 1773 1947 1719 1462 1496 1474 1503 1596 1537 1513 1470 1324 1216 1090 1314 1461 1344 1125 928 998 1568 2090 1589 1503 1497 1388 1067
465 361 917 2044 2313 2327 2059 2178 2085 1873 1624 1793 1820 1817 1892 1913 1927 1953 1740 1455 1452 1435 1404 1416 1313 1210 1462 910 1229 1170 1208 1235 1448 1461 1086 1253 2116 1995 1652 1691 1579 1551 1593
251 440 1134 1478 1788 1981 2217 2192 1831 1745 1614 1648 1588 1608 1601 1580 1596 1637 1888 1732 1401 1353 1266 1227 1231 1175 1069 1277 796 1225 1000 804 1461 1523 1171 1548 2302 1692 1826 1769 1716 1403 1354
46 386 943 1126 860 1296 1393 1765 1635 1602 1507 1482 1512 1442 1464 1398 1275 1248 2091 2007 1393 1298 1127 1063 1026 1023 1180 1357 1231 1037 1039 1185 749 1477 952 1462 2275 1895 1121 1760 1521 1658 1551
212 213 361 429 1380 1742 1463 1430 1559 1469 1454 1491 1415 1249 1086 2171 1184 1584 1827 1714 1326 1223 987 863 873 994 1349 1703 2280 1902 1425 1094 407 675 868 2043 2123 1556 1261 1193 1177 1510 1698
157 116 237 476 920 1050 370 1595 1797 1183 1096 1339 1015 165 289 1280 1605 1795 1416 2129 1381 1045 1129 1018 1209 1558 803 704 915 2449 1656 1245 889 441 1086 2185 2005 1398 1406 1310 1169 552 1536
152 132 300 680 1178 763 964 1224 1269 1056 1122 1139 834 208 199 1113 1339 1232 1579 1277 1652 569 938 852 1091 1457 1160 1044 749 649 795 817 520 332 1047 1834 1996 1693 1280 1401 1331 840 492
328 302 245 741 1328 948 1014 537 868 786 755 1331 1553 1735 1552 860 843 2026 1502 2019 1014 1267 1156 1403 1423 1654 1550 1595 431 996 32 162 348 335 1108 1692 1650 1259 1442 1477 1552 1310 917
693 348 501 836 1496 2342 1889 679 633 1169 850 1228 1808 2041 961 559 2279 2688 2803 891 762 533 376 894 1766 1824 1659 197 899 630 41 79 388 263 577 1896 1716 1583 1130 1462 1386 1412 1434
921 372 810 1119 1572 2565 2321 3128 2034 2061 1023 1189 1123 1535 2415 1964 2399 2943 2788 1187 1829 873 687 1061 630 274 447 537 1313 314 45 23 145 643 339 1202 1583 1382 1592 1359 1699 1389 1412
556 791 926 1138 1248 2140 2372 2407 2169 1909 609 980 1315 2296 1931 2650 3154 1966 2393 1945 2149 2561 2628 2277 1107 465 86 273 178 360 44 208 25 66 143 190 947 1396 1280 1837 1887 2149 1499
662 966 1083 676 1052 1429 1796 2351 1947 1237 1252 1506 1588 1657 2062 2268 2755 3439 1787 1294 626 2179 1972 1829 1892 885 660 372 272 121 166 48 20 82 226 435 283 287 1302 1901 1601 1952 1393
1000 1495 1564 1295 1320 1330 2242 1999 1616 1751 2080 1766 1834 1494 2186 2726 2805 3152 2729 2271 2337 815 2021 1828 1919 1996 467 208 190 68 342 73 34 32 66 414 435 213 309 1746 1682 1647 1158
1231 1608 1768 1380 1795 1729 1894 2271 1648 1610 1665 1702 1829 1682 2151 2639 2962 3497 2675 2610 2088 991 2398 2462 2436 1355 871 141 31 202 166 84 264 137 89 154 783 445 236 496 1112 924 1322
1376 1642 1648 2064 2921 2106 2065 1848 1851 1245 1628 1525 1929 2589 2832 2760 3213 3793 2812 1001 2360 1894 2456 2025 1918 1587 501 264 346 403 294 36 93 145 30 10 48 156 214 514 722 358 771
1298 1843 1904 2155 2920 2597 2211 2144 1803 1933 1637 1385 1536 2606 2480 2444 3022 3200 2882 2237 2397 2357 2597 2673 2448 1720 526 105 960 157 197 181 44 46 64 0 39 20 27 808 634 778 688
1435 2027 2399 2510 3208 2596 2648 2774 2801 2937 2882 1444 1487 2124 2098 2676 2789 3025 2840 3208 2281 2651 2306 2780 2633 2340 1493 321 1102 1233 207 147 365 117 23 13 3 12 0 82 371 793 862
1374 2054 2719 2919 3166 2831 3112 2531 2601 1677 1251 1433 1429 1520 1661 2189 2954 3162 3166 3207 3432 2800 2378 2413 3068 2575 2175 883 191 187 1036 971 552 136 253 97 104 2 93 44 27 22 136
1261 2051 2739 3034 3185 3190 2584 3257 2409 1942 1633 1236 1542 2446 2204 2525 2705 2778 2967 3338 3627 3036 2630 2485 2959 2931 2972 1602 537 431 702 783 790 597 526 386 147 145 108 89 38 22 115
1349 1835 2528 3090 3048 3173 3077 2580 3223 2204 1958 1344 1391 1592 2249 2579 2634 3095 3441 3086 3489 2751 3152 2923 3079 3487 2932 2802 1775 1617 581 423 574 580 389 300 169 301 146 47 10 80 108

GFSSE_con_mucape_033.txt.gz
CAPE
10 213 1464 1368 1668 2027 2000 2074 2450 2133 2402 2482 2606 2808 2357 1871 1866 2244 2601 2119 1889 2116 1750 1508 1543 1699 1611 1298 1031 748 1153 1387 931 836 1387 1614 1724 1781 1968 1833 2016 1767 2131
8 335 1493 1523 1615 1803 2572 2546 2335 2119 2386 2437 2584 2637 2326 1914 1857 1920 2294 1989 1874 2010 1712 1591 1607 1554 1405 1432 1210 1192 951 1316 1353 1456 736 1324 1673 1582 2300 1775 1928 1889 2219
0 429 970 1721 2017 1783 2692 2456 2119 2147 1963 2483 2560 2358 2056 1723 2154 2424 2050 1878 1904 1770 1650 1678 1631 1443 1256 1252 1224 1093 1189 1127 1130 1431 911 851 1213 1364 1735 1910 2084 1945 1939
13 347 766 1818 2111 1813 2374 2481 2496 1761 1691 2266 2365 2570 2261 2009 2403 2037 1809 1781 1713 1636 1525 1506 1406 1346 1294 1242 1152 1382 982 1096 907 705 594 166 873 1555 1707 1753 1791 1928 1802
0 324 808 2100 2143 1899 2201 2307 2315 2415 1860 2098 2399 1962 1942 2410 2120 1822 1975 1684 1608 1516 1578 1311 1225 1150 1110 1085 1156 1093 818 877 958 707 410 220 865 1430 1216 1629 1475 1594 1715
0 430 1735 1972 1727 1984 2266 2097 2050 1854 2217 2138 2492 1998 1894 1708 1630 1707 1614 1684 1529 1482 1593 1437 1290 1207 1103 1238 1216 1266 1171 1067 1161 955 729 1186 998 1573 1520 1536 1457 1536 1884
129 820 1247 2386 2147 2318 2113 1947 2158 2021 2064 2374 2642 1788 1798 1981 1986 1725 1590 1661 1643 1710 1726 1624 1591 1483 1307 1316 1266 1244 1327 1299 536 634 1065 1251 1620 2049 1483 1267 1308 1298 1818
421 686 1395 2077 2189 2443 1804 1776 2019 1667 1839 2558 2562 2081 1942 1996 2554 2275 1606 1626 1583 1553 1531 1483 1325 1452 1211 1094 1188 1189 1280 1846 816 976 1082 1328 2237 2160 1718 1632 1509 1441 1680
261 755 1378 1644 1625 1774 2343 1755 1772 1648 1758 1890 1827 1804 1867 1764 1758 1917 2197 1999 1473 1425 1413 1391 1372 1502 1365 1173 844 1132 1213 1787 899 957 1230 1670 2259 1928 1828 1841 1459 1617 1754
616 969 1408 1477 1272 1423 1570 1706 1605 1523 1636 1645 1601 1543 1451 1301 1389 1580 2082 2065 1464 1315 1217 1168 1256 1161 1321 1372 1251 1034 1283 1503 1099 987 1141 1547 2347 1719 1793 1728 1583 1479 1579
489 720 1001 1020 1070 1136 1285 1279 1443 1476 1504 1599 1483 1469 916 916 1176 1092 1699 2003 1439 1310 1277 1016 1171 1605 1278 1216 1708 1494 1263 396 714 602 1077 2134 2359 1098 1687 1403 1711 1715 1697
299 482 548 575 806 832 911 1047 1028 1095 1139 1139 1052 4 361 777 603 1201 1418 2103 1622 1449 1369 1162 1674 1717 2008 440 342 1726 1156 617 500 570 1080 2270 2271 1521 1321 1131 1023 1783 1784
78 138 238 571 858 509 754 790 933 844 873 828 353 25 231 662 799 1150 977 1333 1071 314 406 459 688 914 834 717 269 606 1319 940 429 372 1382 2235 2221 1580 1584 1442 715 801 1550
38 41 143 400 684 336 326 597 811 631 587 860 597 365 295 488 874 1074 718 903 830 441 712 883 1073 985 610 455 143 28 894 424 170 372 1512 2005 2375 1816 1585 1618 1361 778 631
20 0 70 252 589 491 200 258 562 508 425 803 566 750 570 403 773 788 1211 825 697 634 267 554 845 366 637 249 69 24 391 264 181 253 884 1737 1945 1976 1769 1488 1603 1431 1247
36 0 68 245 641 405 174 0 67 595 247 824 819 850 852 852 1161 1102 902 551 571 492 506 516 395 1 215 195 153 35 132 180 131 163 719 1288 1874 1956 1791 1783 1427 1420 1375
93 51 88 69 513 529 698 1141 827 727 160 676 915 1073 1188 816 1388 973 649 883 836 1206 860 931 504 361 118 156 226 55 30 116 108 75 296 802 1166 1409 2104 1964 2178 1841 1579
147 146 130 155 592 756 740 882 973 303 559 493 719 764 1130 1291 1450 1134 1208 867 973 1062 1442 1081 688 604 302 272 46 61 33 23 165 68 136 181 371 424 1661 2011 1946 2209 1479
263 237 278 227 422 1030 718 976 709 746 640 817 930 685 808 1193 1503 1720 1141 865 1142 649 874 929 904 1120 316 235 64 51 35 32 36 57 131 140 187 344 931 1953 1682 1757 1365
246 158 247 286 183 774 698 1046 496 383 842 899 792 494 848 1243 1528 1692 1415 1059 784 499 1038 1167 480 31 0 1 17 20 19 23 17 36 188 113 126 209 495 1000 1027 1171 1226
468 224 424 520 423 403 903 1016 712 452 760 789 457 781 1014 1429 1663 1977 1649 1210 1215 716 1221 822 385 399 0 0 17 8 0 9 25 21 70 114 103 72 130 381 302 473 613
536 540 378 836 648 408 854 457 1013 1024 741 701 327 1245 1338 1624 1885 1857 1311 1147 1234 1133 1162 857 970 525 59 0 101 27 4 0 9 1 4 23 29 31 122 144 190 187 511
648 480 735 637 924 578 949 857 940 1085 922 818 473 1022 1592 1576 1892 1545 1546 1382 1492 1315 1373 1171 1263 799 58 4 13 88 5 0 12 12 9 0 13 15 194 541 291 172 174
743 605 707 810 1651 1047 1256 1188 967 717 991 971 446 478 1392 1218 1655 1636 1592 1206 1508 1089 791 1158 1270 839 538 0 0 22 54 91 0 0 0 0 0 0 34 156 171 177 56
800 834 664 964 1702 1361 1379 1323 1348 1146 1150 819 594 599 914 1219 1754 2020 1744 1527 1506 1741 1307 993 1139 1323 1281 451 0 0 0 7 22 39 1 3 0 0 0 0 0 141 2
767 1151 1211 1121 1795 1428 1473 1609 1479 1381 953 953 690 507 1110 1073 1262 1716 2094 1777 1754 1583 1346 987 1314 1550 957 1478 329 187 0 0 0 0 1 4 0 0 0 0 0 0 0

GFSSE_con_mucape_036.txt.gz
CAPE
83 372 1278 1722 1856 1712 1756 1690 2213 2039 2220 2571 2401 2234 2093 2083 2215 2454 2420 1931 1706 1834 1581 1697 1824 1662 1325 992 924 1470 1175 951 1549 1724 1871 1978 1865 2030 2166 2266 2091 1595 2114
128 442 1394 1973 2008 1702 2028 1972 2027 2147 2261 2125 2361 2139 1932 1907 1913 2140 2191 1837 1771 1738 1638 1765 1738 1609 1512 1402 1090 1328 1500 1634 1661 1121 1788 1897 1950 1826 1968 2075 1815 1862 2094
307 729 1266 1981 2083 1973 2130 2091 1969 2003 1956 2107 2131 2057 2090 2101 2138 2133 2063 1959 1727 1773 1814 1738 1537 1381 1490 1167 1353 1281 1382 1523 1724 1032 1740 1020 1177 1599 1736 2140 1944 1936 1889
479 790 1147 1965 2333 2225 2186 2172 2117 1619 1783 2226 2121 2079 2080 1950 1914 1871 2012 1768 1798 1789 1684 1649 1563 1544 1445 1319 1240 1219 1220 1009 1082 844 743 810 806 1862 1932 1875 1907 1863 1875
408 720 1082 2120 2409 2311 2133 1984 2108 1751 1866 1878 2046 1987 1897 1954 2004 1952 1775 1687 1694 1566 1446 1401 1309 1281 1276 1203 1131 993 1154 1231 1267 874 252 777 991 1469 1713 1905 1780 1782 1790
335 793 1760 1958 1862 2076 1811 2078 1913 1866 1989 1856 1969 1874 1759 1800 1937 1728 1788 1687 1636 1708 1554 1414 1309 1168 1202 1223 1173 1208 1266 1404 1031 495 853 1263 1327 1790 1841 1693 1562 1719 1580
301 1042 1392 2291 2455 2122 1769 1891 1863 1941 2015 2010 2112 2060 2142 1916 1804 1827 1828 1803 1888 1846 1739 1659 1575 1424 1369 1239 1172 1432 1354 1405 543 775 960 1344 1534 1994 1420 1092 1771 1714 1598
620 1061 1591 2139 2333 2253 1730 1913 1855 2123 1896 2174 2053 1859 2068 2270 1854 1812 1794 1744 1640 1609 1498 1315 1459 1414 980 1280 1091 1391 1660 1358 928 1050 1363 1517 2089 2165 1525 1261 1479 1673 1722
718 1181 1418 1456 1508 1695 2067 1868 1655 1803 1909 1972 2003 1973 1964 1913 1916 1781 1861 1773 1557 1494 1442 1382 1326 1312 1288 1077 996 1159 1754 1348 787 1008 1358 1577 2383 1863 1854 1822 1672 1691 1711
669 1229 1450 1389 1267 1524 1566 1667 1676 1787 1775 1744 1692 1627 1558 1624 1652 1690 1907 2205 1403 1269 1202 1213 1219 1552 1557 1418 1283 1207 1590 1522 726 1167 1276 1669 2430 2068 1870 1491 1635 1707 1567
942 1222 1454 1237 1278 1388 1352 1269 1417 1659 1650 1572 1495 1531 1462 929 1106 1298 1448 1793 1355 1135 1070 1162 1276 1561 1491 1461 1598 1293 1330 570 791 949 1183 2183 2092 1649 1462 1652 1598 1508 1510
728 1148 1243 1020 1013 1230 1291 1155 1020 1072 1146 1215 1141 452 562 603 854 1020 1460 1595 1368 1184 1356 1894 1639 1264 1355 352 317 1518 679 449 458 812 1364 2327 1825 1576 1215 1669 1847 1798 1486
625 844 843 729 857 1033 906 979 868 913 943 868 643 0 301 347 534 944 1029 1227 642 272 419 417 560 790 888 645 429 545 891 699 381 503 1488 2244 2062 1461 1248 735 1652 1773 1733
517 608 537 556 749 707 751 671 592 626 627 665 197 0 322 489 557 754 476 450 573 292 446 598 684 799 769 83 59 215 921 720 241 553 1492 2120 1975 1678 1548 1124 568 1206 1390
268 306 331 533 622 442 427 189 484 445 475 600 468 340 338 374 580 663 675 498 488 419 289 459 636 527 286 56 50 661 713 406 113 671 1300 1968 2341 2057 1568 1550 1218 728 686
128 185 200 517 539 305 151 23 320 387 399 369 523 452 388 537 817 800 754 544 637 419 351 317 484 19 64 102 71 466 473 186 67 327 640 1220 1958 2077 1946 1446 1573 1460 1384
124 89 108 291 502 220 162 0 103 270 279 338 540 372 539 692 942 711 748 426 434 474 546 446 314 126 61 99 122 134 186 130 45 117 667 738 1289 2043 2057 1961 1726 1625 1389
67 43 72 186 412 138 141 105 250 53 215 470 599 594 809 502 1131 890 604 563 592 690 873 833 425 269 175 178 60 40 78 56 53 54 311 476 601 528 1900 2108 2069 2034 1592
188 22 19 87 496 122 400 570 528 259 289 399 649 585 999 1262 1192 901 816 660 617 745 892 633 591 837 304 271 201 45 40 70 71 46 58 43 143 280 1230 1560 1691 1383 1431
165 77 71 34 421 287 486 384 374 283 267 647 626 516 963 889 1460 1183 863 728 881 471 724 799 231 0 0 33 19 34 31 26 68 48 66 38 86 201 642 841 726 728 1230
116 184 69 31 198 486 489 364 245 176 86 324 645 457 494 815 1151 1264 1139 1041 644 547 839 384 114 20 0 3 5 0 6 4 17 44 53 70 51 131 210 492 440 578 591
97 210 133 82 61 440 278 373 194 111 44 176 548 427 325 833 1128 1353 1285 1048 958 672 897 670 678 209 0 0 7 0 0 0 16 19 50 60 52 53 64 161 105 161 388
121 189 217 116 0 187 317 397 616 417 279 292 512 721 480 949 1283 1504 1098 1073 883 881 945 761 804 362 0 0 16 6 1 0 0 5 45 36 50 29 67 86 112 70 248
197 202 196 179 103 129 419 220 426 447 631 562 425 401 798 1054 1298 1429 1188 1194 1091 1249 1043 913 1052 492 172 0 0 37 19 7 0 0 0 0 12 9 28 118 124 139 48
241 269 207 440 287 268 562 295 285 405 695 887 711 509 789 995 1343 1339 1092 1130 932 1167 924 779 1113 719 584 3 0 4 0 0 1 0 0 0 0 0 10 192 132 133 121
211 226 262 686 424 346 652 535 413 363 388 561 835 723 467 909 1065 1390 1200 1211 1009 1240 1029 1007 752 1299 834 861 7 0 0 13 0 10 0 0 0 0 0 20 31 89 86

GFSSE_con_mucape_039.txt.gz
CAPE
67 324 1670 1704 1859 1769 1813 1701 2002 2183 2073 2188 2186 2062 2142 2218 2171 2289 2134 1776 1733 1699 1766 1868 1612 1354 890 1099 1244 1122 1254 1302 1435 1403 2025 2136 2347 2337 2219 2222 1882 1693 1924
90 286 1667 1927 1769 1735 2133 1952 2231 2116 2023 2040 2077 2231 2220 2271 2270 2001 1702 1884 1798 1751 1845 1842 1795 1512 1153 968 1312 1391 1171 1158 1530 1766 2020 1980 2149 2229 2203 1945 2123 1670 1790
305 676 1323 2093 2107 1825 1774 2152 1994 1826 2135 2168 2078 1992 1962 2055 2036 1911 1798 1838 1829 1705 1682 1631 1565 1408 1316 1419 1552 1671 1539 1222 1132 1652 1679 1228 1378 1944 1891 2004 1867 1823 1788
541 979 1220 2167 2191 1962 1716 2163 2091 1951 1927 1795 2036 2162 2077 2118 2069 2004 1976 2055 1841 1811 1584 1588 1653 1415 1364 1367 1404 1235 1375 1528 947 1464 718 911 1196 2092 2027 1952 1774 1735 1746
824 1140 1407 2274 2353 2050 1741 1832 1787 2061 1652 1973 2002 1979 2008 2027 1907 1890 1880 1777 1682 1625 1522 1486 1452 1326 1162 1251 1181 1190 1377 1320 1156 579 615 1071 1339 1699 1924 1852 1777 1805 1737
763 1098 1876 1877 2017 1620 1885 1894 1914 1877 1900 2207 2246 2025 2112 2172 1804 1813 1797 1764 1774 1584 1483 1444 1364 1260 1241 1024 980 1133 1449 1652 961 439 993 1252 1245 1763 1794 1872 1753 1775 1791
741 1136 1438 2309 2120 1788 2040 1973 1947 1993 1898 2064 2306 1877 1836 1902 1929 1889 1851 1946 1888 1797 1708 1605 1505 1424 1132 1197 1317 1357 1593 1288 645 861 1175 1445 1506 2324 1588 1618 1786 1734 1676
918 1192 1499 2022 1811 2032 1624 2077 1906 2161 1987 2062 2097 2175 2093 1989 2019 1936 1903 1862 1750 1463 1387 1518 1328 1280 1320 1144 1349 1389 1672 1308 933 1152 1328 1404 1925 1717 1091 1841 1736 1695 1683
964 1304 1473 1651 1274 1754 1865 1873 2223 1951 2288 2198 2142 2219 2062 2020 1942 1929 1901 1860 1649 1436 1245 1194 1240 1249 1088 1207 1407 1585 1481 1397 972 1245 1301 1417 2242 1880 1224 1569 1722 1793 1651
1062 1282 1381 1388 1168 1511 1612 1642 1933 1992 2057 2069 1889 1849 1791 1929 1885 1787 2012 2060 1559 1385 1286 1240 1251 1362 1398 1273 1430 1719 1640 1400 993 1234 1460 1695 2224 1945 1851 1826 1744 1799 1700
1025 1212 1328 1260 1288 1370 1378 1296 1717 1882 1821 1717 1546 1617 1597 1283 1327 1319 1424 1511 1400 1222 1124 1189 1443 1166 1214 1399 1321 1738 1558 597 822 1052 1388 1994 2124 1688 1493 1617 1769 1577 1599
782 1194 1294 1172 1190 1275 1310 1132 1319 1406 1307 1310 1245 1148 657 905 911 954 1452 1559 1309 1286 1416 1554 1409 1322 1197 184 482 1395 355 531 764 862 1456 1958 1850 1390 1630 1486 1656 1567 1442
700 1088 1191 1029 1052 1190 1183 1095 968 1154 1140 1125 812 263 362 351 437 986 909 1296 363 322 388 359 643 757 517 586 522 922 546 454 530 916 1425 2112 1814 1255 1320 1890 1904 1636 1482
670 928 1058 809 839 1041 956 976 761 786 834 688 464 147 335 399 565 628 693 518 478 234 319 471 477 757 500 39 59 402 693 559 297 724 1402 2189 1995 1550 797 988 1695 1709 1636
478 625 789 564 611 723 557 720 478 473 525 533 478 130 336 515 447 646 544 301 306 328 342 311 438 213 78 52 92 520 623 637 187 654 1104 1889 2218 1795 1488 882 622 1070 1349
332 386 436 379 524 499 379 309 224 234 354 462 583 302 276 427 492 533 606 395 501 543 389 268 447 25 50 70 389 535 511 485 130 524 963 1482 2357 1986 1426 1524 1161 741 703
182 198 175 250 434 384 238 56 38 207 259 339 442 535 415 469 715 780 646 576 385 335 231 225 395 126 61 74 183 352 335 185 58 207 430 812 1269 1769 1559 1396 1603 1442 1363
90 88 61 183 345 302 171 73 17 110 240 289 346 447 424 576 881 579 530 448 394 463 527 346 391 242 96 74 58 92 138 94 50 56 380 484 709 1043 1388 1581 1375 1596 1307
95 41 31 64 291 281 68 61 7 29 120 204 320 396 414 575 817 798 700 570 518 659 707 591 537 644 157 167 84 30 75 62 49 25 111 212 237 206 1019 1430 1554 1653 1277
60 41 0 0 157 247 43 62 80 289 244 366 461 474 452 835 1201 785 854 583 523 623 412 427 78 0 36 55 33 16 25 53 61 29 39 37 59 115 631 823 562 715 1070
90 5 0 0 16 172 130 107 270 348 244 551 580 565 433 998 1295 874 792 730 685 498 569 494 50 0 0 12 5 0 4 6 46 54 57 68 82 87 216 386 262 284 487
131 95 16 0 0 195 107 182 360 201 36 118 523 571 416 832 1103 1279 812 929 666 607 735 457 228 0 0 0 0 0 0 0 4 17 41 86 61 69 44 152 115 187 162
30 56 46 0 0 119 137 168 205 72 25 54 215 495 421 431 787 1191 1152 1080 877 804 596 531 569 30 0 0 3 0 0 0 0 4 16 46 37 32 16 14 46 27 92
0 0 30 0 0 19 194 189 124 37 32 3 17 351 417 444 794 1238 1170 929 879 881 858 738 695 387 0 0 0 0 0 0 0 0 0 7 5 19 9 8 58 96 69
75 3 0 14 20 35 81 79 51 8 0 58 92 243 447 530 788 1197 1292 981 1064 993 1110 944 825 706 301 0 0 0 0 0 0 0 0 0 0 4 0 11 66 138 133
173 98 25 23 88 83 109 20 2 26 70 327 409 339 411 618 706 1077 1226 1158 988 895 1067 930 680 781 524 92 0 0 0 0 0 0 0 0 0 0 0 0 41 173 160

GFSSE_con_mucape_042.txt.gz
CAPE
15 317 1326 1386 1399 1806 1654 1919 2099 1992 2112 2002 1859 1846 1924 2124 2211 2314 2120 1714 1650 1575 1495 1229 1005 916 1001 1036 1089 1305 1306 1463 1799 1607 2392 2246 2244 2402 2238 2135 1970 1581 1995
0 503 1482 1635 1614 1733 1676 2082 2041 2093 2184 2142 2009 2251 2226 2226 2330 2047 1835 1736 1737 1875 1838 1710 1424 846 1043 1149 995 1088 1581 1514 1878 2093 2214 2157 2014 2134 2132 2147 1993 1805 1820
78 850 1156 1966 1912 1529 1932 2098 1983 1983 2083 2070 2219 2258 2053 1936 1777 1781 1882 1851 1832 1810 1679 1660 1424 1412 1144 1418 1655 1284 1136 1610 1821 1968 2249 1697 1827 1973 2123 2181 1925 1941 1915
407 880 1151 1954 1912 1741 1885 1923 1959 2170 2027 2117 2051 2105 2060 1944 1948 1847 1928 1967 1949 1552 1296 1653 1322 1437 1415 1379 1525 1503 1550 1286 1712 1312 955 1303 1603 2154 2110 2029 1922 1863 1839
718 982 1296 1952 2065 1729 1862 1988 2234 1643 1892 2160 2027 1920 1855 1931 1880 1953 1973 1878 1796 1673 1501 1609 1322 1283 1203 1264 1144 1143 1399 1280 1335 720 1050 1402 1852 2031 2009 1953 1769 1828 1889
878 1132 1819 1885 1628 1868 1810 1951 1790 1802 2141 2068 2070 1933 1785 1950 1857 1912 1856 1805 1645 1602 1649 1500 1273 1220 1058 1124 1228 1399 1705 1561 815 729 1294 1637 1694 2170 2020 1839 1743 1761 1685
922 1148 1271 2137 1958 1923 1826 1894 1856 1989 2060 2062 2013 1752 1937 1897 1932 1912 1889 1829 1738 1664 1603 1599 1363 1156 1254 1127 1252 1657 1747 1330 791 1098 1285 1430 1978 2186 1831 1832 1843 1753 1758
960 1133 1309 1789 1598 2009 1864 1934 1814 1919 2086 2078 2137 2069 2064 2101 2041 1976 1884 1756 1600 1537 1482 1480 1441 1322 1270 1373 1489 1745 1577 1218 1062 1316 1406 1523 2110 1698 1975 1859 1801 1775 1757
936 1138 1372 1103 1576 1742 1816 1810 2051 1862 2096 2048 2072 2212 2081 2038 2013 1921 1811 1619 1330 1243 1217 1279 1237 1214 1398 1403 1605 1701 1550 1381 1166 1314 1312 1576 1908 1472 1758 1763 1659 1709 1655
1000 1204 1450 1018 1277 1240 1546 1992 1875 2166 2245 2190 2146 2010 2010 1928 1794 1845 2056 1700 1390 1281 1225 1129 1115 1165 1334 1515 1692 1699 1568 1620 1216 1387 1572 1738 1624 1628 1469 1681 1642 1736 1711
1028 1212 1414 1013 1146 1340 1209 1614 1807 1977 1863 1801 1659 1774 1608 1468 1257 1267 1596 1522 1287 1196 1305 1527 1450 1202 1229 1294 1790 1651 1455 954 1144 1183 1461 1630 1610 1498 1601 1698 1665 1628 1540
788 1173 1266 1056 1169 1253 1195 1358 1461 1514 1354 1262 1275 1153 836 879 938 1003 1497 1373 1284 1364 1647 1576 1430 1531 783 576 1207 1624 695 818 1087 1099 1629 1759 1851 1338 1411 1571 1564 1480 1514
503 822 1195 1050 1062 1128 1147 1191 1280 1327 1166 1129 808 487 586 707 680 945 683 1013 347 378 338 520 698 765 505 510 464 664 464 691 866 1076 1527 1689 1738 1133 1577 1536 1469 1461 1525
395 590 1078 1003 894 998 1009 934 927 1031 960 829 377 201 235 194 384 556 545 528 376 234 337 355 528 338 169 42 249 704 559 575 522 922 1398 1863 1400 885 1301 1631 1713 1688 1336
384 554 942 914 747 865 794 811 611 616 618 468 293 191 280 397 491 549 443 198 298 314 282 239 427 46 66 66 60 665 623 361 219 825 1260 1584 1314 1201 645 719 1435 1291 1287
257 569 772 756 551 627 609 512 404 299 340 326 407 195 298 389 356 435 518 408 379 470 332 193 173 43 59 94 406 421 384 427 306 704 942 1543 1563 1265 1314 919 583 618 933
154 311 509 542 341 304 352 133 173 154 199 276 453 421 257 397 418 381 461 554 406 351 166 296 260 78 65 78 230 299 329 233 218 527 662 868 1442 1421 1005 1319 1221 851 714
134 146 196 237 178 215 157 76 0 98 124 184 254 292 435 381 589 660 485 492 338 441 441 440 302 224 87 69 103 139 179 87 56 153 473 602 812 937 1341 1082 1184 1425 1348
172 60 48 91 107 130 136 42 0 0 70 136 253 225 307 412 619 652 452 407 408 512 606 619 331 462 179 113 60 62 81 75 49 58 283 378 351 396 1035 1138 1232 1154 1230
198 29 0 0 82 70 99 5 0 0 7 65 191 255 261 388 693 827 508 463 492 517 396 355 82 34 68 88 81 25 49 51 60 35 46 68 62 194 522 1004 752 809 1028
136 31 0 0 0 50 57 0 0 0 65 234 267 376 330 501 968 955 705 446 442 412 446 339 63 0 28 14 27 19 13 1 25 39 37 33 57 101 299 544 411 427 469
85 59 13 0 0 18 0 0 0 40 168 307 461 477 433 542 1006 1068 658 567 453 408 545 333 102 12 0 0 0 0 0 0 1 14 19 22 32 35 136 272 260 285 271
40 35 29 11 0 0 0 0 0 27 230 66 202 441 493 440 740 1152 1119 656 695 564 576 472 255 0 0 0 0 0 0 0 0 0 0 4 32 14 17 45 138 125 122
36 32 34 0 0 0 0 0 26 65 210 136 0 302 364 303 582 917 989 1002 858 722 681 550 399 196 0 0 0 0 0 0 0 0 0 0 1 2 8 1 68 115 116
20 15 37 68 1 0 0 0 15 50 107 42 0 0 319 292 408 933 934 958 809 747 720 832 639 521 114 0 0 0 0 0 0 0 0 0 0 0 4 16 60 150 146
14 3 0 3 89 15 0 0 0 5 33 8 0 0 57 306 385 729 1009 1017 926 920 817 963 865 634 420 160 0 0 0 8 0 0 0 0 0 0 1 2 2 127 253

GFSSE_con_mucape_048.txt.gz
CAPE
69 419 784 1187 1289 1539 1609 1854 1972 2033 2057 2342 2145 1814 1659 1671 2152 2230 1718 1556 1428 1389 1151 1219 1300 1432 1437 1714 1946 2182 2031 2138 2259 2484 2495 2451 2476 2208 2193 1976 2303 1409 2108
92 523 981 1822 1461 1573 1641 1787 1802 1971 2110 2103 1968 1841 2112 2300 2105 1867 1822 1982 2160 1835 1550 1094 1380 1349 1208 1545 1526 1516 1552 1987 2294 2351 2458 2371 2394 2099 2102 1759 2305 1824 1666
159 477 1000 2031 1959 2256 2241 2071 2200 1939 1994 1993 2058 2333 2061 1999 2007 1748 1847 1872 1868 1895 1753 1572 1355 1542 1702 1184 1632 1914 1842 2108 2130 1963 1722 1793 2079 2115 2084 2017 1825 1873 1970
94 183 702 1909 2146 1943 2103 2295 2294 2236 2220 2220 2099 1977 2109 1920 1669 1904 1991 1811 1799 1720 1593 1633 1747 1801 1849 1671 1423 1801 2020 2163 1986 1665 1649 1517 1665 2092 1992 2101 1946 1912 1936
90 137 1304 1852 1983 2088 2117 2139 2148 1809 1972 1960 1874 1951 1994 1914 1898 1934 1856 1584 1526 1741 1564 1510 1283 1324 1228 1271 1561 1665 1771 1710 1560 1680 1835 1655 1770 2064 2112 1955 1970 1998 2158
168 244 1360 1760 1883 1732 1955 2067 2003 2005 2040 2029 1950 1977 1888 1855 1728 1926 1840 1928 1791 1674 1448 1500 1293 1320 1394 1461 1605 1646 1414 1145 1523 1284 1635 1748 1925 2002 1946 1924 1961 1877 1890
163 398 1140 1894 2290 1786 1920 1919 1981 1984 1998 2082 1952 1949 1697 1829 1978 1862 1838 1760 1787 1536 1467 1415 1274 1232 1394 1669 1716 1790 1120 861 1356 1378 1762 1611 1900 2055 2018 1819 1871 1737 1787
168 305 947 1559 1800 1725 1677 1916 2046 1966 1904 2009 2039 2045 2105 2094 2013 1888 1750 1685 1719 1667 1516 1396 1348 1212 1502 1837 1839 1490 984 761 1106 1354 1718 1508 1927 2168 1900 1904 1835 1862 1995
180 415 714 1289 1622 1581 1993 1884 1909 1843 1927 2093 1925 2157 2194 2085 1863 1721 1555 1522 1462 1345 1188 1105 1236 1329 1397 1894 1842 1510 1562 1146 948 939 613 794 1839 1854 1904 1786 1813 1618 1778
200 565 507 898 1092 1428 1505 1792 1861 2020 1871 2071 2153 2138 2104 2036 1839 1616 1934 1793 1173 990 1095 1234 1129 1281 1645 1780 1762 1494 1539 1286 623 835 1344 1209 1818 1777 1815 1770 1795 1835 1301
196 625 284 756 1130 1407 1424 1722 1846 1859 2053 2053 2101 2188 1859 983 871 1343 1770 1411 1411 1292 992 979 1110 1338 1563 1749 1804 1529 1749 489 510 793 873 1585 1659 1642 1767 1754 1813 1735 1511
203 488 365 1099 1065 1405 1158 1589 1699 1597 1385 1332 1496 1585 1183 1061 1059 765 1365 1437 1240 1236 1597 1605 1322 1205 1410 1261 1257 1446 758 745 453 783 951 1458 1568 1567 1778 1746 1697 1675 1762
149 197 243 694 887 1329 1813 1524 1419 1031 1226 1474 1641 1426 1286 1008 531 796 1161 1228 1091 1240 1201 1386 1515 1098 1095 942 892 877 894 604 488 515 1110 1349 1515 1517 1566 1559 1572 1665 1588
115 245 235 568 898 1061 1320 883 822 823 859 965 1105 1467 1456 1171 956 826 970 990 1100 1064 1115 1174 776 966 886 1309 1139 947 786 298 474 618 1025 1382 950 1682 1649 1534 1480 1409 1513
135 312 285 552 1028 1132 1379 873 813 901 908 844 1043 1179 866 964 1219 1108 1201 1043 1030 971 813 843 758 854 1206 988 1032 946 721 345 167 464 1201 1165 1147 645 1245 1604 1590 1446 1168
153 285 367 497 886 1110 1244 1273 1363 1133 1049 821 705 672 1235 1290 1794 1061 954 1182 1506 1145 974 794 684 375 164 492 1134 858 705 558 484 289 629 1103 931 1040 649 528 899 1017 1134
145 319 426 503 637 1000 1156 1322 1038 905 747 992 954 1181 1573 1799 1905 1114 1118 1079 1401 1313 1365 1057 663 355 116 148 768 826 615 714 542 527 478 591 967 918 952 1083 673 547 558
55 207 490 257 274 711 786 934 584 669 906 1080 1266 1352 1433 1686 1718 1696 1067 1155 1385 1035 790 341 120 446 400 82 293 385 367 446 522 509 486 502 431 890 1000 821 914 1022 972
72 230 495 426 259 378 652 518 552 785 970 1097 1152 1236 1859 1741 1829 1727 1300 1942 1474 1064 1088 454 234 304 149 74 73 88 91 212 212 214 530 341 336 394 611 982 882 785 852
99 217 470 497 479 528 479 523 361 651 990 1131 1199 1207 1747 1698 1854 2113 1553 1382 1242 753 967 959 529 314 202 87 44 40 73 68 182 152 189 144 90 201 266 769 1022 785 755
176 425 440 562 744 706 397 183 371 604 683 901 973 1370 1914 1794 1971 2410 1870 1118 1258 795 862 1220 585 952 176 133 74 29 21 41 357 229 145 76 204 142 244 286 437 524 793
321 502 637 665 893 975 273 439 338 553 511 770 1234 1837 2006 1957 2198 2085 1594 1157 1449 1425 819 867 1161 220 111 101 86 51 44 56 68 139 177 158 222 176 213 365 181 370 176
468 620 776 906 943 1039 707 222 556 640 916 1199 1529 1541 1857 2027 2167 2243 1626 1430 1050 1192 976 1255 1352 681 113 222 410 500 40 318 64 90 299 185 346 271 274 397 363 258 385
450 664 826 1088 1101 989 879 796 1619 754 687 496 1046 1049 1642 2084 2062 2227 2307 1777 1503 1895 1309 1268 1243 404 728 137 72 41 315 505 110 317 86 150 288 346 421 438 349 441 496
338 602 857 1161 1594 1695 1298 1435 756 1000 101 304 719 1313 1832 2356 2136 1928 2287 1667 1683 1369 1729 1796 1868 1550 270 224 50 120 310 257 280 216 152 293 242 175 227 550 390 406 582
426 509 751 1638 1795 1564 1265 986 1739 1444 859 521 1118 898 978 1180 1839 2159 2227 2398 1705 1464 2030 1811 1748 2065 1383 666 202 352 326 422 473 379 271 514 413 414 387 434 529 513 521

GFSSE_con_mucape_051.txt.gz
CAPE
485 392 779 1279 1548 1842 1985 1997 2118 2358 2547 2401 2106 1807 1531 1593 2463 1857 1548 1487 1489 1333 1294 1420 1537 1495 1829 2060 2251 2048 2102 2312 2414 2498 2441 2397 2308 1963 1863 1843 2702 1391 2064
257 510 981 1541 1728 1807 1943 2092 2129 2258 2247 2071 1846 1739 2111 2355 1869 1827 1882 1774 1823 1685 1225 1527 1418 1248 1553 1546 1560 1655 2036 2273 2232 2509 2293 2265 2204 2203 2316 2265 2605 1794 2136
504 753 1166 1745 1897 1772 1845 1799 1921 2072 2127 2091 2205 2215 2154 1970 1812 1857 1920 1921 1924 1810 1631 1475 1702 1610 1203 1860 1844 1931 1937 2300 2221 1736 1738 1834 2007 2164 2088 1922 2106 2041 2017
516 559 890 2168 2303 2230 2084 2389 2047 1968 2212 2182 2312 2053 1954 1796 1976 1946 1915 1913 1785 1669 1703 1901 1819 1788 1617 1444 1842 2002 2212 2018 1816 1562 1640 1807 1619 2183 2232 2060 2018 2082 2001
162 306 1620 2119 2246 2143 2177 2244 2293 2270 2121 2072 2060 2008 1890 1715 1979 1842 1660 1671 1759 1623 1542 1447 1483 1332 1362 1614 1767 1804 1752 1733 1701 1879 1856 2307 1234 1931 1966 1960 1828 1924 1949
104 595 1606 2047 2088 2143 2225 2105 2067 2069 2035 1918 2009 1904 1913 1848 1931 1973 1838 1712 1683 1510 1614 1378 1459 1492 1467 1446 1605 1249 1269 1367 1573 1803 1834 1566 2131 1701 1805 2019 1983 1956 1841
304 568 1114 2284 1896 2001 2113 2088 2084 1932 1993 1994 1977 1958 1846 1897 1902 1797 1821 1856 1467 1519 1528 1246 1349 1483 1546 1510 1771 1240 946 1175 1816 1924 1676 1812 1666 2128 1992 2010 1772 1693 1959
207 292 1103 1814 1900 1908 1961 2073 1941 1987 2050 1903 1847 1744 1777 1861 1949 1846 1818 1705 1651 1530 1435 1222 1314 1560 1743 1831 1577 907 1004 1318 1272 1751 1704 1571 2043 1989 1874 1936 2070 2075 2036
94 377 865 1195 1513 1724 1999 2092 1852 1669 1753 1823 1865 2128 1931 1909 1767 1666 1671 1560 1336 1117 1035 1249 1312 1494 1818 1737 1328 1385 1545 1556 1630 1222 751 1214 1948 1982 1875 1837 1440 1836 1605
151 93 456 675 1125 1144 1582 1949 1932 1858 1609 1866 2082 2141 1949 1729 1626 1547 1857 1551 1140 1256 1225 1159 1219 1565 1728 1743 1357 1366 1553 1455 482 897 799 1622 1916 1801 1822 1846 1814 1597 2132
146 94 298 402 706 1930 1587 1767 1933 1835 1848 2108 1902 2047 2159 876 1378 1558 1956 1426 1137 899 1024 1091 1223 1463 1571 1762 1520 1471 1620 806 722 568 1045 1950 1965 1799 1805 1858 1924 1568 1666
174 82 101 339 819 1127 711 1468 1577 1346 1100 1276 1055 1904 1803 1572 1225 895 1213 1250 1207 1275 1462 1231 1121 1150 1395 855 1257 1624 1151 300 759 601 936 1888 1758 1812 1855 1809 1914 1826 1455
145 76 200 899 1040 1160 1228 1257 1211 1268 1277 1897 1271 1654 1085 576 566 1117 974 1032 1064 1092 1503 1559 1636 1229 687 865 1182 562 508 298 725 645 1376 2069 1591 1575 1582 1599 1757 1707 1691
142 74 272 330 981 1150 864 1019 1275 978 607 620 968 1098 1322 2295 1529 1781 1597 766 1195 1145 646 458 349 583 919 1428 820 1346 429 602 595 582 1194 1136 1770 1652 1725 1489 1481 1471 1408
86 56 206 214 1129 1439 2217 1268 480 474 410 745 1051 1149 1538 1680 1531 1631 1024 1145 1176 1314 800 935 420 1112 175 294 1060 913 274 228 930 944 970 1267 844 1226 1678 1584 1646 1218 1102
55 55 104 367 833 1439 1701 879 1221 1095 1451 534 630 925 1193 1586 2448 1266 1111 1691 1993 351 808 1079 1295 457 555 162 338 441 622 243 419 968 991 1082 1361 871 533 899 836 1027 1002
44 59 181 432 769 1075 1858 1033 1807 1208 465 968 1007 1407 1521 1661 1609 1694 1885 888 1684 1362 929 562 225 767 132 683 207 704 146 929 321 457 1026 755 988 1259 1266 807 636 512 570
29 138 303 210 553 933 1054 1137 773 667 922 1264 1578 1458 1596 1562 1520 1782 1270 715 1324 1576 1445 303 238 402 248 379 420 331 481 384 286 379 485 1034 1372 1021 939 1204 1166 1025 869
13 188 367 278 484 795 1147 1032 855 911 1509 1726 1572 2073 1867 1920 1678 1595 1548 1406 1414 1572 1144 936 143 51 614 180 72 233 496 133 648 149 254 277 94 874 1245 1496 1132 895 835
26 125 436 334 1183 1600 1077 1029 778 783 977 1215 1242 1663 1885 1617 1685 1843 1596 1301 1624 363 941 1211 820 405 402 97 31 60 134 141 67 245 120 101 40 164 878 1329 927 853 1214
55 79 501 959 2144 1078 674 698 720 735 861 1141 2040 1633 1841 1555 1618 1918 1305 1453 1496 1218 2190 730 462 443 73 89 28 19 28 28 125 42 57 82 72 105 55 255 778 1217 633
64 169 1040 1528 2454 1494 716 1255 1061 1316 673 691 747 1819 1846 1786 1878 1237 1869 2296 1122 1500 1339 969 1119 742 47 488 1335 50 208 481 127 179 54 76 168 165 299 345 140 194 544
167 328 1145 1975 2405 1942 1425 982 1092 1300 1060 666 1751 1522 1894 1924 1961 1827 1511 2144 1447 2175 1099 1308 1189 1964 457 27 471 1272 839 331 365 84 242 213 372 343 286 424 320 301 296
230 340 1428 1669 2426 2003 2190 690 1703 906 535 359 965 991 1679 1860 1969 1932 1784 1814 1549 1343 2428 1591 1448 1806 1390 318 16 108 917 598 1250 632 107 169 250 318 423 450 488 497 556
281 473 623 2127 2486 2333 2246 1710 1056 1409 423 387 281 2998 2150 3072 1981 1904 1798 1925 2122 1598 1723 1773 1837 1833 395 2106 776 37 309 210 1196 589 912 346 371 194 303 639 433 412 783
358 498 1001 2252 2799 2724 2508 2016 2354 1605 1508 212 635 1230 1077 1420 1692 2217 2057 2160 2057 1819 2262 1973 1852 1758 2307 1160 942 720 881 736 801 363 407 839 432 482 391 424 568 529 553

GFSSE_con_mucape_054.txt.gz
CAPE
561 290 519 1115 1576 1921 1909 2277 2498 2903 2772 2518 2205 1840 1620 2247 1766 1852 1733 1726 1695 1349 1501 1548 1407 1820 2034 2159 2000 2076 2328 2943 2885 2581 2475 2286 2187 2487 2318 2433 2263 1389 2330
384 152 925 1593 2024 2063 2132 2525 2577 2665 2586 2215 1963 1788 2170 1836 1906 1951 1780 1738 1825 1366 1676 1312 1319 1671 1458 1553 1762 2086 2302 2482 3069 2366 2203 2332 2178 1957 2248 2186 2571 2002 2129
301 404 1096 1804 2292 1992 2031 2281 2320 2336 2159 1963 2258 2249 2006 1867 1965 1960 1998 1774 1846 1643 1648 1822 1319 1404 2012 1894 1941 1973 2362 2287 2000 1722 1993 1714 1977 2122 2553 2087 2172 1975 1848
312 618 884 1979 2107 2128 1846 2069 2005 1977 2014 2353 2153 2110 1936 1986 1963 1908 1930 1762 1859 1977 1850 1945 1869 1614 1488 1915 2027 2193 2083 1967 1672 1475 1438 1452 1244 2006 2177 2118 1894 1971 1439
564 860 1321 2166 2521 2264 2341 2235 2593 2335 2228 2145 2167 1974 1724 1988 1916 1708 1740 1792 1713 1618 1567 1601 1448 1517 1610 1823 1803 1791 1806 1602 1744 1631 1597 1618 1243 1822 1464 1786 1790 1693 1768
631 1044 2098 2513 2274 2282 2253 2313 2167 2134 2036 2097 2193 2130 1959 1841 1984 1962 1735 1702 1625 1693 1536 1620 1629 1568 1393 1555 1224 1350 1501 1688 1580 1654 1283 1895 1651 1925 1946 2004 1855 1951 1909
576 720 1541 2592 2427 2389 2166 2156 2119 2121 2055 2067 2021 1896 1799 1906 1784 1800 1908 1337 1631 1609 1428 1511 1555 1544 1515 1601 1184 999 1315 2156 1303 1706 1590 1718 1651 2380 1656 2028 1766 1940 1921
335 461 1161 2037 2307 2408 1970 2025 2253 2010 2002 1987 1973 1919 2153 2188 2351 2234 1652 1634 1590 1455 1256 1429 1609 1712 1678 1619 918 788 1169 1847 1671 1475 1656 1499 2063 2013 2095 2025 2131 1980 1880
84 562 909 1259 1764 2052 1926 1919 2000 1851 1910 2132 2348 2020 2596 2298 2089 1907 1869 1526 1137 1073 1299 1395 1555 1787 1553 1129 1123 1320 1519 1822 1135 1186 1044 1496 2197 2055 1829 1384 1678 1416 1530
204 314 749 1105 975 1461 1533 1820 1730 1779 2298 1986 2050 2132 2450 1983 1552 1428 2066 1784 1292 1184 1231 1340 1570 1724 1709 1298 1190 1522 1700 2046 647 1032 1312 1716 2062 2074 1944 1861 2101 2104 1960
32 66 266 504 1008 1951 1817 1825 1787 1798 1853 2051 2019 2321 1817 1382 1598 1418 1889 1337 1000 1195 1310 1340 1493 1473 1561 1498 1321 1542 1542 1075 682 1043 1310 2228 2244 1886 1938 1962 1383 1717 1865
7 38 14 447 976 1420 764 1910 2044 1715 1567 1486 1409 1579 2198 1201 1898 902 1346 1581 940 997 1549 1985 1690 550 483 843 1255 1736 1716 577 499 914 1543 2301 2255 1895 1876 1942 1701 1234 1271
45 46 58 1053 994 1009 1335 1625 1505 1538 1555 1636 726 691 2052 1756 883 1036 1205 1213 434 1098 1172 1305 897 154 138 409 1103 984 763 473 524 832 1903 2306 2200 1534 1591 1764 1659 1591 1554
57 239 551 672 1239 1049 1128 1595 639 1560 1284 1280 956 1237 2189 2021 1158 1119 728 823 391 963 1664 664 857 381 928 839 684 575 239 462 450 705 1915 2306 2170 1655 1368 1523 1455 1532 1301
45 63 659 1318 641 543 2096 1973 186 597 775 1338 1293 692 515 1848 1789 2278 484 324 1516 488 846 503 1649 1110 1133 900 864 495 438 890 981 767 865 2053 2189 2004 1532 1573 1178 968 1063
52 94 412 1140 1599 1230 1330 1703 786 1308 677 1046 1013 1193 686 1655 2261 2606 2590 759 894 406 970 56 1547 1450 348 807 614 316 353 1220 1278 906 1036 1258 1512 1792 1860 1406 964 878 1204
53 129 207 1205 919 1503 1241 2402 2148 299 877 1529 1599 2044 2386 2430 2707 2414 2519 598 240 1351 2376 2089 1593 75 1198 583 481 425 1235 1098 1118 1203 742 993 1399 1447 1329 1172 793 673 534
52 458 219 36 958 1606 1389 2198 1086 1262 1355 1888 1910 2151 2612 2347 2214 2052 1966 1999 1702 1695 324 23 66 997 326 917 1103 363 337 788 835 1106 1137 991 1033 997 1693 1618 1320 939 707
327 642 364 867 961 1234 1370 1651 448 669 769 630 2391 1990 3121 2259 1722 1174 915 2335 309 594 832 1326 1142 724 1553 420 49 327 965 359 184 250 906 1243 1543 822 949 1839 1873 1662 1016
354 822 589 958 1741 1671 1926 2520 2234 1021 1614 1547 1444 2393 3107 2783 1674 1261 1337 2033 2356 243 194 1200 662 121 1078 333 17 538 502 613 572 792 447 333 732 1418 971 1031 1290 931 1431
92 563 1203 1479 2134 1481 1339 1386 1154 1256 414 573 1500 1726 2931 2810 2198 732 1251 1968 1804 1654 568 2552 1443 1357 1080 120 541 200 292 388 259 817 558 227 323 1025 1153 1619 1213 1444 859
163 504 1287 1504 1931 1408 1468 1683 1931 844 1485 1213 368 2733 2719 2168 2876 2533 2086 2175 815 1785 2571 2372 1735 2171 696 1507 1102 1510 330 772 294 143 863 420 380 582 626 671 1291 1513 1177
258 487 1055 1667 1789 1435 1830 1453 2680 2850 2110 1394 2433 2406 2707 2240 2781 2357 2431 2643 3004 2294 2353 2444 2391 1760 1535 551 670 1654 257 348 476 688 486 742 615 577 918 684 848 756 617
352 450 1000 1600 2087 1427 2081 1197 1908 1518 1563 973 1643 1614 2521 3103 2521 3131 2825 2692 1881 1764 1682 2874 2456 1874 569 1707 654 1330 1208 1116 530 800 1048 978 622 525 704 1192 791 971 1026
389 435 705 1378 2157 1507 1517 1683 1354 1703 1416 2347 1572 2453 2698 3473 3457 2917 3136 3310 2922 2539 2901 2676 2675 2496 2738 1871 775 1091 1164 1310 1989 1254 676 1049 923 1016 1149 958 1000 979 1149
414 387 826 1151 1675 1967 1535 1737 1803 1375 2176 1621 1623 2021 2240 2554 2818 3224 2738 3514 3619 2674 2622 2680 2886 3043 2766 2517 1806 2175 121 1287 1601 1383 1405 1645 1349 1025 1060 1119 950 841 1341

GFSSE_con_mucape_057.txt.gz
CAPE
149 161 644 1262 1719 1953 2122 2236 2630 2427 2189 1979 1839 2174 2111 1800 1842 2312 2327 1573 1436 2068 1608 1415 1849 2028 2138 2091 2173 2582 2732 2956 3162 2726 2300 1975 1965 2570 2562 2208 1694 1371 2088
196 202 1082 1760 1909 2018 2213 2475 2449 2756 2036 2088 2020 2216 1852 2060 2032 1820 2101 1717 1505 2100 1229 1476 1855 1444 1678 2008 2158 2376 2656 3071 3064 2404 2441 1878 1861 2135 2762 1894 1773 1904 1958
142 472 1261 2046 1975 2149 2335 2345 2371 2089 1962 2184 2266 2399 1978 2141 1985 2079 1899 1808 1540 1953 1897 1223 1781 2053 1847 1924 2193 2336 2364 2245 2475 2245 2217 1529 1631 2168 2161 2047 1967 1882 1932
258 760 1131 2005 1971 2018 2181 2385 2457 2119 2252 2219 2161 2219 2034 1941 1989 1875 1853 1995 1971 1935 1920 1831 1561 1669 1926 2127 2210 2133 1911 2021 1764 1956 1349 967 1423 2067 1975 2086 1680 1544 1778
495 764 1092 2255 2317 1991 1890 1953 2563 2378 2155 2106 2070 1882 2065 1896 1749 1785 1838 1679 1565 1650 1672 1529 1590 1612 1814 1771 1781 1852 1779 1945 2082 1586 1057 1213 1114 1524 2038 1837 1858 1643 1315
558 1046 2092 2212 2072 2221 2184 2391 2206 2100 2133 2020 2132 1990 1830 1952 1877 1836 1512 1703 1688 1643 1712 1701 1596 1424 1416 1421 1696 1554 1642 1754 1564 1261 1374 1723 1596 2168 1857 1823 1949 1538 1797
931 1453 1765 2623 2408 2076 2115 2108 2085 2045 2055 2072 2126 1807 1851 1789 1822 1920 1368 1664 1547 1540 1663 1575 1537 1479 1552 1276 1367 1446 2420 2081 1114 1284 1321 1521 1779 2493 2039 1998 1928 1906 1970
799 1341 1587 2325 2200 2447 2080 2074 2039 2062 1990 2191 1759 2131 2077 1955 1952 1520 1644 1584 1492 1387 1561 1659 1660 1516 1495 1347 870 1034 2139 1947 1367 1213 1245 1448 2262 2576 1992 2094 1985 1982 1005
693 989 1258 1511 1745 1941 2123 2141 2004 1985 1975 1881 2003 2059 2296 1931 1596 1529 1495 1326 1256 1425 1487 1528 1681 1451 1143 936 855 1245 1465 1785 934 1075 1288 1484 2392 2141 2042 1793 1269 1172 1540
536 598 1006 1289 1489 1402 1571 1843 1757 1903 1954 2000 1942 1873 1796 1674 1530 1501 1757 1842 1253 1349 1514 1478 1569 1588 1569 1374 1266 1176 1396 1468 989 1160 1345 1753 2413 1983 2067 2156 2095 1900 1774
269 512 729 745 1079 1036 1317 1384 1686 2027 1900 1948 1825 1820 1795 1024 899 1133 1438 1774 1326 1267 1396 1515 1559 1552 1442 1416 1552 1387 1078 693 908 1140 1383 2155 2370 1734 1626 1416 1751 1919 1790
56 201 438 361 897 947 1200 1288 1310 1449 1392 1397 1352 1201 902 910 810 822 1304 1803 1212 1176 1400 1680 443 133 328 574 695 1083 1020 776 871 1197 1525 2368 2388 1762 1951 1490 1397 1335 1464
25 45 174 378 647 547 865 1244 1282 1269 1209 1032 822 722 830 857 610 376 670 780 828 1135 502 1169 8 15 279 365 560 812 751 535 822 1169 1891 2471 2293 1664 1904 1730 1643 1727 1423
2 5 127 338 619 520 730 1093 1085 995 930 492 79 473 847 440 400 330 567 145 182 407 61 556 7 10 335 442 493 671 284 475 1003 1306 1893 2250 1999 1483 1557 1768 1514 1492 1326
83 127 349 334 417 627 774 833 714 900 769 485 420 451 414 800 736 767 530 479 481 503 677 444 144 154 318 572 643 326 370 329 833 1382 1519 2178 2283 1987 1467 1223 1324 1071 1125
122 186 220 173 184 282 640 495 30 327 530 727 439 25 350 732 967 635 244 653 374 107 331 347 387 67 347 618 153 581 654 567 426 729 1363 1679 2313 2229 1929 1513 991 1045 1534
226 191 48 7 0 179 618 227 364 516 656 388 381 315 568 627 1173 1169 605 246 356 602 826 1080 555 277 356 425 124 225 775 868 697 770 735 725 1275 2276 2199 1228 1215 1243 733
234 146 324 394 204 435 758 273 390 319 526 644 708 1012 1190 1262 1094 937 758 793 260 681 130 95 67 341 221 75 219 287 558 660 954 708 770 804 796 596 1493 1597 1392 1324 695
24 108 130 80 301 568 827 165 66 224 662 1035 836 1451 1207 1107 763 570 758 921 578 388 402 304 170 148 239 132 64 162 194 324 699 758 606 730 782 869 915 1734 1644 1510 992
1 0 70 250 430 139 692 323 163 911 172 724 1343 1342 1174 898 646 105 536 931 583 323 78 461 579 69 325 37 71 145 400 133 214 415 609 910 947 821 754 978 1439 1338 1744
0 0 135 402 249 874 752 748 779 352 489 437 1027 1646 1344 1278 923 520 511 880 332 92 62 629 118 104 235 72 30 40 33 133 105 190 315 622 978 737 970 448 645 581 717
15 0 249 610 316 725 452 562 586 501 243 284 1005 1310 1314 1099 785 405 637 1052 749 685 966 986 1093 485 377 40 100 419 32 11 172 103 172 116 227 864 988 908 653 857 737
97 84 350 747 390 517 200 351 949 395 578 430 638 1086 1372 1470 1227 1412 1139 1116 605 1027 872 854 936 962 178 60 75 300 22 84 237 191 149 176 223 515 838 968 1011 927 613
34 154 384 741 475 649 208 127 571 633 791 303 428 1028 1505 1233 1325 1424 897 964 1192 1184 1160 1032 1256 931 86 443 14 148 215 140 104 197 282 242 113 439 346 381 632 547 417
54 54 492 730 494 286 693 113 268 308 689 622 772 1097 1296 1588 1515 1302 1307 1427 1090 703 647 981 1395 1347 1143 1149 66 92 12 65 397 531 303 256 150 206 299 374 450 507 430
77 95 391 926 426 341 299 735 103 213 403 620 850 593 1512 1728 1869 1908 1474 1408 1232 1141 1251 1121 1676 1259 1118 1385 946 1082 67 157 593 498 544 328 191 308 415 331 423 610 488

GFSSE_con_mucape_060.txt.gz
CAPE
52 338 1232 1621 1957 2115 2423 2437 2123 2013 1779 2056 2431 1837 2081 2122 2024 1893 1530 1679 1800 1544 1562 2011 2160 2239 2202 2637 2776 2763 2615 2747 2830 2295 1922 1714 1920 2307 2255 1688 1718 1515 1603
48 403 1666 1988 2047 2210 2507 2579 2311 1975 1670 2368 2114 2000 2186 2048 2082 2209 1570 1904 1412 1296 1616 1655 1604 1899 2187 2355 2633 2631 2622 3244 2982 2310 2117 2067 1954 2010 1899 1824 1844 1694 1647
35 794 1691 2366 2200 2215 2428 2247 2132 1891 2176 2372 2086 2137 2381 2109 2022 1997 1853 1779 2081 1425 1612 2070 1804 1845 1970 2281 2363 2268 2421 2680 2745 2036 2157 1598 1651 2016 1927 1873 1900 1660 1613
187 994 1333 2353 2554 2255 2209 2338 2103 2079 2459 2240 2082 2079 1989 2024 1912 1966 1910 2049 1964 1780 1701 1547 1944 1818 1997 2217 2043 1907 1912 2241 2539 1641 1284 1386 1496 2077 1955 1410 1520 1590 1730
581 964 1188 2102 2391 2195 2300 2252 2107 2141 2230 2164 2161 2136 1838 1909 1844 1816 1836 1718 1745 1677 1572 1592 1674 1760 1853 1862 1917 1763 2106 2501 2090 1203 1043 1111 1441 1786 1573 1717 1608 1800 1749
598 828 1914 1942 1696 1658 1751 2024 2313 2092 2145 2001 1969 1983 1922 1884 1884 1546 1817 1696 1723 1725 1695 1542 1399 1489 1731 2003 1834 1694 1959 2109 1687 1253 1471 1880 1822 1899 1744 1832 1232 1682 1547
654 1242 1591 2509 2548 2208 2313 2181 2100 2136 2127 2116 1995 1824 2097 1746 1831 1545 1653 1644 1675 1703 1577 1540 1326 1456 1621 1733 1834 1764 2012 1986 1200 1389 1506 1721 1916 2521 1950 2061 1802 1734 1145
1125 1457 1756 2266 2221 2305 2124 2111 2136 2082 2087 1894 1925 2020 1935 1901 1402 1697 1645 1572 1559 1631 1585 1405 1291 1450 1601 1261 1447 2290 2020 1733 1202 1394 1475 1658 2347 2290 2109 1977 1771 1163 982
1158 1432 1605 1576 1858 2093 2112 2120 2141 2062 1994 1943 1934 1999 1925 1666 1692 1637 1568 1379 1479 1528 1527 1513 1357 1224 985 1168 1316 2217 2035 1602 1062 1244 1451 1888 2745 2377 2184 1509 936 1777 1578
967 1146 1273 1383 1512 1684 1925 2012 2048 2020 1944 1918 1848 1688 1589 1480 1418 1323 1826 1736 1387 1448 1410 1531 1617 1680 1280 1760 1852 1694 1955 1457 1043 1225 1510 1995 2144 1737 1707 1957 1910 1338 1066
587 941 1272 1275 1263 1403 1557 1568 1918 1967 1947 1808 1542 1556 1597 1074 999 924 1356 1506 1299 1385 1461 1424 1538 1857 1429 1575 1061 935 1214 934 1067 1263 1594 2244 2201 1950 2289 2023 1872 1665 1557
345 818 1021 1035 1001 1161 1259 1387 1573 1559 1484 1378 1236 1069 898 759 865 737 1082 1497 1307 1343 1619 1353 371 993 585 517 959 1102 851 759 1057 1238 1654 2468 2364 1861 1345 1809 1930 1417 1613
253 371 380 757 664 1025 1158 1119 1275 1146 1076 953 738 671 614 706 846 849 1004 982 848 980 1319 534 27 177 350 465 603 651 747 758 1030 1256 1914 2521 2261 1814 1861 1222 1235 1628 1344
148 235 234 619 541 736 877 986 1070 998 846 722 407 300 526 557 219 283 390 406 363 165 0 407 22 118 319 475 364 527 599 608 953 1295 1879 2425 2109 1728 1616 1598 1593 1385 1255
78 147 148 494 448 446 791 842 805 784 856 618 308 424 524 362 240 288 265 143 204 386 126 252 91 213 358 475 541 302 361 766 943 1239 1604 1785 2041 1726 1656 1419 1471 1180 1071
36 114 193 316 518 391 633 752 668 707 762 285 191 198 256 615 426 408 317 301 286 348 489 240 276 192 282 476 322 297 288 511 859 1174 1254 1565 2169 2133 1496 1097 1016 1059 1304
71 101 154 326 566 463 630 594 186 526 666 466 87 3 293 625 550 336 110 457 278 239 259 279 289 166 192 346 379 330 374 341 398 963 1176 1282 1769 2022 1777 1506 928 1090 1292
108 119 108 230 292 427 528 430 228 320 356 494 114 213 303 664 641 487 247 216 282 543 319 128 456 367 179 149 218 527 520 529 483 417 549 834 1258 1481 1970 1774 1607 1541 770
116 52 47 126 230 462 193 326 319 431 475 302 327 673 804 694 566 489 512 550 324 224 309 25 135 212 205 108 161 389 637 670 703 578 596 514 410 484 694 1496 1680 1530 819
112 83 56 17 350 606 473 175 190 586 467 521 649 929 892 661 256 392 404 302 301 139 30 114 155 62 154 60 56 133 154 280 705 619 562 561 605 678 547 568 1160 1070 1558
116 98 78 70 355 505 408 115 455 499 636 835 910 996 772 570 126 261 519 617 68 124 87 310 66 54 173 37 30 66 136 237 212 465 587 521 705 788 729 563 764 974 865
7 26 112 141 290 289 312 374 546 423 362 553 995 1120 913 761 522 141 371 548 184 168 171 673 363 311 77 30 26 115 0 18 91 85 220 436 724 886 847 838 381 547 551
5 56 150 196 240 291 198 352 517 341 304 291 795 889 1094 1153 582 348 597 649 588 428 756 653 507 226 13 33 39 34 7 9 164 138 142 186 262 535 797 902 641 485 667
93 131 293 249 372 387 235 239 573 475 335 222 652 811 1103 929 777 896 908 843 222 749 557 497 793 388 52 39 31 140 88 130 73 94 143 170 148 435 514 806 939 836 801
0 23 408 281 361 444 290 90 345 651 350 246 437 757 957 1209 951 1180 820 691 833 805 760 503 1049 997 641 570 56 46 19 28 170 315 254 196 130 148 323 347 292 561 469
22 0 519 319 278 342 203 132 88 357 506 592 291 643 940 1284 1160 1057 834 986 747 605 437 642 981 570 614 925 538 313 101 141 402 393 360 381 244 361 505 445 445 468 413

GFSSE_con_mucape_063.txt.gz
CAPE
19 451 1574 1869 2123 2345 1976 1937 1723 1681 2451 2015 1771 2038 2103 1985 1737 1616 1740 1757 1559 1874 2239 2351 2201 2379 2725 2510 2456 2256 2268 2357 2202 2099 2264 2189 1936 1841 1943 1874 1546 1048 1494
19 630 1963 2279 2118 2341 2201 2004 1731 1750 2467 1916 2209 2303 2250 2275 1953 1586 2097 1439 1495 1561 1704 1818 2134 2142 2522 2719 2589 2551 2593 2440 2640 2325 2346 2076 2089 1710 1850 1723 1698 1405 1286
109 1067 1865 2394 2261 2394 2513 2047 1756 2069 2247 1981 2205 2225 2159 2101 2164 1653 1947 1861 1372 2101 1797 1669 1969 2228 2393 2608 2498 2528 2549 2432 2369 2193 2226 1550 1534 2100 1754 1889 1820 805 438
366 1426 1812 2465 2639 2389 2358 2025 1877 2183 2120 1975 2199 1982 2039 1969 1882 2062 1945 2033 1764 1445 1900 1636 1730 1931 2298 2262 2183 2231 2351 2047 1900 2001 1484 1454 1842 1991 1250 1545 1838 1408 1165
936 1327 1725 2444 2490 2265 2256 2036 2069 2402 2124 2075 2126 1943 1908 1881 1958 1985 1944 1821 1686 1550 1557 1875 1646 2010 1903 1924 1964 1924 2177 2156 1970 1256 1320 1461 1443 1177 2028 1856 1616 1622 1484
912 1014 1963 2175 2295 2323 2321 2038 2028 2238 2067 2100 1995 1912 1846 1829 1717 1724 1646 1606 1736 1602 1408 1445 1694 1935 2037 1868 1862 1768 2070 2086 1600 1343 1699 1995 1555 1721 1465 1233 1706 1244 632
768 1261 1543 2365 1893 1745 1850 2263 2013 2185 1992 2012 1823 1895 1828 1816 1517 1713 1727 1748 1710 1689 1411 1366 1519 1789 1727 1602 1539 2057 2211 1966 1365 1583 1873 1693 1808 2126 1920 1818 1753 770 575
1070 1347 1679 2232 1920 2123 2226 2092 2210 2141 2108 1919 1767 1819 1782 1687 1638 1629 1681 1679 1610 1412 1311 1351 1408 1541 1527 1766 2010 2232 2054 1816 1433 1550 1669 1798 2397 2457 2166 2084 1368 1060 897
1256 1553 1681 1862 2035 2103 2052 2187 2115 2081 1840 1963 1976 1821 1650 1470 1742 1643 1582 1543 1582 1437 1299 1485 1401 1187 1351 1743 1823 2143 1830 1729 1269 1442 1798 2070 2243 2256 2063 1003 1791 1829 1574
1299 1493 1523 1607 1700 1739 1730 2157 2040 1972 1911 1836 1890 1878 1586 1575 1494 1387 1790 1841 1569 1428 1400 1202 1103 1230 1743 1975 1738 2162 1796 1575 1073 1412 1803 1902 2382 1540 1626 1663 1255 994 1164
1088 1287 1373 1527 1550 1686 1592 1779 1939 1906 1846 1667 1489 1615 1680 1110 1026 998 1346 1492 1594 1544 1423 1096 1247 1526 1665 1495 1886 2069 1436 921 1057 1408 1602 2061 2458 2154 2244 2036 1771 1632 1260
805 1095 1189 1238 1333 1555 1439 1598 1574 1598 1361 1300 1264 1124 1013 896 763 987 1280 1367 1430 1593 1652 1138 1342 1368 913 818 1188 1280 789 851 1014 1289 1608 2080 2107 1451 1521 1983 1831 1258 1518
575 901 1085 959 1108 1155 1231 1468 1473 1480 1317 1189 1111 825 800 779 910 980 1076 1042 988 1062 863 63 248 301 451 586 659 670 738 770 968 1298 1832 2247 2221 1614 1235 1253 1173 1527 1171
460 738 917 737 899 1029 1124 1270 1293 1107 916 636 519 712 598 670 624 584 640 368 295 195 137 106 122 328 395 491 512 490 664 698 921 1236 1825 2233 2079 1981 1573 1480 1673 1219 1040
220 253 423 518 568 847 929 973 1018 829 714 502 302 352 554 568 325 230 223 164 204 249 94 94 174 290 375 525 393 440 602 561 855 1144 1516 1711 1978 1671 1418 1304 1372 1212 1057
104 177 204 499 392 545 685 765 726 678 802 726 549 415 525 274 206 303 136 204 318 294 349 187 194 260 316 469 352 298 360 595 802 1122 1239 1304 1649 1728 1413 1155 1198 963 1080
42 146 169 444 361 355 498 578 505 582 815 779 267 346 287 631 342 422 353 352 236 141 273 518 241 231 273 341 267 266 267 478 669 990 1070 1276 1401 1579 1550 1110 857 920 1445
54 132 186 295 379 268 413 516 546 579 637 698 302 225 294 630 480 470 108 380 222 442 317 242 273 335 216 238 301 317 371 415 423 724 854 905 1201 1486 1508 1895 1395 1039 967
52 127 199 260 438 323 440 512 418 278 465 480 517 95 308 730 703 533 273 303 365 205 169 50 184 283 120 94 230 416 500 501 474 358 427 419 645 829 895 1407 1953 1646 1014
49 74 110 234 498 365 312 343 374 388 419 387 394 417 652 693 585 525 502 432 46 122 109 57 121 134 106 83 189 314 525 560 625 663 487 372 270 263 272 299 444 952 1367
43 36 78 175 301 303 241 201 343 439 481 468 335 785 781 717 503 418 408 543 410 48 63 103 39 68 158 102 78 122 176 198 217 533 597 527 504 526 565 592 390 606 678
15 6 15 85 193 446 234 175 324 525 477 470 525 806 800 534 171 355 364 483 60 154 255 531 181 445 96 26 34 43 13 86 159 155 352 375 512 566 638 742 585 555 435
12 5 0 50 238 463 312 173 369 397 424 453 712 887 933 765 557 270 398 461 297 242 501 542 242 135 24 20 29 13 2 0 89 97 96 138 255 344 591 714 668 659 298
17 23 0 0 221 396 383 200 331 398 299 357 501 790 1064 1158 996 338 445 697 580 502 728 579 662 232 19 29 40 131 99 98 39 33 87 111 207 186 273 379 555 720 630
17 24 0 7 78 197 212 150 270 313 235 254 327 738 1007 1096 971 804 825 972 674 705 698 479 929 575 83 306 27 45 24 7 65 151 221 141 191 142 209 290 313 496 528
106 16 10 16 64 98 102 45 154 300 436 299 192 421 631 1063 1081 939 986 872 735 689 811 391 861 937 622 684 329 88 44 118 203 261 262 358 268 329 331 343 386 390 393

GFSSE_con_mucape_066.txt.gz
CAPE
0 585 1718 1840 1895 1733 1717 1597 1793 2390 1832 1732 1893 1925 1847 1679 1644 1682 1734 1765 2000 2450 2424 2036 2627 2571 2505 2247 2515 1999 2232 2328 2364 2343 2054 1995 2055 1910 1721 1354 1459 938 1389
42 772 1801 1958 2232 1751 1743 1611 1828 2350 1780 2019 2221 2042 1653 1733 1664 2147 1698 1439 1586 1905 2141 2358 2216 2343 2515 2481 2454 2527 2478 2430 2409 2248 2090 1778 1753 1712 1816 1833 1295 1432 1551
194 1075 1610 2486 2347 1909 1870 1593 1816 2062 1834 2187 2138 2210 2222 2109 1758 1943 1529 1498 2104 1656 1709 2038 2077 2333 2297 2293 2483 2563 2489 2442 2226 2196 2046 1750 1659 1732 1734 1372 580 629 1083
507 1362 1629 2229 2456 2261 1881 1759 2093 1985 1978 2380 2219 2193 2142 2024 2156 1999 2100 1553 1628 1614 1634 1759 2023 2142 2161 2405 2494 2480 2104 2353 2240 2026 1621 1894 1411 1489 1878 1550 1520 563 377
1007 1405 1600 2316 2260 2109 2041 1928 2088 2110 1922 2194 2081 1995 2042 2123 2093 2074 1915 1786 1549 1644 1648 1650 1879 1876 2047 2104 2041 2296 2143 2228 2099 1483 1608 1334 1376 1870 1846 1638 1812 990 933
1135 1401 2081 2149 2262 2251 2010 1989 2159 2128 2143 2118 1984 2103 1801 1780 1686 1658 1695 1691 1608 1474 1652 1800 1909 1922 1943 1860 1866 1916 2187 1963 1801 1821 2078 2080 1728 1200 1880 1858 1029 642 1455
969 1313 1731 2400 2183 2281 1963 1930 1888 2001 1945 1808 1865 1961 1929 1486 1691 1615 1622 1397 1520 1379 1465 1648 1563 1562 1584 1829 1993 2187 2150 2020 1527 1786 1817 1871 2102 2388 1978 1812 710 521 849
876 1316 1671 2024 1731 1664 1983 1952 1906 1973 1883 1789 1852 1729 1846 1572 1492 1566 1671 1662 1393 1377 1540 1404 1440 1722 1918 1993 2315 2262 2085 2011 1669 1718 1908 2156 2488 2399 2076 1224 1195 934 892
1081 1210 1408 1179 1582 2085 1938 1950 1673 1829 1830 1771 1705 1892 1522 1615 1474 1482 1650 1593 1291 1283 1612 1486 1477 1761 1975 2130 2171 2128 2014 1849 1405 1835 2006 2161 2222 2332 1053 1778 1918 1575 1131
1192 1343 1585 1595 1561 1589 1759 1936 1854 1730 1963 1994 1838 1472 1643 1680 1459 1569 1721 1817 1291 1410 1530 1506 1422 1814 1923 1922 2366 2000 1960 1710 1454 1806 2099 2271 2376 1375 1565 1195 982 1349 922
1125 1124 1311 1385 1430 1461 1618 1632 1814 1756 1577 1549 1474 1487 1361 1101 1027 1056 1532 1656 1500 1197 987 1141 1538 1717 1778 2166 2309 2022 1526 1140 1375 1636 1600 2078 2167 2088 2095 1906 1745 1218 1570
644 993 1177 1226 1286 1373 1447 1545 1387 1453 1165 1125 1189 997 909 807 770 1077 1459 1592 1583 1333 996 1250 1375 1591 1037 1250 2036 1702 1096 1080 1308 1548 1802 2339 2174 1787 1674 1735 1444 1444 1085
484 862 1051 1069 1220 1217 1291 1324 1293 1227 1146 1109 1006 752 699 686 808 948 1083 1192 1257 1290 480 661 870 399 541 857 1086 994 823 1012 1212 1561 1908 1970 1920 1292 1713 1351 1365 1273 1220
648 555 826 857 1030 981 1127 1187 1199 1164 950 861 743 670 647 439 495 548 640 497 529 341 441 47 206 450 519 633 694 657 787 951 1049 1430 2005 1956 1892 1853 1140 1333 1529 1110 923
364 557 702 596 752 776 966 1071 989 793 593 367 458 489 437 568 355 264 355 150 224 89 207 121 273 427 494 678 551 503 703 833 1029 1326 1656 1735 1756 1535 1342 1276 1287 1080 952
202 398 581 438 562 689 795 867 809 554 497 369 261 260 417 549 309 172 195 216 265 343 307 208 220 306 417 503 487 541 628 816 1085 1280 1456 1410 1468 1426 1480 1113 1164 882 976
80 170 265 319 290 519 589 585 559 487 551 646 584 439 336 478 287 226 379 284 311 188 339 522 362 326 387 431 381 325 465 712 882 1197 1247 1344 1453 1479 1536 1191 891 864 1097
0 58 0 283 205 264 374 367 238 269 526 674 632 210 249 189 515 327 223 354 353 440 268 298 280 477 329 345 340 365 402 433 652 945 1031 1092 1205 1480 1603 1760 1783 1125 899
0 18 62 248 207 214 200 253 301 399 509 481 586 403 165 291 532 430 166 299 296 368 287 107 241 361 220 286 451 436 533 543 489 425 621 765 753 1137 1023 1143 1743 1859 1047
22 41 58 192 196 239 153 252 363 313 249 332 444 413 259 469 527 422 338 214 360 139 82 80 186 214 171 188 201 388 572 647 680 639 581 466 450 385 380 400 475 607 1091
36 46 57 112 287 194 205 344 346 244 322 314 330 391 509 501 487 382 468 226 152 104 90 80 81 148 206 96 108 197 253 268 272 313 646 619 589 619 560 644 641 578 690
19 36 61 66 249 232 274 239 243 288 322 367 332 509 641 585 280 238 352 404 283 87 363 242 101 421 162 53 68 69 9 12 122 246 247 348 483 511 716 762 741 710 700
3 1 20 38 105 317 188 170 186 239 286 316 331 480 754 657 334 114 275 353 64 179 405 462 224 218 46 21 28 59 16 11 70 164 169 153 177 242 349 642 782 750 689
25 7 0 13 42 233 157 123 143 281 350 404 385 542 786 820 755 470 210 390 379 514 479 403 559 319 28 32 18 164 160 118 111 221 158 155 209 219 183 224 396 693 784
0 29 0 0 10 100 254 112 130 226 293 228 345 519 683 921 965 681 525 668 425 482 638 550 794 456 90 162 42 66 74 45 280 301 303 295 222 232 192 233 303 356 439
8 1 3 10 0 42 228 253 125 164 169 183 217 348 575 849 946 843 818 693 452 511 699 551 653 798 660 533 291 83 42 229 347 267 298 346 258 302 301 310 316 325 352

GFSSE_con_mucape_069.txt.gz
CAPE
248 890 1650 1856 1734 1722 1612 2106 2138 1824 1844 1941 1862 1745 1688 1655 1821 1901 1959 2066 2539 2348 2196 2803 2670 2604 2463 2336 2591 2439 2181 2247 2249 2000 2123 1908 1792 1661 1713 1319 1775 1298 1529
375 1116 1804 2159 1773 1742 1655 2228 2159 1888 2084 2181 2103 1915 1723 1682 1988 1864 1487 1697 2066 2137 2212 2523 2398 2241 2469 2418 2371 2247 2199 1830 2309 2135 1794 1760 1932 1776 1454 1790 1764 1596 1363
428 1211 1536 2600 1860 1754 1616 1936 1934 1847 2254 2211 2395 2405 1970 1853 1799 1472 1618 1925 1610 1813 2229 2165 2205 2273 2363 2353 2318 2242 2263 2277 2271 2088 1848 1448 1693 1751 646 751 1369 923 442
445 1154 1435 2620 2293 1788 1624 1891 1865 1792 2396 2298 2308 2227 2026 1892 1924 1824 1674 1892 1740 1773 2000 1954 2129 2221 2348 2365 2251 2395 2299 2373 2394 2036 1562 944 1266 1716 1711 1112 405 484 755
783 1126 1529 2211 2460 1823 1783 2083 1990 1819 2169 2103 2067 2015 1863 1997 1847 1645 1700 1629 1859 1601 1864 1995 2073 2245 2238 2081 2292 2322 2372 2346 2282 1667 1012 1816 1410 1742 1774 1454 870 1433 1452
845 1064 1923 2131 2103 2106 1887 2257 2010 2059 2180 2019 1945 1801 1866 1801 1770 1704 1634 1644 1587 1689 1990 2064 2064 2131 1827 1882 2074 2297 2197 2140 1692 1700 1877 1885 1220 1870 1803 657 1407 1691 1279
831 1143 1480 2446 2222 1991 2010 1948 2051 2111 1961 1914 2007 1879 1644 1807 1682 1515 1398 1422 1403 1721 1914 1770 1675 1711 1876 2053 2269 2136 2071 2104 2124 1969 2042 1811 2072 2136 1327 769 654 847 833
730 1073 1523 1955 2009 1900 1936 1840 1853 1834 1824 1973 1772 1920 1720 1455 1378 1162 1287 1414 1439 1733 1562 1693 1833 1843 2018 2209 2411 2258 2267 2056 1836 2096 1934 2160 2254 2345 1107 1280 1027 1086 1507
713 1111 1653 1456 1430 1713 1887 1847 1659 1839 1676 1674 1935 1651 1651 1484 1533 1593 1613 1328 1449 1712 1684 1739 1946 2070 2331 2318 2341 2185 2151 1930 1795 1907 1810 1985 2425 1291 1895 2022 1445 1026 1079
738 1049 869 841 1699 1643 1693 1635 1702 1666 1909 1641 1490 1571 1629 1527 1714 1616 1890 1829 1619 1659 1702 1560 1903 1979 2172 2274 2108 2073 2007 1647 1810 2094 2074 1995 2053 1652 1142 1075 1339 1005 1400
741 1038 1135 1501 1514 1725 1507 1739 1632 1805 1599 1704 1414 1824 1503 1326 1360 1442 1926 1595 1365 1275 1368 1644 1620 1785 2026 2350 2214 1941 1187 1463 1444 1412 1172 1934 1979 1869 2010 1837 1242 1543 1072
545 930 1097 1408 1356 1468 1432 1716 1573 1299 1346 1546 1672 1680 1375 1407 1645 1716 1763 1569 1224 1072 1370 1484 1863 1421 1404 2126 2113 1595 1068 1406 1379 1336 1637 2075 2031 1664 1656 1805 1377 1178 1153
266 599 1046 1397 1514 1318 1744 1366 1266 1209 1337 1519 1558 1524 1519 1269 1502 1673 1790 1472 1708 1055 767 1107 893 1094 1470 1744 1672 1594 1136 1050 1201 1240 1477 1763 1513 1565 1719 1144 1571 1164 1487
199 574 1055 1137 1469 1364 1493 1127 1359 1106 1310 1046 1286 1504 1456 827 1152 1415 1140 1405 1243 784 852 606 876 1471 1555 1512 1479 1498 1277 816 1006 1119 1454 1762 1929 1536 1156 1518 1349 1070 929
145 469 928 1068 1519 1480 1681 1502 1202 1089 1060 1091 1164 1256 1285 1126 1081 1117 1068 900 1070 875 795 764 1293 1271 1497 1463 1400 1394 1218 849 1013 986 1094 1739 1733 1531 1384 1259 1284 1106 930
232 401 680 901 1178 1221 1372 1488 1260 1026 981 918 858 1013 1343 1415 1353 1016 907 997 1124 1197 1043 1041 1088 1302 1409 1375 1434 1420 1011 796 1039 1135 1085 1304 1498 1474 1550 1167 1204 941 1101
214 341 594 636 865 1078 1310 1293 830 727 773 938 1184 1191 1125 1418 1407 989 1321 1101 1177 1184 1521 1539 1400 1315 1292 1173 1334 1172 1047 917 846 1141 1111 1220 1264 1490 1611 1496 1106 907 933
101 347 622 296 585 901 978 1133 660 787 1003 1171 1203 912 1029 1063 1437 1471 1263 1632 1256 1362 1204 1202 1189 1217 1200 1141 1206 1170 1125 1044 965 1146 1166 1163 1112 1069 1404 1623 2002 1626 1061
110 268 457 452 488 700 942 841 806 900 1055 1214 1218 1104 1077 941 1547 1340 1204 1350 1337 1162 795 858 1266 1254 1067 1020 923 1099 1338 1363 1318 962 1178 1201 1095 1160 1105 993 1351 1595 1438
73 126 206 448 639 737 738 883 701 833 956 978 1183 1201 1071 1100 1539 1384 1169 1393 1322 1017 908 1008 1403 1105 1051 947 565 909 1307 1407 1482 1490 1375 1251 1221 1179 1023 1156 1192 813 734
28 124 252 539 804 735 616 550 880 965 884 945 1040 1305 1268 1463 1502 1561 1738 1281 1181 940 1124 1192 1032 1292 995 871 776 685 827 1053 1031 1052 1179 1287 1298 1238 1271 1298 1528 1376 1063
113 189 382 589 865 892 608 741 894 1034 1012 1236 1302 1418 1391 1547 1434 1391 1577 1293 1306 737 1445 1356 1200 1175 993 561 574 706 335 402 513 734 902 918 1057 1067 1051 1276 1483 1578 1687
190 263 376 630 888 1042 729 785 867 969 1009 1212 1391 1384 1436 1551 776 1093 1488 1383 1246 959 1359 1622 1310 1465 707 552 817 627 366 453 827 765 972 717 878 856 987 1052 1255 1426 1647
205 290 421 573 780 1067 956 846 965 948 967 1049 1334 1239 1543 1730 1374 1024 1389 1485 1346 839 1584 1643 1652 1266 685 674 641 726 835 868 682 708 753 791 911 818 883 820 895 1060 1489
148 253 347 495 675 1048 1109 1054 979 1153 1008 1243 1328 1807 1754 2206 1834 1455 1320 1568 1607 1652 1794 1850 1982 797 892 653 548 773 857 673 1040 1104 813 937 984 884 878 915 936 1069 1284
188 253 269 421 766 890 1056 1016 1094 1178 1221 1119 1212 1502 1491 1757 2564 1897 1640 1857 1863 1786 1925 1811 2071 2161 1908 1714 1327 1125 660 915 1140 1149 1083 1378 1304 1236 1247 1133 1134 1109 1140

GFSSE_con_mucape_075.txt.gz
CAPE
1053 1060 1685 1408 1701 1889 1919 1870 1891 1864 1840 1755 1659 1651 1961 1902 1961 2122 2355 2383 2659 2774 2518 2598 2373 2562 2456 2277 2295 2314 2300 2214 2487 2196 1849 1975 1802 1556 1428 1332 1860 1292 1622
858 1004 2007 2063 1790 2071 1774 1836 1960 1980 1976 1879 1694 1730 2095 1773 1464 1850 2293 2235 2396 2571 2522 2516 2648 2428 2460 2334 2310 2239 2228 2209 2806 2298 1746 1854 1742 1729 1414 1057 1139 1300 1612
838 899 1359 2239 1740 2382 1808 1914 2114 2309 2119 2023 1834 2108 1817 1602 1996 1737 1704 2245 2348 2489 2403 2534 2617 2480 2444 2301 2371 2237 2016 2007 2160 2237 1482 22 630 1169 456 492 716 1276 1588
353 445 640 2188 1866 2059 1791 2061 2129 1832 1860 1892 2049 1923 2083 1964 2099 2126 1867 2097 2148 2261 2414 2404 2457 2333 2443 2301 2460 2394 2022 1853 1621 2046 1335 816 180 530 1182 1466 1177 1400 1523
248 506 1285 2196 1825 2109 1797 2050 1916 2076 1916 2022 2090 2071 1893 1790 1730 1934 1970 1764 2141 2225 2318 2291 2284 2302 2291 2402 2426 2308 2081 1561 1377 1053 1192 1290 246 1404 1469 1403 1177 1518 1528
734 903 1623 2033 1694 1977 2111 1838 2151 1953 1872 1877 2032 1871 1825 1789 1844 1863 1953 1849 2127 2227 2185 2093 1967 2109 2404 2282 2221 2151 1970 1816 1598 711 1228 1083 275 1523 1647 954 1560 1592 1179
829 1166 1700 2376 1900 2008 1948 1910 1878 1958 1866 1941 1839 1794 1750 1765 1697 1653 1839 1966 2108 2071 2034 2065 1781 1903 2360 2119 2128 2207 2080 2181 1725 1924 1342 861 704 1243 846 1558 1571 1574 1138
432 954 1398 1844 1903 1953 1698 1801 1814 1811 1845 1733 1630 1689 1521 1542 1788 1667 1746 1911 1934 2071 2100 1969 2073 2144 2276 2208 2276 2203 2124 2270 1755 1901 1258 580 1818 1481 1026 1392 1530 1260 1062
787 682 1169 1554 1790 1778 1765 1694 1745 1858 1821 1777 1651 1642 1565 1711 1442 1489 1907 1873 1663 1741 1670 1649 1770 2379 2377 2345 2308 2158 1961 2702 1704 1805 684 1321 1874 1830 1557 928 1572 1475 1274
682 547 1010 926 719 1323 1547 1580 1709 1786 1644 1739 1637 1656 1764 1661 1464 1902 2214 1710 1825 1755 1945 2111 2263 2215 2199 2101 1866 1734 2002 2277 1507 960 951 1540 1991 1043 1088 1575 1398 821 1092
615 462 149 429 1170 1785 1510 1607 1388 1582 1548 1608 1322 1315 1490 1512 1339 1272 1969 1800 1925 1873 1946 2237 2399 2302 2201 1889 1785 1887 2178 1265 758 1166 1250 1946 2181 1706 1224 967 928 927 904
394 86 324 863 950 1318 724 1692 1127 981 1291 1196 1211 1826 1291 1376 1154 1248 1689 1786 1865 1940 1834 1875 2314 2472 2258 1269 1230 1964 1187 634 907 1016 1424 2148 1912 1521 1551 1388 1354 1499 1008
157 115 813 946 1643 1055 850 519 499 599 380 555 1428 1400 1368 800 926 786 1479 1489 1829 1876 1606 1511 2030 2024 2060 1041 482 336 542 535 691 829 1451 1796 1444 1016 1314 1068 896 911 1059
153 155 516 622 1619 1396 569 411 1061 756 671 997 1411 1509 944 623 908 1601 1479 1185 1884 1801 1377 1175 1495 2244 1265 1051 719 511 521 418 523 556 1805 2000 1417 1182 1845 1115 824 810 1021
73 146 523 770 2175 1842 512 673 1260 462 750 469 1096 1737 1685 1311 1623 1939 1770 1250 1625 1328 1228 1590 2151 2099 1552 1529 1114 953 841 760 616 674 458 1819 1361 1210 986 1055 837 854 765
22 177 506 861 1549 1143 960 1217 1756 1162 419 1111 1129 1381 1671 1152 2317 1154 1206 1384 1582 2081 2407 2220 1979 2124 1595 1196 1521 1350 1654 1199 1264 1643 1093 989 1461 1400 1202 887 842 733 901
30 235 407 774 1017 1132 865 820 1409 1190 808 1033 1465 1417 1259 1793 1591 1320 948 1600 1488 1862 1706 1620 1414 1692 1453 1302 1736 1474 976 1614 1087 1568 1293 1563 1177 1373 1309 1064 901 816 766
12 255 338 335 744 682 761 809 1448 1046 1120 1312 1650 1629 1486 1325 1544 2039 1182 1485 1079 1653 1590 2219 1805 1711 2043 1433 2014 1599 871 822 969 905 739 1314 1747 1524 1523 1569 1555 1439 1186
31 293 351 426 662 582 868 827 1683 1607 1410 1342 1885 1522 1595 1498 1503 1488 1335 1418 2342 2782 2160 1227 1595 1579 1382 1365 938 1538 1193 1041 1211 626 777 877 601 901 1352 1741 1536 1343 1337
217 224 408 427 854 833 843 997 1039 716 1416 2237 2078 1963 1585 1804 1355 1483 1374 1350 2517 1844 1273 1712 2195 1029 1514 1445 506 730 1091 546 392 572 746 754 839 957 708 912 1628 1293 1685
248 179 417 544 1267 931 901 715 811 1316 1998 1943 2205 1670 1527 1829 1444 1635 1185 1373 2339 1852 2044 1301 1179 1358 747 709 1648 589 442 507 457 238 392 447 584 779 646 899 1170 1122 1462
341 222 335 583 1299 1036 987 1677 728 1290 1503 1618 2032 1573 1499 1555 1633 1583 2253 1628 1915 1275 1581 1227 2122 2475 853 790 2019 1291 586 430 283 371 307 288 582 501 566 823 775 1209 1447
343 141 314 675 1308 1340 1219 1035 1103 1230 1921 1747 1839 1300 1531 1616 1528 1671 1993 2661 1267 2303 1076 1541 1261 1906 1904 221 1431 1093 1378 904 657 592 462 397 687 522 498 599 746 1074 1471
223 1 258 586 1193 1153 1332 1700 2375 1308 1470 766 1678 2034 1592 1752 1614 1682 1646 1733 1720 1616 2322 1126 763 2415 1519 584 250 532 1509 1764 2286 232 294 326 376 526 512 565 730 826 1336
184 181 447 1106 1809 2043 1862 2259 1649 2097 1063 1107 1812 2107 2327 2022 1712 1574 1893 1900 2025 1952 1732 2123 1956 1887 540 709 506 614 1209 665 1095 1359 303 321 386 416 534 858 745 839 1448
213 217 593 1497 2089 1817 1550 1737 1945 1899 2156 2133 1227 1564 1389 1236 1545 1695 1781 1984 2079 2515 2060 1516 1767 1756 2153 1970 1449 1176 1492 1261 1753 588 424 1053 672 780 762 916 1129 1184 1468

GFSSE_con_mucape_078.txt.gz
CAPE
884 928 1964 2100 2001 2166 2036 2118 2214 2065 1851 1623 1614 1788 1656 1735 2147 2604 2804 3095 3277 3169 3008 2737 2952 2374 2322 2242 2338 2213 2046 2562 2501 2323 1990 1831 1437 1530 1745 1898 1922 1161 1654
866 937 2238 2372 2326 2019 2111 2020 1810 1891 1808 1668 1812 2196 1524 1391 1906 2378 2536 2554 3066 2907 2524 2570 2640 2433 2371 2298 2073 2053 2070 2462 2721 2676 2049 1896 1294 898 1472 1469 1655 1502 942
832 1100 1587 2436 2332 1780 2036 2137 2227 2120 1985 1821 2162 2032 1721 2018 1553 1932 2326 2312 2534 2449 2478 2547 2638 2408 2365 2465 2144 1902 1904 2239 2325 2273 1105 484 196 673 782 1380 1608 1500 1058
703 877 844 2402 2607 1825 2196 2238 2178 1999 1805 1968 1948 1978 2188 2164 2053 1983 2141 2212 2494 2471 2424 2454 2533 2486 2371 2350 2033 1831 1855 1778 1494 1705 610 29 901 1551 1542 1552 1469 1453 990
217 335 1149 2402 2420 1769 2150 1740 1989 1855 1843 1954 2075 1906 1847 2328 2136 1792 1950 2142 2306 2318 2320 2168 2517 2366 2258 2198 2007 1936 1710 2260 2443 1200 391 276 1113 1325 1324 1654 1481 1367 1288
408 426 1876 2164 2107 1922 2015 2004 1961 1959 1986 2099 1991 1914 1813 1733 2003 1891 2031 2058 2165 2231 2076 2119 2210 2345 2155 2094 2106 2032 2414 2458 2242 872 286 864 1339 1214 1445 1656 1205 1521 1227
367 526 1342 2464 2469 2356 1927 1849 1913 1911 1983 1964 2061 1855 1838 1790 1811 2085 2024 2150 2207 2133 1964 2016 2211 2198 2036 1992 2193 2289 2296 3036 1629 833 522 634 985 1774 1679 1612 1390 1456 1236
424 400 1007 2109 2056 1864 1649 1880 1893 1824 1772 1702 2082 1618 1666 1695 2065 1926 1902 1985 2166 2156 2138 2124 2265 2239 2090 2040 2199 2168 2249 2581 1408 820 1253 1237 1882 1426 1578 1443 1015 1319 863
759 1038 1202 1236 1796 1764 1764 1798 1791 1918 1816 1644 1722 1575 1994 1995 1963 1891 1885 2056 1923 1870 1727 1848 2266 2247 2225 2256 2230 2137 2431 3236 1689 1025 1223 1433 1778 1574 1308 1562 1337 1508 1057
674 668 986 1102 935 1072 1453 1696 1731 1679 1720 1655 1621 1594 2113 2131 1864 1487 2077 2412 1855 1822 1944 2177 2264 2169 2072 1998 1986 1920 2215 2747 788 1059 955 1507 1611 1405 1757 777 931 827 1542
653 716 406 917 1201 1813 1625 1620 1704 1546 1691 1595 1484 1120 1757 1578 1306 1421 2099 2375 2044 2066 2124 2200 2164 2080 2001 1908 1998 2041 2209 1743 1110 1259 1433 2225 2160 1201 842 876 888 696 345
297 260 560 1210 1248 1213 387 1565 1381 1199 1159 1535 1510 689 1258 1840 1463 1530 1991 2333 1933 1999 2240 2414 2337 2055 1877 1337 1808 2208 2142 889 1099 1118 1549 2395 2094 1417 1413 1298 1609 1180 557
175 792 933 1701 1354 1217 1412 1683 1242 1241 1080 1692 1891 1818 1494 1206 1315 1449 1897 1677 1936 2052 1441 2186 2522 2152 1888 2123 1382 1165 640 612 583 746 1886 2288 1577 1111 1131 831 802 917 717
629 672 762 1319 586 749 1321 897 595 1190 978 1182 1405 1787 2253 2157 1268 868 2067 1792 2368 1063 680 1153 2224 2343 2005 1451 838 834 575 681 896 1246 1765 1807 1371 1444 1567 764 692 801 678
370 635 1184 1309 2040 2436 796 1780 731 732 891 1064 1579 2005 1974 846 2242 1489 888 1946 724 1002 951 1728 1599 2461 1285 1375 1448 1615 923 1182 539 921 1662 2240 1797 1224 914 876 775 731 749
55 503 1375 1301 1585 1786 1398 347 909 287 1006 1166 1604 2296 1856 947 2568 2178 988 2290 2171 738 2209 1179 2417 1468 1621 1557 1537 1614 1446 1419 1914 973 965 1706 1896 1783 1111 904 696 641 843
47 807 1121 1355 1373 1807 2027 1743 352 1488 1190 506 1748 1291 1165 1858 2016 1133 2187 1079 1533 3157 3033 1843 2495 2892 1560 1465 1956 2119 1463 1681 1234 1676 1051 1002 1401 2095 1661 1241 870 604 635
18 837 774 638 727 1640 1691 2147 1965 1505 939 1374 1848 1907 977 1561 1737 232 1774 1336 1738 2710 2568 597 2044 775 1991 703 1844 2176 1472 1604 1432 1737 1522 1449 1309 1117 1781 1928 1703 1324 1080
257 821 592 846 882 1288 2117 1930 1407 1086 971 1734 741 1319 2459 2506 2457 2052 1545 817 1663 2228 2272 726 1743 1872 2147 1754 1373 1781 1400 1435 1391 828 1094 1438 1423 1304 1310 2096 2138 1918 1410
404 742 820 1122 1511 2044 1470 2385 1620 1559 365 629 1009 704 1881 2294 2107 2320 1296 3049 2938 2769 1592 1696 2085 1289 793 615 576 834 1296 1361 1563 1298 1134 1120 1202 1245 1296 1349 1595 1331 1999
302 570 1045 1960 2061 1724 1406 1410 909 1518 1737 1702 2400 1762 1370 904 2597 2443 2713 2563 2123 1362 540 3235 2745 1972 2362 1429 2654 1765 1613 826 737 1295 1070 931 1213 1374 1290 1375 2277 1728 1191
357 582 1314 1913 2257 2058 1462 2134 867 2239 2082 1388 1567 2313 1864 1969 2577 2248 1774 2391 1888 2173 2891 2667 2402 2019 2279 1220 2001 1888 794 1293 858 490 1124 945 1163 898 1152 1497 1412 1747 2145
254 566 1150 1991 2119 1890 2481 2303 1545 317 650 324 443 1943 2379 2413 2442 2450 2642 2915 766 2630 2762 2656 2100 1106 2627 1241 1485 2405 1295 1261 1675 859 840 908 871 1464 863 1024 1732 1923 2034
159 588 1125 1741 2005 1578 2482 1937 2531 1994 1304 2055 2114 2200 2398 2321 2302 1899 2888 3026 2419 875 1025 2980 2145 1943 1904 2165 1524 1281 1816 2191 2504 1311 1286 816 1586 675 1214 1476 1198 1833 2060
182 270 897 1292 2287 1660 2181 2558 2283 2063 1655 1101 1447 1016 1877 2682 2302 1805 2612 3006 2021 916 533 1839 2729 2883 2918 1990 519 2419 2079 2598 2514 3019 1042 978 1360 1017 1137 1489 1582 1343 2074
187 11 725 1304 2315 2536 1963 2358 2673 1991 492 234 1682 788 2379 2073 2487 2122 2057 2982 2319 1013 1445 1109 2674 2303 3361 3609 2778 2657 2627 1954 2014 2090 1746 1405 1594 1640 1425 1297 1439 2113 2300

GFSSE_con_mucape_081.txt.gz
CAPE
621 1102 2094 2044 1940 2066 2058 1889 1647 1553 1530 1575 1680 1467 1587 2388 2533 3099 3136 2773 2573 2691 2845 2614 2586 2621 2235 2133 2095 2131 2166 2914 2717 1920 1464 1175 1626 2178 2135 1522 829 770 1702
671 1116 2318 2480 1819 1735 1670 1664 1808 1755 1589 2116 2119 1363 1337 2031 2252 2332 2633 2537 2402 2928 2548 2432 2391 2162 2077 2055 2293 2135 2067 2614 2589 2275 1278 841 637 1418 1812 1523 924 1432 1572
776 1279 1701 2492 1899 1669 2033 2375 2077 1900 1828 1959 1999 1870 1944 1510 1962 2314 2281 2301 2387 2515 2549 2476 2332 2298 2094 1920 1930 1761 1911 2254 2345 1301 453 522 639 1492 1583 1594 1036 1566 1512
903 1239 1718 2356 2289 2226 2218 2287 2003 1809 1908 1846 1983 2097 2111 1866 2149 2047 2182 2231 2156 2304 2332 2492 2423 2145 2003 1979 1861 1617 1690 1995 1608 821 721 843 880 1659 1599 1410 1289 907 998
751 1091 1783 2592 2376 2035 1733 1924 1671 1664 1819 1934 1757 1774 1945 1994 1747 2036 2145 2101 2350 2304 2177 2414 2345 2087 2014 2009 1861 2089 1830 2075 1716 844 759 653 1003 1473 1510 1201 1417 909 1355
359 1248 2241 2399 1786 1849 1927 1813 1862 1884 1986 1804 1832 1662 1568 1922 1800 2015 2093 2230 2215 2056 2250 2377 2257 2067 1991 2067 2084 2631 2865 2301 505 465 981 1228 826 1727 1330 1373 1595 641 1107
607 1103 1760 2595 2124 1929 1815 1743 1832 1897 1843 1695 1836 1745 1738 1915 1838 2042 2169 2112 2055 2085 2207 2395 1923 1956 2117 2200 2088 2957 2669 1495 279 322 422 683 1310 2059 1589 1215 1524 742 677
577 1069 1305 2034 2258 1773 1834 1851 1847 1719 1593 1742 1593 1489 1580 1817 1932 1938 1935 2125 2104 2047 2197 2264 1959 1950 2135 2120 2249 2371 2576 1824 1038 882 907 976 1676 1959 1131 1260 898 1289 826
519 904 1485 1459 1401 1657 1839 1723 1759 1640 1677 1645 1531 1727 1704 1737 1912 1946 2074 2147 1999 2266 2326 2245 2149 2049 2130 2198 2281 2877 2533 1604 1102 986 1017 1253 1850 1889 1417 1578 1587 988 770
629 783 1049 1342 1135 1298 1380 1669 1775 1694 1629 1583 1561 1471 1668 1727 1682 1777 2572 2560 1840 1845 2060 2247 2127 2037 2081 2144 2164 2509 2671 1599 683 636 1310 1385 2102 1901 737 1017 840 1547 635
596 734 582 735 755 1089 1170 1310 1446 1648 1495 1586 1238 1124 1586 972 1053 1377 2236 2479 1933 1960 1991 1983 1882 1838 1814 1829 2445 2738 2395 1035 1077 1172 1382 1893 1834 785 783 857 545 318 493
421 386 519 677 853 829 1074 1206 1225 1123 738 532 263 714 916 802 816 1388 1907 2302 2100 2120 2214 2068 1980 1833 1839 1067 1385 2549 1609 1046 1078 1331 1645 2358 1983 1372 1310 1626 1198 590 385
235 580 460 415 676 492 641 918 844 737 777 515 436 558 666 1060 1412 1471 1666 1773 1609 1765 1446 1730 1558 1605 1639 1457 1403 1338 1126 867 606 1067 1878 2237 1835 1228 846 888 956 826 791
274 634 698 687 594 613 809 973 572 692 668 690 818 974 851 804 829 788 1092 1237 1430 868 763 1066 1295 1840 1758 1758 1482 586 491 549 703 1136 1749 1845 1736 1485 879 684 777 889 589
306 648 312 0 239 480 573 784 599 676 417 705 646 972 637 638 375 675 807 948 1369 572 772 1003 1238 1619 794 747 793 600 574 770 875 1060 1134 1509 1927 2039 1019 874 783 651 771
419 445 346 604 786 404 112 208 253 463 306 591 1090 683 818 817 673 176 586 1059 768 800 958 992 1349 1017 909 542 712 688 687 595 674 1076 1429 1469 2010 1710 1275 889 683 758 942
433 514 568 597 654 509 129 37 92 469 501 673 794 277 751 1116 923 952 746 1021 841 1068 662 826 1131 1560 869 1011 809 696 709 736 507 812 961 987 1377 1916 1556 922 1028 774 635
447 348 436 513 685 474 624 35 688 364 551 817 1072 285 480 1105 368 452 1097 645 1137 1377 523 741 856 819 723 734 905 930 589 821 590 808 900 1098 1182 987 1816 1816 1702 1451 987
245 252 245 0 492 174 457 874 373 556 646 428 570 726 1111 1346 921 1034 1473 720 1431 1409 1216 583 896 1052 1193 947 881 966 770 776 605 953 953 1060 1120 1122 775 1621 2227 2072 1573
53 26 284 119 516 114 358 444 641 448 316 642 402 335 1045 1497 1349 1129 1059 1038 1237 1186 1004 691 944 755 433 657 549 579 626 679 612 597 592 1069 1112 1115 1009 805 1551 1430 2027
144 27 508 300 668 90 404 767 680 601 121 427 499 311 1009 708 1404 1315 925 1270 1029 866 708 718 1337 732 1273 503 836 648 885 585 820 588 482 644 767 1140 1338 848 1023 1043 1017
63 42 543 629 525 152 136 698 543 425 767 651 784 675 913 502 1460 1324 1061 846 437 858 1474 1434 1144 1285 1147 572 516 980 522 249 147 230 598 702 499 778 862 951 1436 1316 1229
80 142 584 506 776 383 272 757 543 621 501 339 414 699 1122 1057 1281 1351 629 1159 718 1409 1301 1124 764 526 1342 147 270 993 853 1033 355 103 326 336 253 529 726 918 756 1091 1325
77 175 512 747 779 519 1054 675 521 388 430 377 123 700 1269 1389 1140 1440 1607 1137 747 981 790 1536 1639 1339 1409 1050 477 913 882 975 1057 180 330 158 430 517 336 450 979 891 1148
80 211 291 1025 743 121 691 999 572 339 683 629 934 1031 1144 1107 1321 1253 1153 1252 858 436 543 709 1366 1368 1641 1568 839 1553 790 1701 1612 1533 153 247 354 375 483 674 664 962 1287
78 180 255 1111 694 346 463 1056 894 364 311 346 647 548 969 1269 1444 1298 1420 1169 1117 845 785 710 1093 1225 1105 1613 2084 1028 1744 658 969 1448 632 331 282 428 606 680 821 1085 1480

GFSSE_con_mucape_084.txt.gz
CAPE
504 1252 2224 2073 2127 2213 2041 1647 1555 1530 1642 1684 1445 2185 2339 2489 2555 2536 2652 2531 2617 2681 2475 2331 2551 2289 1185 1100 1856 2169 2052 1814 1914 1518 1463 1643 1776 1672 846 1065 1522 1295 1463
689 1393 2214 2247 1991 1661 1615 1774 1668 1987 2372 1378 1520 1840 2110 2204 2335 2350 2498 2548 2459 2775 2454 2131 2154 2152 2110 1870 1964 1970 2046 2267 2423 1227 1081 1403 1698 1519 1002 1702 1637 1367 1016
843 1457 1793 2306 1721 1884 2226 2164 1888 2191 1928 1951 2122 1695 1949 1953 2222 2387 2385 2430 2430 2616 2466 2237 2110 2076 2017 1781 1898 1635 2019 1896 1057 662 1061 1005 1080 1381 937 1491 1667 1488 1579
1040 1455 1647 2162 2333 2332 2172 2160 1948 1980 2000 2199 2285 2096 1860 2166 2186 2300 2320 2307 2349 2607 2501 2258 2146 2092 1689 1497 1575 1669 2091 2045 1394 1253 711 1004 1088 1561 1628 949 951 1487 1637
1175 1510 1393 2217 2575 1987 2071 1828 1798 1948 1965 1843 1929 2118 1961 2016 2162 2267 2171 2380 2348 2369 2821 2327 2218 2071 1898 1729 1496 1562 2477 1951 1490 746 860 1057 1166 1306 1457 886 1262 1184 1442
1235 1556 1975 1971 1813 1973 1764 1739 1903 1985 1904 1909 1769 1917 1823 2098 2197 2229 2386 2344 2347 2460 2488 2163 2184 1987 2080 1894 2595 2478 1854 1840 1281 811 710 1283 1050 1287 1659 901 724 1051 721
1283 1600 1529 2363 1954 1954 1744 1803 1876 1831 1717 1814 1850 1838 1927 1863 2155 2256 2205 2147 2263 2439 2395 2020 2034 2134 1805 2768 2864 2038 1199 902 445 563 994 1211 1512 1629 1677 960 664 543 538
1161 1576 1492 1829 1807 1794 1705 1941 1738 1682 1767 1685 1573 1734 1976 2050 2136 2150 2163 2162 2241 2428 2362 1959 2105 2256 2000 2379 2599 2567 1579 788 599 706 932 1296 1983 1261 1320 924 1283 678 680
1006 1215 1518 1436 1505 1771 1760 1663 1587 1737 1577 1553 1576 1571 1830 1872 1961 2036 2249 2314 2255 2400 2240 1998 2009 2100 2263 2519 3440 2808 1802 1413 771 841 845 837 2285 1440 1573 1223 822 656 738
841 1141 1132 1102 1272 1377 1432 1736 1716 1644 1515 1502 1343 1698 1769 1811 1864 2065 2578 2522 2233 2259 2121 2035 2031 2133 2233 2425 2798 3080 2076 1388 892 1120 1339 1390 2156 799 1138 954 1002 622 625
651 958 1098 1037 1164 1165 1237 1271 1612 1563 1475 1354 1362 1751 1516 1186 1394 1473 2248 2094 1889 1995 2038 1994 1958 1963 1928 1901 2356 2705 1453 766 838 743 816 1916 1297 603 759 486 269 484 586
510 622 787 668 875 941 1139 1116 1097 887 771 650 796 861 712 847 1102 1630 1951 2031 1981 1931 1873 1877 1706 1700 1738 1034 1446 2037 970 857 1053 1204 1463 1975 1548 1148 1284 913 406 345 365
463 338 432 516 699 765 1003 887 869 524 408 335 535 778 610 739 1324 1460 1492 1690 1676 1692 1386 1517 1109 1225 1428 1267 815 1115 1240 796 1070 1316 1837 1889 2170 907 1408 1365 1269 796 842
352 343 445 507 423 428 487 732 697 673 582 355 435 535 733 843 830 876 915 1148 1319 916 935 943 981 1390 1667 1725 1402 1113 921 437 538 1162 1655 1799 1895 851 741 711 881 719 589
311 373 374 406 372 317 596 458 598 623 598 669 762 667 647 450 461 561 901 958 1194 419 759 982 1167 1322 816 591 620 966 661 543 631 941 1139 1133 1986 1649 796 726 714 638 727
421 435 341 547 295 578 642 594 352 453 397 481 633 686 412 331 373 580 648 833 959 633 633 979 1222 933 581 596 618 592 578 430 630 784 720 887 1631 1708 1066 910 809 855 1081
447 465 132 409 475 303 512 504 364 305 359 747 487 548 704 601 360 441 640 797 541 870 1005 849 1103 888 748 574 444 472 474 397 431 773 1014 925 1253 1405 1035 1032 927 825 738
259 190 531 356 97 63 84 243 276 372 575 607 187 550 624 925 639 670 792 816 971 1285 765 762 890 832 648 647 635 623 563 454 371 652 754 833 898 960 1462 1434 1655 1391 944
196 254 535 394 234 204 45 396 251 546 616 813 607 513 646 778 220 552 892 719 1278 1200 528 605 704 800 1010 690 617 716 585 558 416 516 680 806 933 735 487 1145 2217 2129 1554
199 212 372 291 158 516 587 370 423 419 415 450 494 643 881 1252 1254 1139 930 842 1281 975 1011 815 882 833 580 634 577 666 654 636 551 558 615 880 834 968 829 719 911 1586 2113
173 144 130 174 68 233 428 381 301 256 382 604 368 173 525 936 1152 596 831 807 812 733 958 793 564 596 810 517 471 498 748 501 517 543 479 811 884 864 966 916 825 962 1033
234 231 214 180 54 0 307 540 526 404 314 444 527 509 529 488 1134 1159 998 834 691 679 749 1113 959 970 841 648 570 616 296 159 95 387 515 470 604 946 999 1162 870 1013 1192
67 292 258 323 105 7 68 636 599 491 455 544 626 715 836 722 1106 908 759 786 436 1166 1016 949 495 674 770 270 460 689 656 481 194 253 484 474 651 574 747 913 861 1161 1260
60 352 305 389 161 103 345 366 553 501 411 436 436 624 1083 993 977 878 820 893 682 874 699 1147 1416 1123 917 783 496 763 762 1013 440 35 314 434 166 564 491 706 733 1109 1228
122 302 259 344 306 328 792 609 472 470 442 464 447 434 1154 1023 1043 1162 975 718 648 571 646 773 1047 1002 1399 1168 952 1378 1382 1601 1204 1284 154 224 351 419 510 619 753 1025 1358
134 211 530 324 329 336 638 750 709 453 403 659 626 513 942 1030 1162 1305 1066 884 778 512 720 501 1058 926 875 1156 1065 1296 1189 937 1222 1271 1025 219 213 408 634 623 753 1037 1473

GFSSE_con_mucape_087.txt.gz
CAPE
446 1326 1977 1877 1907 2003 1804 1544 1599 1721 1653 1804 2379 2084 2566 2510 2399 2421 2440 2436 2400 2381 2399 2073 999 980 1158 1328 1576 1684 1510 1560 1563 1627 1677 1718 803 1110 1614 1580 1366 688 1524
815 1524 1731 1979 2016 1529 1531 1584 1621 2189 1429 1532 2385 2243 2307 2345 2412 2336 2301 2338 2206 2578 2152 1982 2096 1308 2057 2032 1848 1932 1882 1762 1836 1419 1447 1684 1070 1611 1670 1606 873 772 1607
1184 1588 1831 2199 1491 1844 2053 1852 1910 1672 1617 1560 1982 2096 2188 2314 2400 2278 2326 2181 2302 2659 2058 2159 1913 1875 2020 1730 1700 1973 1572 1128 989 1124 1541 945 631 1269 1609 1604 1612 1119 1302
1294 1493 1686 2178 2268 2058 2024 1760 1872 1827 1891 2052 1665 1982 2028 2271 2455 2335 2315 2388 2414 2556 2267 2100 1714 1555 1657 1613 1430 1258 1000 1251 1289 1367 1013 1062 1262 1251 911 1368 1594 1634 1516
1360 1397 1351 2008 2198 1887 1885 1878 1918 1966 1892 1893 1951 1924 2102 2195 2265 2339 2468 2576 2586 2428 2217 2130 1846 1569 1536 1330 1242 1342 1242 1549 1373 1038 1049 1161 950 1097 1054 1434 1199 1506 1687
1305 1097 2015 1991 2006 1933 1804 1843 1965 1745 1797 1749 1808 1762 2015 2176 2257 2391 2394 2389 2440 2274 2242 2267 2110 2012 1885 1751 1675 1826 1868 1573 1250 1137 1271 1119 1250 1404 664 1013 674 891 998
1287 1366 1745 2133 2023 1940 1892 1849 1848 1772 1689 1762 1769 1939 2070 2218 2272 2376 2232 2465 2492 2346 2257 2189 2000 1993 2131 2386 1827 1982 1728 1369 762 1115 1182 1237 1132 1757 653 581 575 609 1014
1420 1352 1725 2026 1959 1769 1871 1977 1765 1878 1899 1845 1868 1924 2047 2200 2260 2210 2300 2452 2457 2155 2056 2247 1946 2129 2371 2225 1891 1213 1181 890 795 1000 1328 1105 1569 1128 1283 777 636 545 548
1507 1312 1441 1583 1634 1864 1956 1561 1705 1711 1536 1606 1742 1930 2029 2189 2115 2269 2215 2100 2440 2072 2074 2270 2158 2136 2512 2373 2159 1634 988 1122 518 889 956 1328 2000 1481 1177 917 689 715 713
1294 1409 1309 1392 1501 1408 1368 1669 1689 1522 1645 1622 1666 1900 2071 1998 2194 2362 2078 2521 2505 2157 2019 2014 2040 1937 2210 2584 2174 2044 1704 1395 914 921 1049 1481 1531 1597 1249 905 660 650 621
1064 1146 1040 1217 1338 1302 1414 1464 1479 1509 1386 1475 1714 2044 1591 1607 1511 1782 2089 2079 2074 2037 1987 2023 2056 2083 2183 2515 2384 2200 1253 881 1018 770 1465 1592 1150 720 523 412 501 634 621
788 906 954 996 1123 1179 1224 1340 1094 1252 874 1131 1292 875 1152 1166 1614 1893 1896 1969 1908 1944 1865 1802 1749 1853 1485 1482 1898 1503 838 676 649 705 1037 1429 1211 1048 748 371 358 368 394
531 769 843 804 863 987 1101 975 660 486 485 687 793 754 642 1072 1610 1748 1782 1599 1564 1476 1475 1337 1473 1280 1136 884 1146 1370 1033 760 883 1156 1435 2021 1213 1381 1753 1324 836 755 709
372 372 502 500 651 788 779 746 567 490 376 538 607 627 664 919 911 1045 1026 1148 1151 890 781 885 1032 1072 1401 1306 1062 978 1006 537 651 1001 1288 1490 1767 756 739 724 793 601 601
299 324 423 523 428 363 545 540 610 652 448 603 492 596 661 516 469 631 883 945 1132 504 694 935 1166 830 620 777 1417 1090 908 642 583 834 1084 1200 1471 1239 780 664 728 790 741
274 357 460 386 378 214 565 517 629 607 641 567 808 704 498 214 326 649 757 822 958 961 675 923 1046 783 530 455 1020 1026 662 404 606 682 765 695 1363 1809 1323 935 853 838 987
316 380 427 363 457 437 458 425 409 479 484 582 513 516 423 496 423 572 712 827 676 807 995 891 1075 628 480 524 456 536 377 290 408 613 713 717 821 1386 1189 1096 1070 943 905
334 388 341 459 336 445 520 602 428 327 572 582 500 575 663 682 606 564 745 745 943 1107 761 761 701 712 532 484 491 501 477 395 304 504 620 717 475 688 1008 1527 1467 1411 1155
324 370 344 428 272 166 261 305 257 346 493 483 96 556 588 781 562 731 748 840 1019 1166 555 622 695 715 836 591 582 626 578 522 420 393 449 640 752 644 389 709 2000 2255 1665
323 186 422 125 64 104 373 259 394 470 565 590 492 624 689 953 355 753 1009 703 1256 985 915 678 691 697 602 592 609 526 562 604 564 507 450 494 691 734 815 663 737 939 2049
231 360 227 11 143 114 377 317 329 390 420 389 441 513 705 880 979 714 648 912 817 819 853 668 595 628 710 536 452 590 409 586 535 517 541 504 629 782 750 921 860 809 1004
166 293 306 183 328 279 217 244 261 219 299 449 455 352 337 652 705 739 628 594 697 677 711 809 1098 786 659 570 474 651 246 170 234 300 488 611 483 714 806 897 979 1159 1219
172 221 277 144 136 295 304 339 388 384 306 221 490 618 521 692 602 999 766 764 638 961 699 921 592 520 428 501 536 331 664 372 214 240 387 409 479 577 628 825 977 1142 1457
175 139 158 117 38 119 263 429 424 361 413 332 453 474 616 891 923 761 606 978 498 677 790 937 1432 1015 698 807 667 720 732 1092 458 56 227 431 510 485 531 635 873 1139 1299
161 184 121 132 64 72 189 334 374 402 358 303 358 319 701 967 867 888 548 672 606 621 654 788 887 945 1088 945 1042 1186 1415 1238 1237 1220 351 188 203 335 444 562 806 1095 1429
112 233 222 175 137 103 218 206 255 405 464 431 421 221 592 984 943 853 869 549 651 572 453 540 1162 775 711 1259 716 1091 1073 1124 1256 1195 1124 293 237 323 619 620 698 1076 1432

GFSSE_con_mucape_090.txt.gz
CAPE
428 953 2161 2083 1783 2101 1804 1788 1946 1894 1981 2178 2214 2323 2353 2418 2221 2269 2255 2299 2229 2460 1379 1338 1418 1405 1133 1341 1503 1585 1607 1741 1856 1718 1048 977 1723 1619 1596 953 1441 1282 1544
867 1409 1606 1980 1845 1441 1413 1411 1727 1508 1672 2194 2230 2198 2314 2287 2233 2043 2151 2492 2610 2766 1386 1341 1865 2183 2080 1938 1810 1663 1849 1813 1982 1913 1336 1425 1524 1665 1287 999 1573 1490 1634
1338 1402 1507 2147 1359 1628 1556 2081 1730 1370 1547 2041 2129 2297 2241 2256 2261 2381 2068 2187 2569 2580 2200 1667 1868 1834 1896 2097 1986 1695 1339 1045 1573 1515 1247 833 1231 1471 1632 1625 1300 1745 1669
1345 1480 1450 2123 2133 1809 1909 1817 1890 1916 1909 1858 1991 2161 2244 2356 2432 2350 2213 2078 2738 2193 1875 1729 1905 1760 1630 1297 934 1000 1093 1286 1688 1562 1171 1361 685 1233 1644 1775 1701 1567 1646
1315 1226 1348 2039 1982 1905 1699 1887 2020 2028 1938 1826 1937 2100 2068 2267 2387 2287 2182 1923 1904 1973 2133 1855 1741 1610 1623 1634 1600 1427 1530 1556 1631 1141 998 959 901 1397 1365 1474 1612 1549 1755
1095 1004 1918 2125 1952 1860 1868 1943 1749 1906 1851 1793 1919 1788 2201 2304 2418 2230 2300 2293 2332 2203 1951 1988 1923 1867 1749 1606 1404 1592 1604 1651 1274 1118 1046 1477 1086 920 944 898 1053 1125 1156
811 1687 1654 2222 1823 1783 1701 1694 1769 1727 1826 1837 1869 2083 2088 2196 2220 2216 2253 2376 2298 2374 2239 1997 1982 2011 2081 2272 2172 2003 1727 1413 969 1067 1151 1137 1560 1087 680 650 753 1244 1066
1115 1505 1553 1807 1818 1875 1798 1623 1646 1747 1779 1701 1821 2041 2058 2226 2199 2335 2406 2487 2306 2232 2190 1920 2150 2154 2133 1815 1668 1655 1237 1275 997 1144 1093 1122 1462 1529 688 748 683 729 940
1195 1399 1508 1552 1516 1749 1596 1507 1520 1588 1703 1741 1840 2164 2179 2292 2144 2342 2514 2476 2090 2116 2049 1945 1943 2002 2092 2133 1516 876 1071 1313 1004 924 1110 1459 1663 1406 1019 753 798 787 818
1137 1156 1356 1444 1426 1284 1299 1753 1582 1669 1543 1653 1837 1954 2158 2239 2139 2032 2781 2649 2166 2120 2104 2020 1921 2429 2371 2248 1939 1509 1261 1072 784 948 1283 1095 2167 1509 1341 744 777 745 742
1160 1113 1199 1322 1155 1220 1352 1336 1301 1373 1530 1746 1514 1922 1593 1407 1521 1744 2443 2339 2138 2080 1905 1988 2088 1984 1917 2291 2376 1825 1294 797 848 770 1479 1039 1157 632 559 526 694 693 574
949 953 926 1093 969 1196 1241 1172 1149 990 1102 1296 933 1209 1195 1570 1964 2042 2037 2061 2078 2004 1908 1852 1878 2002 1412 1548 2123 1412 689 646 535 925 1039 1075 884 890 577 425 443 455 422
604 792 775 848 808 1014 955 846 847 397 786 786 680 681 970 1578 1699 1718 1596 1499 1270 1557 1342 1224 1211 1267 1080 969 1406 1132 813 737 786 1066 1198 1733 1076 1606 1634 1275 841 817 869
448 679 644 646 635 786 762 453 310 290 495 641 688 603 681 1007 1058 929 1025 1078 1006 668 669 676 999 1098 1138 1428 1031 737 828 653 632 851 1135 1418 1862 801 790 749 827 720 690
282 332 379 396 446 518 560 476 414 348 375 385 449 624 646 561 487 682 860 964 1094 586 685 826 999 903 480 831 1325 870 800 593 556 725 1011 1339 1447 1372 931 745 762 796 857
184 238 320 349 243 190 300 412 521 542 596 603 649 601 412 409 450 686 718 830 935 713 668 881 1100 461 407 432 998 1060 717 417 528 640 813 673 1200 1558 1907 1125 1026 962 981
201 260 297 285 245 124 327 400 477 504 531 540 650 620 384 396 462 568 701 746 589 804 848 808 667 539 425 390 413 471 482 307 391 541 605 538 633 1265 1373 1233 1219 1275 1146
224 271 283 215 258 198 317 322 329 418 414 470 414 459 522 633 641 582 685 815 911 1005 658 718 656 584 450 426 470 494 451 470 401 455 598 734 698 557 825 1273 1676 1690 1467
239 261 283 231 334 439 430 490 438 296 488 462 394 552 676 767 599 682 692 745 934 947 541 696 636 711 691 538 611 632 626 606 551 504 478 519 627 678 642 533 1042 1849 1781
258 267 273 287 362 212 351 334 211 297 419 445 179 471 493 759 319 608 786 619 1110 1011 849 698 575 685 517 443 505 527 542 568 620 591 592 548 545 678 693 749 799 838 1060
278 281 260 312 264 109 162 184 242 360 344 454 408 489 674 828 798 844 683 716 710 754 719 646 821 549 725 616 529 615 379 585 548 565 565 585 673 824 820 844 918 974 1139
249 286 285 213 64 182 194 170 197 228 322 409 355 378 459 621 709 577 408 594 562 586 693 861 813 715 579 391 404 432 448 229 212 290 314 456 596 590 786 1068 1176 1304 1534
192 194 316 51 0 58 238 202 212 203 210 277 416 417 397 559 487 883 716 457 576 637 602 732 560 750 505 605 435 463 837 585 170 183 311 383 456 557 774 936 1143 1375 1541
149 147 299 81 160 104 156 218 259 290 342 188 274 423 518 771 623 668 682 560 543 740 662 825 1340 906 654 888 767 648 708 1273 842 236 154 275 395 463 602 763 965 1205 1482
136 106 209 203 106 194 211 289 246 266 273 303 315 348 457 801 800 782 439 788 344 509 421 649 924 988 987 930 1035 940 1171 1055 1104 1273 755 204 212 268 436 648 883 1242 1445
128 78 108 190 100 61 178 243 278 268 342 281 309 273 290 860 768 689 603 429 406 425 373 493 951 610 630 1109 662 1034 965 1141 1477 1075 1017 863 194 290 569 616 707 1106 1352

GFSSE_con_mucape_093.txt.gz
CAPE
885 1413 2054 1870 1934 2011 1972 2094 1899 1933 2135 2099 2266 2514 2522 2269 2292 2269 2110 1974 1670 2266 2068 1986 1794 1735 1360 1453 1651 1800 1777 1724 1720 993 1973 1890 1734 1132 1637 1606 1868 1334 1520
979 1501 2508 1976 1686 1395 1419 1594 1562 1812 2181 2295 2338 2390 2367 2225 2150 1880 1928 1878 1679 2018 1416 1509 2086 1993 1931 1885 1907 1834 1648 1867 1860 1405 1866 1915 1630 1377 1461 1896 1801 1677 1599
1145 1313 1622 2010 1456 1542 2044 1909 1350 1693 2230 2189 2224 2265 2332 2335 2158 1968 1949 2251 2262 2314 1852 2038 2091 2006 1939 1853 1470 1148 1378 1749 1611 1270 991 1518 1579 1740 1390 1876 1845 1763 1700
1118 1324 907 2288 2182 2084 2034 2037 1934 1685 1980 2029 2151 2295 2289 2214 2163 2203 2034 2334 2311 2271 2177 2019 1808 1558 1232 760 1011 1165 1676 1803 1791 1624 1182 421 1148 1627 1818 1676 1775 1812 1834
1343 778 1765 2141 2032 1948 1761 1803 1878 1907 1697 1954 1870 2091 2240 2280 2113 2167 2023 2032 2251 2509 2452 1887 1920 1965 1859 1735 1598 1570 1740 1671 1625 927 1084 703 1112 1390 1599 1449 1696 1707 1738
722 760 1997 1955 1999 2031 2093 1934 1905 1961 1842 2010 2062 2041 2227 1998 2273 2113 2318 2325 2320 2052 2017 1845 1781 1851 1773 1443 1724 1603 1676 1691 964 1507 1727 909 903 946 1109 1053 1129 1433 1774
436 1755 1783 2135 1829 1830 1871 1867 1797 1732 1784 1810 1971 2154 2287 2292 2297 2296 2311 2271 2337 2288 2088 2105 2209 2238 2191 2140 2086 1708 1612 1530 1309 1008 1770 825 833 1142 806 944 1140 1173 1512
1201 1049 1310 1725 1537 1861 1647 1663 1753 1811 1865 1971 2046 2027 2218 2040 1982 2031 2131 2359 2436 2171 2114 2200 2153 2144 1941 1859 1731 1479 1352 1223 1147 816 1311 785 1670 932 873 781 869 1226 1583
896 1267 1282 1100 1790 1575 1403 1566 1735 1722 1888 1960 2067 2198 2225 1966 2004 2220 2252 2278 2290 2108 1952 1975 2072 2072 2202 1485 1024 1010 1453 1446 1221 1461 1102 1533 1811 1099 817 618 859 784 886
968 1066 1449 1553 1519 1269 1333 1621 1525 1638 1747 1929 2024 2164 2108 2153 2055 2235 2439 2548 2174 2074 1958 2013 2038 2066 2228 1928 1326 1181 907 705 889 1414 551 1829 1856 1700 826 821 779 829 846
821 1025 1202 1038 1240 1645 1436 1479 1488 1531 1693 1969 2121 2037 2082 2028 2055 2237 2430 2308 2108 1894 1939 2071 1995 2025 2212 2356 1958 1602 941 539 423 1149 619 1010 1284 495 440 626 625 535 451
749 994 1191 970 1126 1347 1336 1438 1752 1705 1791 1648 1814 2044 2127 2223 2423 2014 2237 2157 2048 1908 2013 2067 2146 1913 1567 2359 2010 1079 873 496 293 732 395 1067 1093 1005 662 511 499 497 435
785 790 1016 1011 1365 1431 1661 1263 1062 1241 1265 1373 1463 1724 2180 2115 2025 1926 2060 1681 1706 1618 1377 1428 1423 1438 1618 1449 1828 1581 1308 667 500 408 885 1485 1135 1400 1596 1331 885 740 804
618 703 716 734 1217 1292 1126 846 817 924 1042 1069 1208 1538 1840 1619 1738 1824 1800 1829 1480 1352 1725 1901 1895 2015 1914 1912 1563 1334 1437 710 313 520 728 1334 1908 912 762 694 829 982 989
331 598 488 659 1069 1173 1039 940 819 806 876 968 1233 1460 1474 1287 1533 1722 1825 1872 1641 1253 1628 1946 2135 1609 1330 1185 2010 1710 1420 866 498 450 585 1264 1253 1441 1374 961 906 939 994
181 295 374 478 855 992 1044 1219 1216 1013 1163 1063 1163 1220 1322 1159 1527 1521 1639 1765 1782 1532 1514 1973 1871 1578 1301 1573 2044 1728 1359 802 597 684 600 582 969 1330 1576 1477 1233 1121 1067
234 274 327 392 563 849 1053 1190 1184 1128 1090 1392 1392 1483 1016 1366 1257 1392 1610 1470 1477 1784 1765 2044 1575 1579 1288 1072 1378 1277 1211 1028 812 915 1008 942 859 880 1299 1499 1334 1423 1476
300 495 474 182 465 585 1028 1166 1052 1040 1246 1148 1392 1349 1372 1589 1573 1579 1568 1726 2083 1645 1564 1675 1540 1536 1281 1231 1316 1249 1223 1142 1242 1231 1237 1370 1362 1065 942 901 1348 1806 1852
490 587 576 628 696 714 1026 1002 1013 1153 1248 1111 1269 1387 1766 1707 1546 1834 1609 1663 2117 1258 1517 1647 1575 1776 1570 1404 1287 1393 1457 1312 1410 994 1294 1360 1442 1387 1394 1013 977 1183 1295
562 685 675 693 885 942 804 1080 958 1061 1446 1110 1149 1473 1427 1487 1332 1998 1861 1653 2207 1925 1730 1713 1944 1796 1687 1645 1038 1179 1326 1217 1505 1564 1283 1264 1530 1606 1583 1865 1972 1703 1166
624 699 795 842 927 694 816 970 1023 1029 1370 1351 1051 1459 1652 1989 1517 2022 1694 1924 1798 1941 1760 2210 1902 2156 1646 1694 1526 1370 1175 1098 1479 1511 1478 1440 1559 1533 1743 1959 2210 2026 1922
688 770 867 928 902 783 870 947 959 1148 1002 1255 1344 1303 1404 1649 2034 1692 1853 1864 1763 1674 1932 2351 2216 1562 1501 1446 1342 1513 1133 874 1034 802 987 1152 1517 1500 1443 1603 1948 2237 2378
649 805 885 963 874 771 768 899 958 972 985 1233 1350 1266 1131 1536 1558 1968 1657 1564 1807 1797 1629 2026 1882 2200 1520 1747 1584 1478 1441 1066 1194 743 1103 1276 1671 1517 1523 1506 1612 1842 2143
568 705 833 915 733 650 897 965 1220 1326 1643 953 1167 1416 1440 1531 1440 1779 1890 1756 1976 1864 2091 2269 2185 2133 2081 2097 2008 1659 1872 2262 1786 960 985 1021 1058 1153 1344 1362 1330 1379 1720
516 580 703 783 683 550 794 1041 1038 1584 1040 991 1036 1504 1717 1966 1763 1667 1691 1993 1883 1451 1964 2220 2422 2665 2218 2060 2153 2120 2271 1828 2149 2014 1078 994 999 950 1138 1281 1244 1317 1549
450 459 524 797 708 844 810 972 1230 1142 1440 1172 1242 1162 1268 1654 1826 1889 1606 1819 1745 1510 1825 1904 2348 2236 2253 2183 1937 2044 2101 2095 2368 2161 2039 2093 1291 1097 1332 1513 1599 1483 1826

GFSSE_con_mucape_096.txt.gz
CAPE
920 1105 1424 1599 1317 1633 1843 1989 1968 2122 2210 2263 2458 2443 2348 2333 2136 2170 2167 2098 2251 2354 2375 1735 1930 1540 1574 1879 1922 1823 1636 1227 1923 1952 1882 1349 1551 1876 1746 1631 1891 1323 1657
902 1042 1860 1550 1605 1334 1398 1530 1804 2226 2275 2430 2502 2401 2204 2177 2069 2081 2355 1718 1976 2028 1611 1875 1892 1925 1814 1849 1784 1989 1747 1330 1741 1769 1793 1920 1443 1812 1979 1849 2290 1689 1710
697 1036 1461 1714 1335 1657 1825 1327 1777 2244 2402 2330 2306 2362 2355 2167 1878 2122 2168 1586 1988 1981 2035 2059 2058 1996 1597 997 1049 1894 1839 1574 1294 737 1447 1297 1633 1736 1903 1872 1838 1795 1705
960 1274 545 2156 1789 2035 1983 1716 1670 1987 1993 2098 2270 2380 2266 2255 2368 2652 2234 2019 2020 2203 2058 1593 1459 877 1269 1370 1364 1792 1793 1745 1620 1588 410 924 1343 1841 1796 1857 1716 1692 1757
1039 470 1585 1862 1980 1867 1816 1986 1921 1838 1901 2094 2163 2275 2340 2177 2338 2420 2224 2077 2059 2024 1742 1956 2099 2000 1796 1615 1638 1788 1780 1324 717 764 601 1161 1379 1548 1492 1449 1947 1848 1896
618 1090 1830 1789 1675 1584 2010 1999 1948 1904 2030 2183 2237 2191 2177 2295 2321 2193 2288 2176 2062 1964 1849 1912 2020 1994 1618 1945 1645 1659 1645 959 1170 1095 318 617 792 1086 1195 1265 1922 1925 1819
542 1068 1596 1870 1834 1994 1946 1884 1796 1836 1938 2114 2168 2246 2270 2239 2168 2332 2396 2249 2226 2274 2244 2317 2369 2342 2407 2035 1740 1610 1480 1119 962 843 451 521 882 1432 948 986 1710 1768 1676
586 853 1279 1755 1847 1752 1729 1880 1895 2043 2007 2100 2138 2165 2028 1957 2136 2256 2388 2408 2145 2285 2335 2329 2266 2116 1844 1634 1539 1335 1449 1168 672 675 1127 1575 1450 1097 684 918 1211 1568 1671
403 947 1054 1282 1572 1658 1689 1843 1895 1954 2131 2226 2050 2020 2084 2112 2203 2341 2504 2327 2174 2049 2107 2139 2172 2287 1458 1126 1033 1476 1537 1240 741 961 1394 917 1573 933 744 738 865 976 973
691 1010 927 1112 1177 1166 1334 1692 1741 1952 1906 1992 2287 2046 2735 2073 2095 2152 2684 2662 2105 2030 2248 1979 2146 2285 1965 1367 1225 912 659 790 500 276 514 1148 2083 840 793 777 773 715 677
633 752 485 567 1185 1475 1427 1582 1705 1916 2035 2186 2220 2093 2114 1877 1963 1704 2327 2186 1945 2001 2140 2156 2155 2311 2438 2096 1650 1147 1390 146 306 215 68 1470 1055 499 557 564 538 480 455
542 516 217 574 635 803 399 1446 1426 1453 1667 1551 1898 2066 2183 2139 2098 1654 2143 1957 1906 2049 2138 2191 2234 1896 2054 1755 1528 1216 33 156 131 98 303 1261 1584 1214 879 642 700 777 739
509 303 212 728 1116 760 683 654 1110 1220 1216 1708 2023 1896 1723 1382 1254 1178 1436 1576 1625 1877 1644 1843 1745 1670 1851 1696 1601 1425 983 324 279 259 854 1420 1002 1145 958 1022 740 771 914
470 192 263 680 1183 1071 854 570 669 855 1062 1045 1275 1411 1489 1227 1284 1372 1391 1609 1544 1554 1890 1930 1920 2125 2062 2161 1723 1634 1207 514 394 307 650 1457 1479 970 826 736 825 963 1064
251 63 274 712 1359 1394 972 796 875 964 704 617 1171 1461 1314 1457 1805 1679 1997 1664 1514 1477 1801 1977 1765 1775 1663 1732 1734 1634 1342 901 453 215 113 1056 1201 1391 1484 1175 1076 1052 1081
87 25 366 758 1274 1225 1292 1269 1082 719 778 901 1209 1737 1681 1491 1793 1710 1896 1764 1515 1430 1688 1815 1911 1474 1273 1296 1583 1429 1160 723 1035 561 247 475 1036 1252 1360 1430 1295 1319 1305
49 77 529 751 1011 1224 1419 1409 1087 946 900 1035 1328 1695 1637 1652 2163 1828 1734 1574 1597 2085 2170 1841 1560 1385 1004 933 1278 1365 1121 1159 1205 1395 933 808 935 829 1158 1439 1540 1546 1583
69 230 456 322 748 1043 1244 1341 1220 1305 1167 1097 1145 1382 1749 2084 2156 1933 1537 1566 1972 1758 1625 1451 1282 1089 1088 1034 1403 1269 1160 1079 1411 1415 1265 1503 1650 1565 1128 1010 1047 1466 1734
329 428 479 519 656 977 1424 1131 1206 1575 1417 1365 1414 1331 2018 1976 2131 1699 1581 2070 2173 1505 1552 1311 1427 1516 1353 1231 1042 1098 1139 1144 1286 1062 1418 1661 1665 1820 1909 1654 1311 1355 1502
445 694 713 880 1108 1208 1395 1513 1124 1235 1466 1280 1420 1515 1868 1821 2187 1846 1804 2064 2042 1681 1532 1593 2048 1662 1572 1461 871 946 944 1143 1326 1368 1287 1461 1719 1911 1744 2256 2389 2114 1982
390 683 966 1114 1480 1688 1564 1094 1086 1165 1339 1122 1327 1880 1873 1880 1774 2120 1589 2042 1962 1924 2252 2250 1631 1949 1110 1180 1184 928 875 1096 1301 1271 1218 1366 1555 1467 1740 2135 2467 2602 2596
751 631 878 1232 1744 1548 1374 1396 1023 1060 1198 1273 1339 1774 1741 1746 1990 2019 1835 1751 1932 1826 2218 2456 2501 1413 1106 1809 1139 1142 766 697 786 839 1020 1041 1501 1279 1546 1997 2262 2451 2536
874 1119 1148 1382 1612 1608 1215 1343 1524 1847 1560 2104 1663 1681 1604 1699 1780 1990 1946 1708 1979 2237 1744 2114 2111 2450 1104 1744 2429 1758 1064 868 689 635 1047 1065 1557 1377 1619 1856 1888 2043 2324
766 1161 1298 1502 1709 1630 1610 1177 1217 2102 1444 2096 1343 1370 1577 1674 1482 1596 2049 1926 2227 1656 1909 2260 2051 2063 2766 1564 1704 2167 2830 3039 1231 820 695 830 1296 1290 1600 1472 1551 1934 2323
703 1023 1259 1562 1735 1277 1638 1260 1050 738 1819 745 1209 2003 1759 1913 1745 1473 2040 2046 2364 1803 2417 2260 2445 2606 1791 1929 1577 2012 2624 2415 2747 1447 678 630 885 997 1194 1394 1525 1757 2204
735 921 1104 1579 1812 1548 1487 1570 1464 1072 833 1943 1885 1461 1486 1564 1877 1727 1835 2121 2202 1928 2062 1992 2473 2470 2455 2241 2046 2161 2021 2017 2029 1668 1216 1202 828 1044 1222 1365 1669 1838 2117

GFSSE_con_mucape_099.txt.gz
CAPE
616 816 1286 1556 1413 1268 1695 1876 1936 1868 1987 1911 2115 2253 2313 2186 1856 2209 2348 2092 2422 2409 2017 1700 1594 1568 1814 1734 1725 1171 1759 1778 1962 1570 1414 1898 1722 1605 1577 1392 2048 1434 1756
620 656 1589 1436 1708 1530 1461 1749 2133 2242 2171 2411 2377 2156 2185 2183 1931 1738 2391 2220 2394 2232 1870 1852 1767 1629 1570 1639 1755 1293 1407 1679 1734 1605 1617 1977 1924 1894 1946 2096 2208 1709 1828
705 886 1467 1389 1136 1646 1477 1812 2205 2291 2331 2377 2371 2204 2038 2087 2156 2338 1995 2066 2097 2108 2046 1907 1708 834 935 1712 1858 1837 1548 1725 1266 1363 2490 852 1649 2019 2038 1977 1970 1872 1845
745 1005 509 1805 1720 1668 1320 1729 1975 1940 2218 2375 2427 2354 2254 2370 2340 2083 2118 2137 2380 2401 1683 1313 1252 1460 1434 1726 1703 1739 1453 1356 1394 2137 1281 1040 1019 1887 1676 1880 1783 1770 1851
829 464 1767 1774 1790 1737 1730 1812 1907 1864 2193 2251 2402 2375 2264 2114 2276 2072 2105 2173 1746 1728 1860 1781 1800 1821 1593 1730 1688 1591 1325 1119 1335 1070 879 1448 1157 1459 1743 1664 1980 1934 1962
712 762 1444 1690 1656 1708 1958 1882 1815 1922 2220 2309 2353 2212 2232 2355 2244 2179 2038 2027 1863 1888 1969 2065 2155 1814 1902 1795 1554 1411 1441 1235 1394 307 298 653 1028 1328 1710 1912 2033 1978 1971
567 706 1072 1683 1827 1766 1757 1827 1903 2056 2246 2197 2307 2199 2236 2387 2440 2167 2059 2128 2192 2344 2335 2289 2518 2353 1687 1674 1324 1446 1396 1502 378 969 293 539 875 1422 1397 1873 1872 1688 1527
604 689 995 1771 1756 1661 1857 1830 1973 1943 2182 2249 2128 2115 2208 2056 2426 2265 2269 2330 2347 2374 2352 2291 1843 1470 1485 1255 1303 1445 1718 2012 851 1266 748 375 1352 1063 1049 1202 1455 1531 1369
505 607 718 1088 1594 1840 1762 1896 1963 2053 2184 1970 1952 1976 2294 2374 2389 2549 2351 2293 2164 2220 2107 2296 2254 1449 1153 1056 1329 1159 1299 1618 1102 1473 563 588 1505 890 841 935 1008 955 914
411 418 584 1072 1393 969 1407 1855 2004 2104 2167 2151 2046 2100 2442 2323 2460 2534 2697 2532 2192 2239 2015 2208 2370 1859 1527 1257 1017 626 926 1389 192 182 239 1157 1371 758 742 648 606 605 645
663 236 500 600 1018 1210 1020 1648 1959 2071 2303 2182 2039 2080 2111 1853 1657 2131 2426 2105 2111 2202 2266 2207 2351 2425 2204 1933 1488 1311 1417 308 100 21 205 1255 963 575 580 576 573 578 749
183 146 520 740 860 1118 541 1678 1536 1458 1703 1844 2166 2175 2896 2111 2267 1281 1919 1944 2097 2226 2372 2403 2295 2789 2886 1950 1430 1489 157 116 95 17 702 1590 1582 1019 880 789 858 906 899
128 13 599 1105 315 210 1031 851 1503 1453 1135 1949 2335 2622 2753 1055 1169 1142 1679 1832 1974 2233 1974 2299 2059 1773 1228 1679 690 411 358 251 181 207 712 1105 986 1018 833 892 892 1057 1110
74 14 612 759 787 381 401 663 1036 817 1054 1950 1799 1448 1402 996 1527 2132 1926 1359 1976 1988 1862 1957 1571 1854 1356 1402 739 624 291 219 226 194 801 1614 950 902 854 807 890 963 1060
10 19 697 1134 1239 977 505 551 937 701 797 996 1350 1256 1128 1707 1695 1812 2199 2082 1876 2334 2501 1662 1328 1480 1408 1196 676 678 379 405 175 9 0 1168 1122 1290 1364 1165 1128 1072 1058
7 104 677 874 1163 1625 915 977 862 775 590 865 1037 1486 1703 1963 2466 1842 1801 2442 1416 2512 2690 1406 1752 1102 1396 608 973 805 474 456 703 217 32 407 996 986 1200 1408 1272 1338 1392
15 257 657 719 802 1650 1594 999 1067 567 711 1200 1403 1763 1697 1788 2261 2144 1946 2158 1765 1753 2060 1928 1279 1056 552 371 1025 950 745 885 1057 1153 747 790 756 1046 1170 1231 1415 1549 1596
27 342 364 356 497 889 1636 2134 2076 1132 1239 1619 1339 1552 1985 2210 1937 2352 1529 2224 1404 2454 1036 1412 800 725 703 784 1019 1106 880 888 1204 1375 1437 1651 1812 1362 1271 1355 1318 1532 1684
184 361 337 523 696 1352 1002 1441 1825 1560 1913 1524 1591 1949 1981 1936 2120 2574 2921 2004 2753 1761 1239 1699 709 1758 932 749 1029 1018 1027 983 1490 1135 1891 1999 1812 2139 1817 2012 2120 1856 1884
352 442 370 395 1611 1723 930 1086 1538 1567 1753 1677 1829 2029 1855 1846 1922 2586 1726 1683 2653 2465 1395 1779 3346 1093 1478 1259 899 883 1000 1051 1260 1390 1729 1874 2005 2140 1538 2322 2917 2242 2770
413 523 597 1772 1325 1365 1397 1047 1701 1554 1510 1316 2029 1688 1800 1774 1880 2316 2196 1978 2192 3085 2770 1612 1741 2219 717 826 1948 809 713 1067 1320 1272 1502 1714 1734 1314 1694 2494 2586 2835 2714
329 588 836 1519 1850 1918 1425 1944 1991 1463 1802 1727 2003 1690 1764 1671 1954 2072 2538 2078 2584 1903 2205 2140 2468 2201 718 958 1645 1347 734 924 944 955 1141 1373 1619 1118 1582 2011 2358 2723 2951
455 508 803 1135 1837 1592 1458 2128 1704 2050 2209 1598 2018 1771 1758 1691 1758 2150 2206 2166 1923 3153 2194 2256 1773 2397 1921 964 2341 2791 1773 1865 874 1005 1169 1396 1691 1216 1422 1829 1774 2147 2595
753 853 1084 1152 1684 1673 1215 2304 1235 1897 1806 1383 1365 1772 2257 1674 1562 1770 1879 1940 2422 2686 3898 2683 1698 3403 2691 1165 804 1607 2503 2967 2725 917 747 1141 1237 1213 1347 1659 1518 2060 2294
647 900 1153 1387 1559 1605 1546 2000 1338 1329 1884 1302 1391 1977 1536 2064 1658 1362 1760 1888 2215 2081 2089 3511 2452 3053 1736 2639 1801 1377 2474 1510 1827 1830 1245 840 1004 871 1137 1398 1185 1345 2075
611 1213 1125 1671 1906 1579 1690 1570 1368 1194 1254 1998 1163 1806 1542 1893 1614 1649 1770 1982 2227 2307 2269 2163 2384 2402 3597 3315 2809 2733 2148 1709 2263 2352 1225 1205 988 964 890 934 1309 1346 1407

GFSSE_con_mucape_102.txt.gz
CAPE
569 1028 2156 1646 1155 1367 1570 1647 1747 1729 1812 2366 2615 2230 2080 2147 2186 2120 2451 2415 2454 2472 2249 1956 1945 1955 1895 1483 1818 1936 1974 1980 1570 1990 1784 1634 1511 1657 1915 1514 2101 1355 1879
359 924 2109 1741 1348 1538 1618 1958 2078 2299 2210 2338 2424 2360 2151 1923 2301 2645 2636 2117 1861 1764 1820 1822 1640 1851 1730 1537 1147 1583 1452 1577 1954 1966 1998 1964 1849 2015 2107 1921 1915 1655 1949
672 1062 1531 1805 1263 1470 1554 1993 2078 2263 2251 2299 2407 2225 2082 2078 2244 1611 1968 1868 2013 1881 1729 894 1160 1483 1684 1839 1541 1594 1618 1410 1185 1657 2517 1375 1723 2078 2104 2061 1952 1904 1954
690 540 272 2222 1704 1211 1838 1933 1890 2066 2270 2287 2182 2316 2182 2139 2644 2107 2124 2050 2492 2138 1451 1562 1572 1521 1790 1563 1454 1489 1484 1550 1104 1328 959 1001 1210 1708 1885 1857 1933 1939 1954
622 647 1630 1853 1798 1696 1828 1750 1853 2018 2243 2223 2262 2200 2198 2047 2190 2045 1952 1837 2032 1869 1912 1961 1701 1650 1527 1530 1519 1557 1835 2494 2111 1150 1136 1171 1260 1661 1930 2062 1916 1905 1919
703 1082 1914 1855 1842 1912 1924 1834 1890 2153 2282 2511 2366 2157 2175 2092 1949 1991 1833 1834 2065 2066 2112 1999 2039 1661 1389 1259 1300 1541 1779 2954 1697 417 540 1318 1152 2099 1993 1961 1934 2021 1880
529 839 1194 2037 1795 1935 1945 1994 2091 2155 2251 2366 2453 2397 2168 2021 2116 2016 2067 2302 2243 2247 2358 2356 1862 1487 1264 1148 1318 1717 2013 2247 497 413 560 638 1080 2018 2009 1990 1503 1551 1623
546 699 1164 1926 1856 1842 1866 1997 2037 2207 2242 2265 2644 2288 2515 2580 2803 2296 2468 2609 2304 2167 1887 1461 1319 1253 982 1017 1219 1381 1791 2398 811 500 586 772 1598 1278 1160 1360 1309 1417 1350
412 533 866 1220 1769 1908 2046 1822 1992 2132 2108 2067 2243 2351 2840 2536 2350 2714 3066 2461 2087 2116 2225 1575 1280 1057 889 926 890 976 1335 2435 1160 1040 275 472 1571 1008 924 934 890 870 779
430 490 973 1239 1132 1334 1452 1932 2093 1979 2035 2188 2227 2438 2890 2783 2330 2214 2774 2839 2034 2030 2177 2156 1651 1295 1172 1035 642 572 931 1284 245 220 532 867 1281 659 598 577 591 623 706
462 688 909 667 1075 1707 1792 1925 2090 2164 2149 2408 2101 2482 2486 1892 2092 1981 2513 2552 2128 2111 2155 2353 2238 1922 1498 1277 1463 1384 1563 1274 33 79 355 1228 1054 572 566 557 597 713 919
424 475 627 755 630 790 842 2112 2255 1607 1723 2047 1965 2109 2338 2544 2366 1380 1886 2173 2111 2097 2243 2641 2731 2336 1662 1854 1477 1759 822 300 30 419 1279 1725 1130 801 719 736 815 876 933
232 590 500 783 1375 827 1623 1980 1374 2057 1891 1612 2220 2682 2848 1579 1292 1335 1790 2016 2051 1977 1720 2178 2643 2371 1221 1249 1521 627 376 393 84 103 1177 1485 1698 860 839 787 895 1057 1094
289 721 315 985 1801 1079 1321 1457 1694 1801 1629 866 1364 2046 3161 1568 2256 1035 1779 719 1311 1811 1375 1843 2194 2656 1479 1371 517 463 311 287 110 250 1189 1448 954 819 760 734 834 911 1013
92 784 462 1256 1705 1990 1270 1121 1502 1131 1355 1863 1978 2067 2114 1571 2940 1741 789 923 753 795 1401 2339 1945 2106 2289 1606 968 661 435 568 56 36 530 1517 1329 1111 1113 993 1007 974 1006
216 1036 620 708 1498 1767 2517 2837 843 763 1304 1692 2427 1512 1759 1294 2119 1239 641 1745 1499 1393 2518 1437 851 973 2070 1073 1616 1310 816 1002 1282 16 174 963 1709 1356 1031 1236 1114 1210 1361
67 890 819 823 808 1740 1954 2066 1896 986 1317 1697 1816 1788 1152 2574 1449 597 1138 1929 2556 2538 2194 3024 3033 2021 1394 1178 1696 1747 1431 1498 1514 1146 692 867 968 1820 1588 1308 1318 1466 1568
225 932 758 639 829 1268 2092 2145 1300 1221 557 1653 1993 2544 2816 2749 2036 1689 2306 2411 3177 3668 3533 2181 2432 2425 1834 1902 1492 1911 1800 1520 1993 2047 2030 1409 1511 1236 1892 2154 2166 2272 2058
509 610 196 945 1015 1171 2829 1317 2225 1289 1756 1774 2252 2185 2820 2715 1491 2933 1634 2288 2743 3335 868 1319 1621 2182 2200 1323 1515 1863 1905 1710 2207 1740 2295 2564 2302 1842 1521 2072 2258 2399 2492
434 518 756 1037 1792 1936 501 1170 1938 938 1204 1362 2039 2766 2899 2420 2588 2751 2980 2895 2105 3068 1156 3062 2728 1719 3245 963 1217 1510 1901 2007 2177 2149 2381 2042 2346 2381 1999 2073 2160 2079 2635
396 895 1119 1114 2020 1418 1911 1033 1534 1531 1566 1907 1369 2841 2991 2621 2338 3529 3123 2948 775 1919 2883 2986 2818 3154 3110 2792 3518 2246 1653 1724 1897 1998 2179 1902 2269 2199 2080 2840 3304 2713 2258
479 945 1926 2298 2454 2332 2243 2325 1811 1076 2048 2022 2554 2857 2499 2095 2783 2753 2745 2750 848 2033 3435 3156 3568 3724 2228 2364 2407 2599 2125 2068 1550 1301 2033 1936 1946 1269 2109 3113 2900 2847 3006
754 1163 1229 1273 2718 2517 2196 1068 1813 494 1972 1072 2279 2583 2446 2094 2564 2020 2445 1737 2343 1581 2196 3388 3557 3727 2870 2031 2922 2991 2357 1687 1684 1377 1488 2037 1730 2234 2021 2211 2581 3004 2918
489 909 1993 2007 2403 1885 954 1354 1982 1797 392 1505 1750 733 1066 2771 2305 2584 2552 2201 2052 899 1093 2856 3400 3708 3829 3066 2146 2037 3100 2400 2683 2214 1833 1677 2121 1877 2164 2524 1911 2636 3077
345 523 1240 2295 2660 2486 2608 1966 2239 1924 1849 1545 1328 838 1096 2247 2595 2069 2793 2717 2642 1995 1561 1026 2603 4183 3740 3339 2703 2921 2726 3345 3235 1612 1881 1386 1700 2091 1191 1774 1642 2209 2643
562 825 1396 2339 2706 2903 2598 2507 2227 1800 1500 1547 345 1169 1210 1969 2367 3000 2071 3182 3059 958 1432 2766 3246 3377 4160 3764 3634 2759 866 670 951 1323 1385 1494 1898 1719 1785 1637 1069 1979 2452

GFSSE_con_mucape_105.txt.gz
CAPE
492 1053 2096 1487 1303 1367 1547 1490 1565 1889 2134 2349 2359 2586 2314 2204 2288 2646 2531 2263 2224 2571 1980 1930 1828 1444 1644 1870 1904 1736 1430 2547 2726 2401 1580 1469 1445 1585 1988 2071 1681 1218 1834
867 1527 2342 1868 1603 1700 1934 1901 1959 2220 2383 2334 2690 2568 2146 2240 2041 2315 2096 1789 1867 1845 1819 1949 1835 1633 1289 1546 1499 1382 1545 1667 2044 2524 1919 1912 1620 1725 1907 1922 1823 1670 1498
1002 1294 1576 2110 1397 1458 2033 2254 2327 2160 2345 2238 2253 2611 2080 1562 1794 1801 1969 1937 1848 1674 796 1212 1572 1671 1453 1585 1660 1099 1162 1154 1786 1877 1782 1421 1611 1956 2015 1993 2046 1892 1831
963 1135 1033 2183 2015 1690 1939 2005 2153 2168 2325 2166 2167 2084 1991 1999 2237 2093 1847 1588 1689 1657 1421 1277 1761 1485 1365 1452 1642 1257 1326 1298 2269 1355 960 956 1356 1858 1907 1929 1897 1879 1880
371 1080 1487 2251 2154 1919 1907 1938 2022 2165 2248 2194 2169 2089 2117 1991 2160 2127 2084 1953 1909 2042 1973 1793 1532 1385 1352 1585 1658 1969 1564 2004 1592 1017 934 1186 1264 1768 2046 1897 1934 1811 1737
1073 1489 2192 2054 1771 1856 1810 1938 1953 2161 2197 2180 2150 2162 1925 2190 1699 1663 1812 1995 2058 2103 2014 1711 1452 1164 1205 1399 1595 2122 2660 2315 778 563 715 1399 1410 1986 1815 1891 1907 1752 1686
1125 1442 1672 2413 2128 1886 1745 1852 2012 2195 2202 2257 2320 2182 1974 2214 2007 2013 2053 2228 2301 2393 2096 1510 1355 1008 1072 1362 1540 1941 2333 1509 320 356 524 861 1434 2103 1583 1445 1618 1676 1835
805 1177 1421 1962 1982 1925 1951 1953 2143 2172 2277 2194 2206 2262 2447 2416 2624 2570 2307 2326 1854 1734 1450 1301 1136 972 965 1053 1146 1627 2495 1294 299 391 463 725 1462 1391 1107 818 1231 1065 994
805 1130 1258 1427 1646 1905 1919 2070 2266 2144 2147 2271 2268 2413 2530 2230 2283 2349 2323 2295 2143 1558 1261 1128 923 830 831 879 829 1048 2083 945 197 307 367 648 1483 971 858 815 796 728 816
656 787 1082 1300 1369 1454 1620 2063 2031 2032 2025 2180 2383 2496 2585 2370 2204 2222 2943 2760 2102 2132 1772 1252 934 831 706 682 651 680 1109 1516 351 252 409 747 1071 549 532 549 599 718 854
503 636 855 906 1008 1255 1512 1801 1916 2079 2144 2280 2363 2487 2425 1795 1643 1659 2401 2595 2037 2078 2052 1724 1454 1283 1223 1244 1352 1358 1290 447 0 29 306 1043 994 510 486 550 664 811 947
490 617 653 817 782 1160 1316 1649 1605 1806 1364 1233 1140 1323 1532 1594 1465 1602 1988 1967 1819 1699 1776 2235 2051 1946 1123 1077 1268 1462 1106 162 138 378 588 1301 987 585 642 733 806 834 865
496 477 343 481 549 570 1105 1388 1394 1296 1325 1123 713 1165 1404 1568 1486 1388 719 403 196 493 899 1228 2307 977 655 433 685 1223 279 49 315 808 1555 2163 1397 974 860 744 870 981 985
55 61 362 599 507 782 1140 1354 1306 1241 768 891 1162 1497 1529 848 685 645 0 167 13 48 400 932 1318 1653 1732 1350 658 1028 30 12 0 274 949 1565 1314 745 665 665 754 826 958
80 202 378 785 790 611 932 958 1104 1296 207 464 1096 1530 1267 1266 564 578 32 42 330 488 572 1060 1150 1050 1230 490 84 90 88 7 15 250 790 1084 1504 1231 921 848 908 968 1021
178 268 397 573 658 1269 614 837 966 872 975 1255 738 904 1170 1128 657 524 619 391 462 628 814 449 434 838 981 529 261 137 208 211 218 282 556 887 1800 1869 1473 1175 1091 1237 1397
192 224 220 285 646 761 739 743 637 659 1104 1268 588 509 1344 806 221 520 750 677 937 787 1125 404 770 804 588 498 551 444 394 433 604 616 836 1209 1037 1958 1891 1706 2020 2136 1858
196 271 93 102 407 428 581 1009 767 813 716 1020 1042 1264 1866 1205 622 1121 1110 1065 1315 1872 1764 2032 1514 1389 713 679 554 585 686 717 904 986 1366 1304 1354 315 1418 2212 2256 2374 2525
92 135 246 116 280 707 1026 1224 801 740 1225 1142 1112 1387 1417 1906 1175 1595 1570 1249 1946 1686 657 1388 885 1194 882 785 719 732 746 912 930 1106 1428 1454 1471 1152 1064 1659 2080 2187 2314
209 117 427 358 328 671 504 572 508 453 959 1386 1530 1573 1730 1731 1552 1736 1848 1301 955 1375 1247 1686 1630 2066 1816 787 1280 800 683 979 1000 1281 1496 1437 1503 1534 1372 1921 2088 1987 2174
10 62 721 409 558 454 314 826 679 433 781 1031 1217 1722 1370 1540 1779 1709 1571 407 531 1453 1675 1741 1887 2116 1935 1710 1429 1287 931 876 1032 1035 1387 1352 1315 1474 1451 1869 2136 2079 2106
104 138 657 680 442 868 761 1001 846 564 1092 1059 1244 1587 1656 1141 1424 1826 1361 1190 981 1350 1855 1815 1732 2472 1567 976 1432 1814 670 756 822 944 1129 1426 1264 1409 1468 1931 2494 2227 2092
233 638 786 1069 984 982 702 732 527 573 889 920 1092 1079 1266 1646 1482 1429 1216 821 1037 1084 1275 1486 2153 2324 2394 1853 1749 1930 1517 1204 794 630 650 985 913 915 1133 1956 1765 1861 2376
134 401 713 1030 923 927 999 562 603 343 373 603 598 602 920 1268 1484 1501 1043 635 1150 371 296 1354 1856 2511 2310 2077 2151 1732 1675 1691 1467 520 663 724 474 781 1019 934 1570 1455 1713
329 244 373 642 859 897 507 699 649 446 379 695 629 485 600 865 1316 1336 1579 1358 1261 1010 1017 1382 1227 2209 2218 2052 1783 1123 1038 1339 711 744 799 659 610 665 511 635 1319 1108 1156
298 766 488 709 713 1092 669 649 554 582 594 587 487 500 758 680 821 1332 1317 1313 1223 902 725 938 1738 1932 2198 2008 1575 1067 566 407 458 564 451 306 459 583 597 785 757 690 732

GFSSE_con_mucape_108.txt.gz
CAPE
210 567 1472 1290 1293 1602 1479 1572 1931 2150 2099 2104 1993 2112 1744 1667 1891 2052 2200 2121 2002 2124 1798 1459 1820 1965 1840 1595 1494 1980 2042 1933 1933 1720 1582 1492 1513 1806 1858 1645 1548 1120 1252
417 1122 1968 1521 1593 1727 1657 1910 2147 2206 2064 2199 1948 2213 2077 1818 2032 1983 1829 1971 1912 1973 1949 1620 1496 1727 1648 1507 1614 1593 1709 2491 2709 2124 1889 1825 1840 1936 1805 1600 1338 714 800
930 1431 1648 2190 1642 1740 1992 2099 2118 2192 1883 2529 2059 2264 2031 1757 1804 1961 2033 2068 1471 1261 1735 1690 1690 1711 1459 1025 1044 1166 1152 2166 2150 1899 1992 1396 1497 1918 1812 1861 1878 1806 1782
1184 1308 1480 2123 1767 2057 2141 2244 2073 2008 1982 2175 2052 1955 1903 1896 2074 2101 1953 1182 1097 1191 1586 1724 1480 1498 1467 1024 1335 1687 1599 2131 1736 1429 1081 1137 1348 1912 1859 1982 1882 1802 1738
1179 979 1409 2033 2063 2047 2050 2257 2267 2286 2324 2274 2063 1957 2050 1920 2119 1959 1440 2011 1851 1792 1936 1536 1454 1580 1772 1579 1277 1533 1729 1747 1629 1138 1034 1155 1447 1844 1917 1916 1677 1642 1745
888 1264 1884 1637 2021 2028 2062 2160 2264 2305 2242 2158 2132 2018 1993 1871 1817 1842 1871 2018 2021 1822 1538 1421 1355 1580 1617 1815 2428 1722 1797 1469 974 1222 1331 1489 1561 1969 1770 1978 1863 1811 1856
1283 1584 1684 2246 2064 1954 2049 2047 2231 2253 2249 2302 2093 2053 1993 1918 1975 2100 2132 2173 2154 2014 1690 1304 1090 1316 1422 1695 2686 2501 1244 781 360 897 1117 1243 1459 2232 1919 1903 1882 1837 1950
1386 1572 1788 2150 1967 1858 1992 2202 2331 2312 2368 2418 2274 2186 2160 2167 2199 2155 2112 2025 2348 2234 1270 1145 998 1004 1109 1449 2085 2439 1331 704 290 429 564 892 1737 1365 803 847 995 1066 1199
1179 1331 1472 1609 1705 2039 2102 2250 2325 2221 2377 2397 2383 2139 2282 2308 2295 2224 2197 1775 1323 1194 1026 869 734 778 896 1038 1241 2692 1055 736 234 361 492 671 1523 896 817 806 784 897 974
1095 1280 1332 1480 1655 1697 1889 2264 2211 2303 2309 2398 2461 2333 2416 2435 2222 2136 2632 2426 1855 1438 1104 926 818 779 671 755 787 1716 1228 633 75 219 390 720 1130 673 614 642 697 764 913
726 1061 1317 1441 1467 1631 1840 1893 2208 2274 2402 2481 2370 2444 2277 1655 1776 1809 2203 2079 1955 1819 1536 1273 1000 880 1020 1188 1381 1316 1126 268 47 193 333 1027 1038 521 538 646 790 972 1092
607 779 977 1009 1309 1544 1834 1685 1712 1770 1875 2057 2031 1851 1410 1308 1214 1523 1704 1873 1946 1627 1526 1909 1842 1922 1769 857 886 1420 1473 41 0 79 312 1214 751 602 669 744 791 861 920
507 625 753 931 1024 1328 1646 1548 1611 1205 1075 1031 1198 1264 1300 1250 1207 660 355 212 542 708 741 909 952 1833 481 704 405 818 299 28 115 391 875 1519 960 792 768 735 854 1038 1086
549 537 629 520 758 870 1200 1290 1210 1202 1087 608 948 1068 1081 1064 818 427 250 153 99 408 693 506 577 858 1371 1478 1441 629 91 86 282 815 1447 1783 1784 843 722 729 816 889 1030
257 318 352 314 497 884 1201 1159 1181 923 635 698 977 1115 872 339 569 415 0 201 353 328 422 566 726 944 1194 860 743 572 263 0 0 301 613 1333 1562 1026 829 798 907 1073 1172
185 347 527 461 529 827 998 1035 1147 1132 406 832 949 785 962 593 488 392 213 258 393 508 529 467 508 755 828 407 38 125 212 224 287 452 348 581 1501 1451 1181 1148 1136 1265 1430
150 345 426 557 1090 730 790 815 1022 776 758 665 570 862 915 624 408 482 625 668 674 549 829 872 570 707 620 398 301 288 201 358 489 812 1144 380 686 1622 1402 1434 2117 2260 1807
152 147 231 411 447 422 632 618 833 777 1066 701 302 937 891 294 219 561 850 746 365 319 1290 1321 1391 1426 1006 486 490 618 504 384 844 1042 1304 1358 370 1236 1533 2253 2434 2384 2215
108 57 97 139 347 681 927 670 698 815 954 669 1037 1448 1125 1381 1110 1408 1347 1177 954 1039 879 1591 1123 1412 980 651 524 581 799 849 929 987 1349 1322 1445 925 1469 1889 2154 2196 2112
7 0 0 71 596 602 656 548 539 784 943 798 1092 1232 1416 838 1291 1688 1244 976 837 1349 1666 1684 1720 1868 1825 673 791 835 690 853 924 1023 1261 1491 1313 1464 1632 1922 2108 2038 2176
70 134 49 171 499 348 565 544 292 538 950 950 1285 1370 1035 1330 1570 1432 1443 397 888 1161 1827 1739 1689 2173 1354 874 1195 821 708 678 760 866 1266 1439 1207 1250 1186 1639 1887 2043 1962
102 148 138 118 292 276 519 627 606 640 889 720 887 1318 1439 1011 1235 1206 1214 1056 1004 1079 1232 1624 2229 1969 1862 1989 1270 1105 516 568 629 790 844 1306 1186 1182 1236 1385 1752 2183 1932
150 306 201 167 269 648 553 438 466 681 783 719 1018 985 1052 1290 1287 1096 911 801 766 823 930 1348 1757 2123 1639 1634 1491 1676 1198 835 797 688 804 896 1131 1114 1065 1371 1675 1732 1982
110 237 216 223 459 552 386 370 324 464 433 520 706 635 734 800 1182 1216 911 782 987 329 531 1055 1315 1921 1695 1527 1469 1478 1215 979 1110 468 534 688 675 804 923 991 1409 1533 1548
176 237 321 339 505 596 361 339 320 270 288 505 445 434 563 678 992 1438 798 836 1001 707 778 1202 1639 1705 1798 1347 977 593 682 734 568 711 594 511 493 652 707 692 862 1007 1118
127 265 336 310 352 507 381 395 477 273 310 482 407 515 382 511 739 1178 1303 1169 775 968 569 691 1424 1526 1708 1565 1061 524 616 359 338 367 503 426 339 465 588 574 546 598 598

GFSSE_con_mucape_111.txt.gz
CAPE
33 181 1443 1253 1486 1573 1847 2169 2362 2312 2299 2108 1815 1605 1432 1773 2004 2019 2155 1979 1854 1500 1723 2002 1904 1540 1486 1947 1970 1986 1913 1761 1817 1719 1773 1823 1831 1873 1605 1412 1464 1444 1824
175 593 1531 1382 1655 1805 2088 2390 2293 2115 2112 2052 1999 1682 1580 1728 1673 1949 2016 1959 2099 1632 1640 1689 1839 1829 1778 1844 1766 1954 1813 1927 1869 1761 1807 1931 2088 1835 1515 1589 974 899 1289
395 1161 1661 1924 1874 1860 2199 2222 2165 2027 1941 2065 2011 2137 2015 1948 1805 1896 1919 1837 1927 1751 1768 1892 1786 1419 1319 1374 1391 1667 2032 2031 2072 2031 1980 1523 1657 2018 1824 1357 1576 1249 1004
944 1447 1532 2290 1907 2021 2186 2203 2203 2111 1751 2023 1823 1945 1997 1845 1920 2007 1032 829 1033 1671 1685 1749 1682 1418 1373 1547 1673 1641 1988 1839 1907 1701 1321 1503 1588 2004 2032 1860 1776 1815 1782
1326 1295 1412 1609 2086 2115 2265 2215 2183 2245 1878 1947 2106 1934 1969 1727 1290 1383 1660 1571 1567 1981 1561 1640 1783 1898 1733 1687 1720 2059 2043 1840 1766 1170 1286 1487 1710 1811 1927 1877 1879 1813 1824
1184 1118 1764 1623 2097 2068 2216 2126 2056 2190 2221 2221 2109 2118 2107 2159 2082 2130 2157 1958 1825 1655 1604 1649 1884 1802 2009 1600 1850 2116 1950 1861 1396 1353 1514 1749 1600 1894 1996 1869 1775 1902 1930
988 1383 1402 2144 2090 2135 2277 2213 2235 2269 2252 2198 2159 1988 1889 1840 2017 2084 2189 2062 2133 1876 1435 1444 1577 1653 1830 2074 1869 1590 1227 1390 1087 1240 1405 1540 1826 2243 1976 1887 1823 1596 1892
1372 1627 1666 2029 2014 2151 2116 2294 2312 2303 2235 2147 2151 2170 2096 2096 2151 2098 2327 2376 2171 1637 1221 1245 1302 1332 1712 2473 2099 1382 944 851 650 915 1225 1331 1815 1403 1078 1250 1397 1493 1722
1535 1693 1730 1724 1698 2029 2242 2215 2283 2374 2325 2229 2217 2316 2405 2417 2299 2233 1647 1411 1230 1018 972 927 957 1045 1223 1548 2012 1326 1018 746 285 398 609 847 1597 1014 953 977 980 1097 1150
1297 1412 1556 1532 1748 1841 2049 2398 2356 2437 2479 2394 2180 2325 2386 2330 2153 2129 2376 1935 1494 1228 1026 866 839 914 1052 1164 1686 1388 1090 747 129 264 456 817 1241 803 785 809 824 896 956
1111 1349 1452 1628 1643 1805 1948 1964 2257 2356 2395 2401 2175 2275 2202 1756 1864 1724 1964 1832 1859 1745 1490 1290 1074 1029 1218 1640 1841 1406 1346 304 41 174 349 919 823 602 624 737 923 1091 1188
932 1190 1317 1284 1487 1708 1828 1656 1705 1950 1993 2017 1906 1696 1294 1293 1338 1742 1885 2077 1787 1046 884 1739 1864 2150 557 270 389 1112 1236 144 0 56 238 1082 631 630 673 751 848 928 977
729 1048 1105 1190 1408 1640 1709 1470 1584 1759 2011 1869 1679 1039 1142 1188 1052 626 502 517 552 537 324 358 350 473 1293 1127 1294 575 564 789 0 54 305 1094 732 735 770 801 876 1040 1197
545 701 793 947 1258 1487 1490 1378 1281 1006 893 823 1013 1133 1212 1124 534 329 203 28 86 252 307 359 523 787 977 1108 1206 1161 81 108 65 233 572 1087 1184 1120 928 819 897 990 1130
480 555 711 653 893 978 1117 1115 1021 1010 854 699 909 1021 1013 992 468 258 12 49 94 204 311 410 562 642 709 570 329 863 581 70 120 325 691 1687 1694 1050 925 852 949 1145 1321
382 443 507 447 420 700 937 963 963 730 511 710 894 1046 643 329 360 236 143 336 541 474 674 690 499 670 658 431 64 79 289 457 739 218 107 306 1191 1142 1164 1151 1296 1416 1595
244 278 262 316 425 770 771 857 881 878 466 706 677 840 728 435 378 293 358 438 401 366 897 1057 1105 932 1044 730 298 129 246 435 641 942 466 129 259 1159 1257 1382 1970 2430 1885
205 280 254 611 392 667 772 736 855 617 598 542 496 680 716 425 252 656 657 665 262 589 754 946 883 968 1135 507 495 458 227 387 659 1040 1104 742 1247 1409 1524 1930 2533 2635 2189
263 307 448 610 682 451 563 529 655 618 846 539 625 848 465 384 913 1171 846 707 624 997 1484 1398 1685 1544 926 483 481 614 658 596 647 761 1046 1087 1046 1103 1628 1960 1903 2178 2245
164 182 224 299 521 599 483 410 592 608 820 401 805 1003 1073 1047 1177 1295 953 468 918 1238 1609 1544 1784 1516 1423 610 667 680 588 594 645 698 816 1031 1093 1324 1442 1665 1849 1893 1758
62 72 115 382 392 460 391 432 576 575 636 676 933 1043 1271 1028 1235 1109 962 408 855 1225 1414 2054 1826 1349 1298 1079 1009 840 655 517 598 917 865 1059 1106 1095 1064 1296 1500 1626 1670
0 13 47 335 300 355 345 240 399 564 714 689 864 1057 1034 1105 1225 890 973 777 765 963 1306 1831 1954 1546 1502 1522 1223 538 362 419 429 498 691 913 1092 1140 1076 1110 1304 1850 1916
27 35 38 284 229 248 340 458 402 590 635 651 820 873 976 1150 1330 1016 846 705 689 697 1060 1345 1764 1539 1316 1310 1399 1094 725 667 684 475 523 559 698 915 988 1083 1324 1522 1723
47 91 15 191 167 322 328 358 434 415 455 520 668 787 782 835 957 1119 894 624 598 380 800 1049 1372 1591 1138 1090 861 911 752 747 835 362 449 582 574 594 734 950 1205 1309 1416
98 138 56 119 323 327 297 289 255 317 362 381 447 486 509 663 831 1152 836 675 810 564 721 1166 1393 1438 1330 737 554 425 503 479 398 493 421 368 455 509 569 590 615 803 881
81 166 103 130 379 346 265 236 219 217 278 399 406 381 356 500 640 1096 1128 827 771 774 586 863 1300 1403 1280 1029 566 622 464 212 248 239 295 242 334 334 328 440 391 407 426

GFSSE_con_mucape_114.txt.gz
CAPE
13 132 782 792 759 1407 1909 2298 2294 2237 1892 1966 2137 1689 1788 1784 1865 1847 1580 1608 1539 1831 1842 1948 1498 1969 1970 1905 1985 1706 1689 1735 1814 1809 1679 1702 1581 1467 1650 1735 1650 1444 1791
31 261 686 741 729 1445 2305 2291 2185 2312 2047 1596 2005 1612 1982 1836 1747 1817 1668 1720 1675 1759 1798 1847 1935 1959 1852 2042 1772 1687 1687 1645 1739 1669 1827 1748 1837 1819 1369 1301 1457 1481 1733
204 811 779 1293 1209 1924 2381 2241 2033 2071 2142 1913 1770 1882 1872 1885 2020 1959 1767 1661 1705 1749 1768 1728 1644 1566 1596 1637 1797 1821 1605 1557 1771 1795 1767 1809 1645 1383 1146 1277 987 966 969
724 1170 1111 1698 1748 2294 2380 2224 2100 1990 2149 2099 1844 1969 2020 1941 1891 1161 1053 1521 1772 1765 1750 1733 1638 1629 1559 1678 1952 2075 2070 2059 2017 1793 1375 1553 1530 1877 1981 1999 1992 1988 1993
1201 1338 1652 1776 2052 2153 2156 2128 2003 1707 2010 1911 2200 2062 1894 1927 1659 1386 1449 1489 1936 1737 1701 1951 1643 1679 1725 1967 1972 2070 1960 1919 1827 1339 1337 1613 1772 1920 1961 1989 1842 1898 1974
1216 1227 1472 1735 1907 2040 2053 2126 2191 2032 2237 2164 2099 2142 2159 1901 2092 1834 1844 1970 1739 1632 1715 1952 1987 1992 1905 2210 2109 2100 1965 1815 1477 1260 1439 1882 1701 2126 2019 1946 1992 2079 1975
1049 1264 1518 1937 2112 2212 2046 2121 2247 2267 2237 2227 2211 2143 2002 2046 2062 1965 1940 2062 1753 1508 1667 1736 1781 1667 1943 1965 1639 1396 1687 1617 1018 1149 1338 1719 1925 2294 1924 1862 1469 1832 1970
1094 1375 1430 1742 1772 2186 2023 2236 2262 2212 2160 2003 2014 1949 1951 2117 2089 2183 2217 2223 1388 1354 1496 1521 1524 1808 1979 1977 1523 1012 1172 1107 861 1048 1102 1316 1630 1358 1319 1498 1513 1666 1905
1436 1464 1528 1675 1625 2119 2189 2262 2319 2246 2180 2266 2314 2245 2210 2257 2338 1683 1532 1330 1069 1077 1137 1185 1226 1406 1735 1896 1462 1207 729 786 351 696 856 912 1399 998 1075 955 1054 1062 1087
1426 1505 1531 1492 1589 1870 1919 2220 2356 2337 2293 2203 2244 2334 2409 2325 2293 2339 2240 1786 1209 964 956 955 1077 1220 1372 1678 1710 1253 844 593 102 279 481 909 1083 771 801 821 801 859 991
1177 1373 1356 1532 1598 1810 1775 1927 2310 2438 2427 2136 2143 2571 1965 1795 1806 1728 1841 1841 1939 1663 1259 1146 1180 1303 1698 1422 1518 1371 1110 216 52 165 284 692 627 586 651 772 904 1005 1036
1050 1238 1360 1542 1526 1702 1779 1633 1810 2165 1907 1799 1627 1352 1332 1268 1526 1974 2189 1747 1265 545 806 1083 1059 1579 676 359 537 952 728 214 23 71 173 690 540 574 633 690 764 839 899
871 1068 1154 1202 1403 1539 1492 1402 1732 1845 1780 1742 1382 1018 1081 1269 1114 443 268 329 326 216 144 157 192 311 555 808 986 1050 490 449 33 42 170 759 708 696 719 752 813 977 1184
675 959 1010 970 1265 1401 1307 1369 1394 1623 1472 1277 1047 1127 1116 897 290 251 137 187 159 132 184 284 450 644 642 444 548 917 94 364 10 74 321 802 966 1028 962 804 869 971 1132
474 692 702 833 1098 1242 1179 1054 934 826 646 660 892 1013 998 954 351 159 27 72 178 351 418 445 478 475 475 309 131 646 402 62 47 171 535 1195 1340 1362 978 862 949 1161 1394
376 507 600 604 791 874 871 888 871 869 708 652 839 945 718 687 360 197 198 453 464 347 689 669 502 526 690 457 42 156 465 519 98 60 225 198 1355 1054 1114 1111 1314 1496 1660
308 358 484 413 474 521 650 768 814 582 423 580 740 867 700 324 335 240 259 359 321 598 796 698 654 765 899 683 154 141 290 437 705 523 49 176 282 731 1091 1243 1599 2281 1999
216 257 326 260 315 465 616 658 729 699 351 600 621 717 787 553 311 523 407 354 444 794 1186 940 1157 758 839 527 339 311 240 451 672 777 830 1051 1149 1388 1454 1275 2206 2582 2043
169 164 202 218 318 483 574 598 642 635 414 474 441 571 377 302 681 895 687 554 766 1274 1345 1367 1502 1196 693 439 544 519 453 434 525 619 769 834 813 1217 1450 1615 1616 1622 1772
118 148 177 210 390 340 492 495 445 590 600 633 425 798 338 685 1096 1148 741 446 953 1358 1664 1531 1208 1361 706 548 573 532 449 495 534 537 579 770 921 1057 1198 1331 1441 1463 1534
98 189 268 397 527 309 383 314 440 492 567 349 652 883 815 882 1047 1006 764 497 1098 1101 1701 1667 1325 1141 1238 724 834 635 622 465 546 558 619 777 937 1056 1028 990 1154 1264 1402
131 181 190 257 316 315 272 322 373 404 527 545 800 917 914 919 1028 690 563 496 864 876 1435 1591 1477 1178 1113 836 1097 365 315 362 403 630 728 792 820 890 1000 1229 1432 1583 1855
89 84 62 206 256 243 243 235 363 507 535 550 702 861 997 993 948 917 784 672 638 651 1043 1306 1493 1194 1230 1064 955 851 614 522 488 459 459 528 633 709 882 1140 1533 1731 1786
6 20 33 153 191 237 219 205 374 430 457 425 511 599 755 919 950 886 817 593 394 356 863 1050 1260 1294 854 1056 658 625 525 659 717 500 415 468 520 522 569 707 886 1018 1121
34 0 0 72 127 167 236 205 240 296 348 385 408 495 641 702 616 974 898 549 522 285 736 1096 1174 1382 1149 500 443 388 408 381 362 449 535 376 383 430 541 577 507 548 622
57 5 0 33 131 178 203 191 205 217 233 283 342 311 415 438 548 825 980 448 674 439 452 890 1068 1133 1086 562 462 443 375 208 260 364 360 242 210 411 292 373 452 479 693

GFSSE_con_mucape_117.txt.gz
CAPE
108 141 749 944 976 1012 1191 1936 2030 2028 2156 2287 2275 1858 1851 1644 1717 1700 1879 1590 1636 1773 1720 1768 1837 2032 2016 1959 1696 1574 1639 1959 1767 1556 1636 1644 1814 1802 1843 1717 1775 1281 1819
102 240 527 720 877 1578 2044 2093 2247 1995 1616 1617 1989 2088 1841 1676 1734 1618 1950 1714 1596 1830 1986 1990 1893 1982 1952 1898 1622 1497 1506 1690 1546 1682 1754 1784 1723 1420 1695 1736 1715 1965 2017
146 541 624 733 891 1668 2056 2035 2146 2065 1597 1518 1760 1893 1787 1744 1710 1661 1667 1798 1929 1789 1749 1652 1645 1736 2001 1908 1603 1653 1782 1957 1736 1736 1527 1117 676 1084 820 876 1007 1109 1186
412 776 598 1284 1198 1288 2163 2085 2035 2095 2111 2062 2084 1968 1926 1813 1254 1410 1751 1870 1767 1703 1541 1635 1642 1630 2006 2064 2090 2118 2058 2042 1994 1641 1559 1445 1458 1886 1997 2016 2020 2207 2055
926 869 1050 1632 1921 1739 2245 2009 1886 1948 1747 2216 2074 1813 1779 1540 1121 1105 1612 1886 1680 1778 1460 1227 1321 1594 1836 1972 1929 1862 1843 1896 1552 1311 1388 1469 1465 2026 2034 1850 2005 2022 1910
1101 980 1452 2117 2116 1971 2155 2079 1886 2052 2100 2032 2095 1778 1578 2022 1893 1843 1792 1601 1670 1809 1913 1928 1696 2005 2068 1923 1705 1719 1771 1761 1451 1475 1426 1741 1866 2110 2056 2208 2151 2053 2083
1015 1048 898 1971 1873 2043 2048 2214 2131 2068 2258 2053 1831 1950 1894 1861 1842 1696 1911 1625 1549 1773 1745 1666 1811 1992 1798 1391 1252 1556 1672 1525 1408 1354 1671 1788 2089 2263 1859 1699 2005 2103 1406
678 1378 1366 1830 2077 1982 2006 2170 2138 2101 2047 2011 2040 1886 2045 2007 1976 1812 1829 1220 1545 1632 1516 1500 1893 1935 2092 1399 933 1188 1301 1035 1259 1616 1247 1062 1707 1704 1722 1671 1746 1967 1874
948 1018 1622 1414 1701 1939 2160 2234 2196 2171 2134 2031 2140 2108 2015 1763 1640 1456 1208 1122 1273 1342 1259 1416 1525 1840 1863 1495 1266 674 902 866 928 1431 959 668 1310 1178 955 1007 1005 1023 1045
1250 1195 1782 1418 1731 1775 2004 2229 2295 2274 2155 2176 2320 2053 1940 2213 1952 1780 1983 1625 1037 1103 1105 1176 1269 1480 1810 1786 1429 1031 693 283 6 278 305 557 952 846 812 789 829 1023 1214
1333 1168 1413 1511 1901 2330 2228 2180 2210 2097 2149 2212 2360 2333 2303 1754 1588 1338 1954 1647 1353 1081 992 1194 1272 1567 1385 1532 1472 1462 1036 365 0 8 86 597 593 639 720 832 921 952 972
988 1206 1229 1589 1644 1902 1976 2230 2388 2197 2597 2491 2322 2216 1959 1818 2125 1964 1662 1178 924 691 1181 1179 1225 1321 901 1012 1204 1317 976 618 15 3 74 662 576 612 648 694 754 850 977
768 1054 1380 1714 1857 2177 2198 2033 2090 2127 2140 2258 1978 1927 1945 1964 1060 674 422 251 299 332 536 516 704 920 1307 1420 1636 1450 989 637 83 0 122 704 721 722 721 751 791 1002 1291
749 960 1272 1366 1798 2056 1850 2206 1957 1693 1579 1481 1732 2066 1951 1137 759 285 83 107 578 839 1131 1251 1194 1153 961 913 891 1470 490 461 46 11 124 652 828 1052 1065 828 851 1004 1301
531 791 948 1250 1760 1969 2028 1807 1883 1456 1037 1324 1779 1918 1906 1657 1080 302 810 949 1229 1429 1566 1531 1232 1252 1435 891 615 1324 682 388 176 27 229 880 1200 1352 1169 1014 1057 1328 1585
301 611 787 1068 1491 1716 1727 1924 1746 1245 1107 1346 1599 1823 1729 1661 1363 736 600 1390 1527 1483 1721 1759 1658 1664 1778 802 652 747 846 339 197 109 152 296 1294 1480 1058 1150 1387 1729 1881
322 533 710 825 1117 1471 1613 1763 1766 1405 1069 1314 1647 1829 1550 1147 1167 1389 784 1431 1051 703 2176 1897 1945 1972 1630 745 872 586 456 530 386 118 200 253 339 487 942 1212 1549 1906 1997
316 594 668 356 660 1005 1361 1631 1567 1364 847 1308 1497 1562 1838 1312 1356 1264 1405 1355 889 1584 2291 2309 2193 1711 1342 1090 1072 673 542 551 645 748 951 1067 1189 1282 1303 1258 1183 1644 1873
375 541 666 684 747 954 1494 1412 1483 1534 838 1395 1008 1654 1658 1466 1269 1425 1616 1616 2159 2572 2713 2446 2567 2009 1346 1100 888 869 893 949 697 611 724 750 804 1067 1186 1218 1336 1390 1403
427 543 666 684 896 1170 1385 1409 1353 1453 1349 1331 1003 1776 1338 1022 1541 2302 1907 1573 2349 2674 2820 2428 2609 2217 1574 1425 783 945 1142 1130 1106 1317 1276 1181 1260 1168 1348 1624 1655 1542 1184
406 487 593 751 968 1075 1204 1267 1284 2044 1494 1473 1142 2027 1670 2110 2208 2311 1725 1202 2275 2465 2991 2866 2302 2712 2270 1752 1802 1357 1287 1137 1117 1067 1171 1308 1488 1713 1944 2030 2376 2102 1974
404 494 664 839 1120 1219 1112 1217 1252 1474 1429 1394 1905 2154 2118 1980 2258 2108 1877 1381 2160 1798 2858 3058 2856 2234 2188 2161 1896 1122 951 1022 1135 1070 1375 1435 1586 1497 1587 1989 2328 2621 2881
354 470 654 1032 1219 1187 1080 1090 1364 1439 1921 1596 1851 1921 2081 1986 2167 2117 1945 1900 1913 1126 1993 2812 2709 2766 2084 1721 2042 1838 1316 993 1455 1312 1528 1452 1660 1722 1814 1970 2204 2435 2615
324 406 585 905 1131 1076 1073 1213 1640 1277 1163 1971 2472 2393 1978 2070 2087 1927 1789 1446 1589 457 1932 2398 2476 2478 2557 1982 1446 1211 1786 2261 1530 1200 1332 1296 1280 1337 1598 1579 1520 1656 1917
257 305 408 769 938 958 1124 1241 1015 1821 1173 1535 1564 1869 1836 1666 1895 1864 1745 1552 1052 894 1958 2547 2546 2787 1968 1388 1424 1476 1343 1022 1173 1384 1042 1100 823 705 868 1316 1355 1267 1263
214 236 237 533 928 1000 1178 1148 1342 1568 1539 1266 1641 1360 1666 1454 1369 1927 1983 1428 1633 1493 1649 2132 2539 2581 2322 1531 1188 1297 1209 983 981 852 940 1217 1224 1195 729 572 757 988 1174

GFSSE_con_mucape_120.txt.gz
CAPE
325 468 769 980 1037 927 938 860 1442 1580 1787 1754 1835 1767 1683 1574 1701 1900 1748 1675 1649 2007 2001 2119 2062 2000 1902 1672 1621 1863 1844 1760 1745 1680 1887 1930 1992 1826 1777 1574 2365 1806 2260
138 303 823 811 1328 948 1154 1181 1560 1686 1865 1907 1916 1777 1764 1598 1767 1737 1699 1783 1681 1971 2006 1886 1907 2070 1978 1770 1594 1643 1756 1830 1971 2080 1956 1752 1820 1943 1896 2218 2737 1963 1893
135 261 442 799 1238 1676 1710 1830 1881 1472 1696 2061 1895 1892 1671 1549 1784 1783 1991 1920 1767 1889 1739 1819 1970 2052 1869 1901 1880 1949 1965 1836 1873 1663 1920 286 646 1073 1047 1214 1609 1692 2025
168 284 453 1075 1151 1702 1979 2008 1939 2002 2034 2056 1931 1946 1718 1660 1721 1958 1861 1766 1487 1481 1691 1661 1902 2040 2157 2205 2257 2159 2010 1893 1743 1613 1231 1143 1472 2022 2147 2223 2039 1985 1953
409 570 1093 1306 1414 1904 1956 1943 1956 1695 2037 1922 1605 1669 1118 1038 1063 1938 1797 1803 1461 1175 1415 1557 1735 1859 2097 1989 1843 1967 2079 1660 1378 1185 1043 1302 1430 2087 2114 2039 2108 2130 2151
870 823 1152 1802 1690 1993 1995 1795 1874 2118 2072 1930 1525 1715 2030 1984 2065 1899 1826 1780 1899 1967 2001 1895 2350 1900 1804 1634 1600 1877 1801 1561 1635 931 1073 1718 1916 1964 2026 2071 1926 2165 2205
698 811 844 1838 1885 2061 1860 1890 1958 2072 2078 2133 2046 1858 1891 1777 1774 1843 1620 1772 1875 1731 1766 1959 1963 1651 1270 1344 1657 1729 1651 1314 775 1539 1659 1825 1848 2086 1735 2133 2279 1517 1420
495 505 1090 1797 1874 1974 1895 1763 1958 1998 1834 1859 1955 1698 1849 1880 1806 1799 1374 1786 1806 1656 1685 2005 2202 2165 1445 948 1199 1402 1323 1311 903 577 641 914 1900 1881 1837 1899 2008 1972 1686
755 837 1054 1363 1920 2053 1892 2000 2116 1903 1710 2030 1944 1636 1805 1846 1694 1220 1268 1617 1624 1549 1740 1809 2043 2022 1696 1399 692 809 808 831 547 675 328 463 1154 1008 970 993 944 939 917
647 985 1122 1095 1250 1462 1669 1947 2166 2155 2017 2109 2000 1904 1911 1581 1248 1167 1738 1420 1367 1336 1515 1541 1714 2086 1827 1643 1265 923 451 152 23 168 169 573 932 837 772 797 950 1161 1237
637 852 1020 1165 1537 1846 1728 1853 1801 2073 1904 1976 1691 1755 1628 666 801 1286 1695 1098 1152 1103 1166 1197 1489 1524 1662 1656 1683 1396 1226 3 0 32 101 686 762 746 784 793 763 767 846
439 405 893 1057 1122 1545 1516 1925 1911 1559 1489 1411 1339 1186 823 987 1541 1028 1275 1332 1447 1607 1580 1754 1631 1148 930 851 1231 1520 452 126 0 76 167 753 714 673 631 679 779 900 1122
359 488 924 1095 1360 1464 1590 1557 1755 1326 1475 1636 1585 1006 1221 1028 1024 786 863 691 756 677 738 739 1061 1130 1330 955 763 355 266 272 71 139 168 717 807 798 757 766 871 1116 1360
431 570 897 1039 1587 1711 1568 1343 1197 1315 1233 1048 1496 1680 1586 928 972 565 349 734 924 758 1063 1258 1138 1606 1308 921 666 386 351 188 127 222 145 663 844 1079 1192 963 985 1154 1479
415 613 777 1094 1739 1915 1663 1242 1113 1066 1081 1301 1578 1875 1444 1042 861 762 1115 1021 1238 1304 1371 1493 1334 1434 1141 718 904 576 299 294 202 372 513 695 1007 1213 1367 1286 1334 1522 1774
345 614 715 1035 1643 1735 1504 1361 1140 882 1113 1257 1465 1707 2003 1074 1285 1086 1439 1271 1463 1622 1470 1436 1499 1338 749 777 1101 761 386 316 327 448 630 735 1342 1573 1221 1253 1499 1767 2039
321 554 732 1036 1412 1641 1607 2179 1342 1130 1051 1293 1542 2066 1802 1536 1781 1975 1377 1467 1373 1705 2529 2007 1685 1289 740 652 947 1066 925 695 495 509 611 678 712 641 1024 1357 1580 1860 2059
253 507 640 585 1105 1670 1728 1904 1362 1201 1268 1476 1679 1781 2091 1942 2013 2085 1449 1456 1839 2380 1842 1366 1063 776 874 762 717 594 876 903 1142 1039 924 1055 1156 1052 1162 1197 1229 1268 1487
263 500 564 509 1027 1481 1888 1617 1614 1756 1411 1625 1588 1653 2217 1892 1960 1871 1331 1821 2787 2394 2428 1914 1511 1127 900 716 708 907 871 886 1269 972 1387 1488 1427 1387 1455 1476 1183 1265 1264
279 529 574 855 1122 1458 1723 1825 1523 1421 1359 1435 1518 1576 1799 1818 2096 2448 1589 2087 2699 2205 2231 2286 2196 1891 1440 1157 632 1007 1020 883 1119 1416 1482 1309 1713 2045 1824 2209 2345 2122 1817
424 638 997 1109 1447 1477 1528 1380 1292 1229 1499 1423 1288 2034 1989 2299 2526 2671 1517 1789 2326 2314 2837 2660 2442 2613 1876 2095 1441 1182 1207 1153 1044 1092 1196 1264 1477 1552 1575 2093 2754 2481 2405
399 674 1009 1183 1492 1810 1687 1719 1245 1124 1316 1237 1339 1732 1780 2245 2276 2288 2323 1661 2539 1900 3014 2858 2815 1742 1675 2094 1542 984 674 795 598 961 1335 1441 1551 1637 1632 1966 2404 2895 3273
462 546 875 1279 1422 1528 1391 1488 1543 2056 1556 1628 1742 1648 1720 1952 2082 2461 2297 1827 2309 2086 1816 3008 2822 2721 1514 2176 2874 1971 769 740 993 1266 1637 1530 2022 1825 1908 2050 2282 2652 2890
519 609 691 1139 1471 1483 1473 1821 1779 1196 907 1808 1688 1476 1627 1714 1792 2092 2036 2090 2335 1559 2112 2172 2308 3072 3148 1684 1797 1643 2615 2849 1222 1064 1395 1388 1605 1651 1748 1823 1650 1743 2093
544 628 716 1167 1682 1564 1888 1661 1012 940 850 1035 1075 1497 1603 2086 1929 1521 2224 2262 2030 1368 1851 2643 2572 3060 2195 1911 1385 1635 1914 1456 1644 1328 959 1175 1174 1158 992 1244 1389 1308 1566
567 609 674 1108 1601 1265 1837 1357 1344 961 950 1036 1114 1160 1408 1152 1365 1995 1970 2322 2015 1803 1736 2092 2653 2564 2816 2402 1866 1715 1380 1216 991 1091 943 1124 1189 1063 1005 913 918 1194 1318